[[{"header":{"parameterUnit":"m.s-1","parameterCategory":1,"la1":31.0,"la2":29.5877,"lo1":-88.7671,"lo2":-86.6584,"dx":0.0162,"dy":0.0185,"nx":115,"ny":88,"refTime":"2022-11-14T06:00:00:Z","depth":0,"parameterNumber":2,"parameterNumberName":"U-component_of_WINDS"},"data":[0.0,0.0,0.0,0.0,0.0,0.0,0.0,0.0,0.0,0.0,0.0,0.0,0.0,0.0,0.0,0.0,0.0,0.0,0.0,0.0,0.0,0.0,0.0,0.0,0.0,0.0,0.0,0.0,0.0,0.0,0.0,0.0,0.0,0.0,0.0,0.0,0.0,0.0,0.0,0.0,0.0,0.0,0.0,0.0,0.0,0.0,0.0,0.0,0.0,0.0,0.0,0.0,0.0,0.0,0.0,0.0,0.0,0.0,0.0,0.0,0.0,0.0,0.0,0.0,0.0,0.0,0.0,0.0,0.0,0.0,0.0,0.0,0.0,0.0,0.0,0.0,0.0,0.0,0.0,0.0,0.0,0.0,0.0,0.0,0.0,0.0,0.0,0.0,0.0,0.0,0.0,0.0,0.0,0.0,0.0,0.0,0.0,0.0,0.0,0.0,0.0,0.0,0.0,0.0,0.0,0.0,0.0,0.0,0.0,0.0,0.0,0.0,0.0,0.0,0.0,0.0,0.0,0.0,0.0,0.0,0.0,0.0,0.0,0.0,0.0,0.0,0.0,0.0,0.0,0.0,0.0,0.0,0.0,0.0,0.0,0.0,0.0,0.0,0.0,0.0,0.0,0.0,0.0,0.0,0.0,0.0,0.0,0.0,0.0,0.0,0.0,0.0,0.0,0.0,0.0,0.0,0.0,0.0,0.0,0.0,0.0,0.0,0.0,0.0,0.0,0.0,0.0,0.0,0.0,0.0,0.0,0.0,0.0,0.0,0.0,0.0,0.0,0.0,0.0,0.0,0.0,0.0,0.0,0.0,0.0,0.0,0.0,0.0,0.0,0.0,0.0,0.0,0.0,0.0,0.0,0.0,0.0,0.0,0.0,0.0,0.0,0.0,0.0,0.0,0.0,0.0,0.0,0.0,0.0,0.0,0.0,0.0,0.0,0.0,0.0,0.0,0.0,0.0,0.0,0.0,0.0,0.0,0.0,0.0,0.0,0.0,0.0,0.0,0.0,0.0,0.0,0.0,0.0,0.0,0.0,0.0,0.0,0.0,0.0,0.0,0.0,0.0,0.0,0.0,0.0,0.0,0.0,0.0,0.0,0.0,0.0,0.0,0.0,0.0,0.0,0.0,0.0,0.0,0.0,0.0,0.0,0.0,0.0,0.0,0.0,0.0,0.0,0.0,0.0,0.0,0.0,0.0,0.0,0.0,0.0,0.0,0.0,0.0,0.0,0.0,0.0,0.0,0.0,0.0,0.0,0.0,0.0,0.0,0.0,0.0,0.0,0.0,0.0,0.0,0.0,0.0,0.0,0.0,0.0,0.0,0.0,0.0,0.0,0.0,0.0,0.0,0.0,0.0,0.0,0.0,0.0,0.0,0.0,0.0,0.0,0.0,0.0,0.0,0.0,0.0,0.0,0.0,0.0,0.0,0.0,0.0,0.0,0.0,0.0,0.0,0.0,0.0,0.0,0.0,0.0,0.0,0.0,0.0,0.0,0.0,0.0,0.0,0.0,0.0,0.0,0.0,0.0,0.0,0.0,0.0,0.0,0.0,0.0,0.0,0.0,0.0,0.0,0.0,0.0,0.0,0.0,0.0,0.0,0.0,0.0,0.0,0.0,0.0,0.0,0.0,0.0,0.0,0.0,0.0,0.0,0.0,0.0,0.0,0.0,0.0,0.0,0.0,0.0,0.0,0.0,0.0,0.0,0.0,0.0,0.0,0.0,0.0,0.0,0.0,0.0,0.0,0.0,0.0,0.0,0.0,0.0,0.0,0.0,0.0,0.0,0.0,0.0,0.0,0.0,0.0,0.0,0.0,0.0,0.0,0.0,0.0,0.0,0.0,0.0,0.0,0.0,0.0,0.0,0.0,0.0,0.0,0.0,0.0,0.0,0.0,0.0,0.0,0.0,0.0,0.0,0.0,0.0,0.0,0.0,0.0,0.0,0.0,0.0,0.0,0.0,0.0,0.0,0.0,0.0,0.0,0.0,0.0,0.0,0.0,0.0,0.0,0.0,0.0,0.0,0.0,0.0,0.0,0.0,0.0,0.0,0.0,0.0,0.0,0.0,0.0,0.0,0.0,0.0,0.0,0.0,0.0,0.0,0.0,0.0,0.0,0.0,0.0,0.0,0.0,0.0,0.0,0.0,0.0,0.0,0.0,0.0,0.0,0.0,0.0,0.0,0.0,0.0,0.0,0.0,0.0,0.0,0.0,0.0,0.0,0.0,0.0,0.0,0.0,0.0,0.0,0.0,0.0,0.0,0.0,0.0,0.0,0.0,0.0,0.0,0.0,0.0,0.0,0.0,0.0,0.0,0.0,0.0,0.0,0.0,0.0,0.0,0.0,0.0,0.0,0.0,0.0,0.0,0.0,0.0,0.0,0.0,0.0,0.0,0.0,0.0,0.0,0.0,0.0,0.0,0.0,0.0,0.0,0.0,0.0,0.0,0.0,0.0,0.0,0.0,0.0,0.0,0.0,0.0,0.0,0.0,0.0,0.0,0.0,0.0,0.0,0.0,0.0,0.0,0.0,0.0,0.0,0.0,0.0,0.0,0.0,0.0,0.0,0.0,0.0,0.0,0.0,0.0,0.0,0.0,0.0,0.0,0.0,0.0,0.0,0.0,0.0,0.0,0.0,0.0,0.0,0.0,0.0,0.0,0.0,0.0,0.0,0.0,0.0,0.0,0.0,0.0,0.0,0.0,0.0,0.0,0.0,0.0,0.0,0.0,0.0,0.0,0.0,0.0,0.0,0.0,0.0,0.0,0.0,0.0,0.0,0.0,0.0,0.0,0.0,0.0,0.0,0.0,0.0,0.0,0.0,0.0,0.0,0.0,0.0,0.0,0.0,0.0,0.0,0.0,0.0,0.0,0.0,0.0,0.0,0.0,0.0,0.0,0.0,0.0,0.0,0.0,0.0,0.0,0.0,0.0,0.0,0.0,0.0,0.0,0.0,0.0,0.0,0.0,0.0,0.0,0.0,0.0,0.0,0.0,0.0,0.0,0.0,0.0,0.0,0.0,0.0,0.0,0.0,0.0,0.0,0.0,0.0,0.0,0.0,0.0,0.0,0.0,0.0,0.0,0.0,0.0,0.0,0.0,0.0,0.0,0.0,0.0,0.0,0.0,0.0,0.0,0.0,0.0,0.0,0.0,0.0,0.0,0.0,0.0,0.0,0.0,0.0,0.0,0.0,0.0,0.0,0.0,0.0,0.0,0.0,0.0,0.0,0.0,0.0,0.0,0.0,0.0,0.0,0.0,0.0,0.0,0.0,0.0,0.0,0.0,0.0,0.0,0.0,0.0,0.0,0.0,0.0,0.0,0.0,0.0,0.0,0.0,0.0,0.0,0.0,0.0,0.0,0.0,0.0,0.0,0.0,0.0,0.0,0.0,0.0,0.0,0.0,0.0,0.0,0.0,0.0,0.0,0.0,0.0,0.0,0.0,0.0,0.0,0.0,0.0,0.0,0.0,0.0,0.0,0.0,0.0,0.0,0.0,0.0,0.0,0.0,0.0,0.0,0.0,0.0,0.0,0.0,0.0,0.0,0.0,0.0,0.0,0.0,0.0,0.0,0.0,0.0,0.0,0.0,0.0,0.0,0.0,0.0,0.0,0.0,0.0,0.0,0.0,0.0,0.0,0.0,0.0,0.0,0.0,0.0,0.0,0.0,0.0,0.0,0.0,0.0,0.0,0.0,0.0,0.0,0.0,0.0,0.0,0.0,0.0,0.0,0.0,0.0,0.0,0.0,0.0,0.0,0.0,0.0,0.0,0.0,0.0,0.0,0.0,0.0,0.0,0.0,0.0,0.0,0.0,0.0,0.0,0.0,0.0,0.0,0.0,0.0,0.0,0.0,0.0,0.0,0.0,0.0,0.0,0.0,0.0,0.0,0.0,0.0,0.0,0.0,0.0,0.0,0.0,0.0,0.0,0.0,0.0,0.0,0.0,0.0,0.0,0.0,0.0,0.0,0.0,0.0,0.0,0.0,0.0,0.0,0.0,0.0,0.0,0.0,0.0,0.0,0.0,0.0,0.0,0.0,0.0,0.0,0.0,0.0,0.0,0.0,0.0,0.0,0.0,0.0,0.0,0.0,0.0,0.0,0.0,0.0,0.0,0.0,0.0,0.0,0.0,0.0,0.0,0.0,0.0,0.0,0.0,0.0,0.0,0.0,0.0,0.0,0.0,0.0,0.0,0.0,0.0,0.0,0.0,0.0,0.0,0.0,0.0,0.0,0.0,0.0,3.2678,0.0,0.0,0.0,3.0299,0.0,0.0,0.0,0.0,0.0,0.0,0.0,0.0,0.0,0.0,0.0,0.0,0.0,0.0,0.0,0.0,0.0,0.0,0.0,0.0,0.0,0.0,0.0,0.0,0.0,0.0,0.0,0.0,0.0,0.0,0.0,0.0,0.0,0.0,0.0,0.0,0.0,0.0,0.0,0.0,0.0,0.0,0.0,0.0,0.0,0.0,0.0,0.0,0.0,0.0,0.0,0.0,0.0,0.0,0.0,0.0,0.0,0.0,0.0,0.0,0.0,0.0,0.0,0.0,0.0,0.0,0.0,0.0,0.0,0.0,0.0,0.0,0.0,0.0,0.0,0.0,0.0,0.0,0.0,0.0,0.0,0.0,0.0,0.0,0.0,0.0,0.0,0.0,0.0,0.0,0.0,0.0,0.0,0.0,0.0,0.0,0.0,0.0,0.0,0.0,0.0,0.0,0.0,0.0,0.0,0.0,0.0,0.0,0.0,0.0,3.2655,2.963,3.4253,3.4513,2.9704,0.0,0.0,0.0,0.0,0.0,0.0,0.0,0.0,0.0,0.0,0.0,0.0,0.0,0.0,0.0,0.0,0.0,0.0,0.0,0.0,0.0,0.0,0.0,0.0,0.0,0.0,0.0,0.0,0.0,0.0,0.0,0.0,0.0,0.0,0.0,0.0,0.0,0.0,0.0,0.0,0.0,0.0,0.0,0.0,0.0,0.0,0.0,0.0,0.0,0.0,0.0,0.0,0.0,0.0,0.0,0.0,0.0,0.0,0.0,0.0,0.0,0.0,0.0,0.0,0.0,0.0,0.0,0.0,0.0,0.0,0.0,0.0,0.0,0.0,0.0,0.0,0.0,0.0,0.0,0.0,0.0,0.0,0.0,0.0,0.0,0.0,0.0,0.0,0.0,0.0,0.0,0.0,0.0,0.0,0.0,0.0,0.0,0.0,0.0,0.0,0.0,0.0,0.0,0.0,0.0,0.0,0.0,0.0,0.0,0.0,0.0,0.0,3.5739,3.611,3.1637,0.0,0.0,0.0,0.0,0.0,0.0,0.0,0.0,0.0,0.0,0.0,0.0,0.0,0.0,0.0,0.0,0.0,0.0,0.0,0.0,0.0,0.0,0.0,0.0,0.0,0.0,0.0,0.0,0.0,0.0,0.0,0.0,0.0,0.0,0.0,0.0,0.0,0.0,0.0,0.0,0.0,0.0,0.0,0.0,0.0,0.0,0.0,0.0,0.0,0.0,0.0,0.0,0.0,0.0,0.0,0.0,0.0,0.0,0.0,0.0,0.0,0.0,0.0,0.0,0.0,0.0,0.0,0.0,0.0,0.0,0.0,0.0,0.0,0.0,0.0,0.0,0.0,0.0,0.0,0.0,0.0,0.0,0.0,0.0,0.0,0.0,0.0,0.0,0.0,0.0,0.0,0.0,0.0,0.0,0.0,0.0,0.0,0.0,0.0,0.0,0.0,0.0,0.0,0.0,0.0,0.0,0.0,0.0,0.0,0.0,3.1823,3.5887,3.5887,0.0,3.6965,0.0,0.0,0.0,0.0,0.0,0.0,0.0,0.0,0.0,0.0,0.0,0.0,0.0,0.0,0.0,0.0,0.0,0.0,0.0,0.0,0.0,0.0,0.0,0.0,0.0,0.0,0.0,0.0,0.0,0.0,0.0,0.0,0.0,0.0,0.0,0.0,0.0,0.0,0.0,0.0,0.0,0.0,0.0,0.0,0.0,0.0,0.0,0.0,0.0,0.0,0.0,0.0,0.0,0.0,0.0,0.0,0.0,0.0,0.0,0.0,0.0,0.0,0.0,0.0,0.0,0.0,0.0,0.0,0.0,0.0,0.0,0.0,0.0,0.0,0.0,0.0,0.0,0.0,0.0,0.0,0.0,0.0,0.0,0.0,0.0,0.0,0.0,0.0,0.0,0.0,0.0,0.0,0.0,0.0,0.0,0.0,0.0,0.0,0.0,0.0,0.0,0.0,0.0,0.0,0.0,0.0,0.0,0.0,0.0,0.0,3.2953,3.5925,3.6147,3.6036,0.0,0.0,0.0,0.0,0.0,0.0,0.0,0.0,0.0,0.0,0.0,0.0,0.0,0.0,0.0,0.0,0.0,0.0,0.0,0.0,0.0,0.0,0.0,0.0,0.0,0.0,0.0,0.0,0.0,0.0,0.0,0.0,0.0,0.0,0.0,0.0,0.0,0.0,0.0,0.0,0.0,0.0,0.0,0.0,0.0,0.0,0.0,0.0,0.0,0.0,0.0,0.0,0.0,0.0,0.0,0.0,0.0,0.0,0.0,0.0,0.0,0.0,0.0,0.0,0.0,0.0,0.0,0.0,0.0,0.0,0.0,0.0,0.0,0.0,0.0,0.0,0.0,0.0,0.0,0.0,0.0,0.0,0.0,0.0,0.0,0.0,0.0,0.0,0.0,0.0,0.0,0.0,0.0,0.0,0.0,0.0,0.0,0.0,0.0,0.0,0.0,0.0,0.0,0.0,0.0,0.0,0.0,0.0,0.0,0.0,3.3398,3.4884,3.7336,3.7634,3.6928,3.5256,0.0,0.0,0.0,0.0,0.0,0.0,0.0,0.0,0.0,0.0,0.0,0.0,0.0,0.0,0.0,0.0,0.0,0.0,0.0,0.0,0.0,0.0,0.0,0.0,0.0,0.0,0.0,0.0,0.0,0.0,0.0,0.0,0.0,0.0,0.0,0.0,0.0,0.0,0.0,0.0,0.0,0.0,0.0,0.0,0.0,0.0,0.0,0.0,0.0,0.0,0.0,0.0,0.0,0.0,0.0,0.0,0.0,0.0,0.0,0.0,0.0,0.0,0.0,0.0,0.0,0.0,0.0,0.0,0.0,0.0,0.0,0.0,0.0,0.0,0.0,0.0,0.0,0.0,0.0,0.0,0.0,0.0,0.0,0.0,0.0,0.0,0.0,0.0,0.0,0.0,0.0,0.0,0.0,0.0,0.0,0.0,0.0,0.0,0.0,0.0,0.0,0.0,0.0,0.0,0.0,0.0,0.0,0.0,4.0346,3.7262,3.7634,4.2203,4.1014,3.9417,0.0,0.0,0.0,0.0,0.0,0.0,0.0,0.0,0.0,0.0,0.0,0.0,0.0,0.0,0.0,0.0,0.0,0.0,0.0,0.0,0.0,0.0,0.0,0.0,0.0,0.0,0.0,0.0,0.0,0.0,0.0,0.0,0.0,0.0,0.0,0.0,0.0,0.0,0.0,0.0,0.0,0.0,0.0,0.0,0.0,0.0,0.0,0.0,0.0,0.0,0.0,0.0,0.0,0.0,0.0,0.0,0.0,0.0,0.0,0.0,0.0,0.0,0.0,0.0,0.0,0.0,0.0,0.0,0.0,0.0,0.0,0.0,0.0,0.0,0.0,0.0,0.0,0.0,0.0,0.0,0.0,0.0,0.0,0.0,0.0,0.0,0.0,0.0,0.0,0.0,0.0,0.0,0.0,0.0,0.0,0.0,0.0,0.0,0.0,0.0,0.0,0.0,0.0,0.0,0.0,0.0,0.0,0.0,0.0,3.4439,3.6147,3.938,4.4061,4.1274,3.9528,0.0,0.0,0.0,0.0,0.0,0.0,0.0,0.0,0.0,0.0,0.0,0.0,0.0,0.0,0.0,0.0,0.0,0.0,0.0,0.0,0.0,0.0,0.0,0.0,0.0,0.0,0.0,0.0,0.0,0.0,0.0,0.0,0.0,0.0,0.0,0.0,0.0,0.0,0.0,0.0,0.0,0.0,0.0,0.0,0.0,0.0,0.0,0.0,0.0,0.0,0.0,0.0,0.0,0.0,0.0,0.0,0.0,0.0,0.0,0.0,0.0,0.0,0.0,0.0,0.0,0.0,0.0,0.0,0.0,0.0,0.0,0.0,0.0,0.0,0.0,0.0,0.0,0.0,0.0,0.0,0.0,0.0,0.0,0.0,0.0,0.0,0.0,0.0,0.0,0.0,0.0,0.0,0.0,0.0,0.0,0.0,0.0,0.0,0.0,0.0,0.0,0.0,0.0,0.0,0.0,0.0,0.0,0.0,0.0,3.533,4.0383,4.4172,4.6178,4.2983,4.0383,0.0,0.0,0.0,0.0,0.0,0.0,0.0,0.0,0.0,0.0,0.0,0.0,0.0,0.0,0.0,0.0,0.0,0.0,0.0,0.0,0.0,0.0,0.0,0.0,0.0,0.0,0.0,0.0,0.0,0.0,0.0,0.0,0.0,0.0,0.0,0.0,0.0,0.0,0.0,0.0,0.0,0.0,0.0,0.0,0.0,0.0,0.0,0.0,0.0,0.0,0.0,0.0,0.0,0.0,0.0,0.0,0.0,0.0,0.0,0.0,0.0,0.0,0.0,0.0,0.0,0.0,0.0,0.0,0.0,0.0,0.0,0.0,0.0,0.0,0.0,0.0,0.0,0.0,0.0,0.0,0.0,0.0,0.0,0.0,0.0,0.0,0.0,0.0,0.0,0.0,0.0,0.0,0.0,0.0,0.0,0.0,0.0,0.0,0.0,0.0,0.0,0.0,0.0,0.0,0.0,0.0,0.0,0.0,3.5516,4.4729,5.0413,5.1639,4.9002,4.6364,4.2166,0.0,0.0,0.0,0.0,0.0,0.0,0.0,0.0,0.0,0.0,0.0,0.0,0.0,0.0,0.0,0.0,0.0,0.0,0.0,0.0,0.0,0.0,0.0,0.0,0.0,0.0,0.0,0.0,0.0,0.0,0.0,0.0,0.0,0.0,0.0,0.0,0.0,0.0,0.0,0.0,0.0,0.0,0.0,0.0,0.0,0.0,0.0,0.0,0.0,0.0,0.0,0.0,0.0,0.0,0.0,0.0,0.0,0.0,0.0,0.0,0.0,0.0,0.0,0.0,0.0,0.0,0.0,0.0,0.0,0.0,0.0,0.0,0.0,0.0,0.0,0.0,0.0,0.0,0.0,0.0,0.0,0.0,0.0,0.0,0.0,0.0,0.0,0.0,0.0,0.0,0.0,0.0,0.0,0.0,0.0,0.0,0.0,0.0,0.0,0.0,0.0,0.0,0.0,0.0,0.0,0.0,0.0,0.0,0.0,4.2017,4.7478,5.0748,5.1268,4.6327,4.3429,0.0,0.0,0.0,0.0,0.0,0.0,0.0,0.0,0.0,0.0,0.0,0.0,0.0,0.0,0.0,0.0,0.0,0.0,0.0,0.0,0.0,0.0,0.0,0.0,0.0,0.0,0.0,0.0,0.0,0.0,0.0,0.0,0.0,0.0,0.0,0.0,0.0,0.0,0.0,0.0,0.0,0.0,0.0,0.0,0.0,0.0,0.0,0.0,0.0,0.0,0.0,0.0,0.0,0.0,0.0,0.0,0.0,0.0,0.0,0.0,0.0,0.0,0.0,0.0,0.0,0.0,0.0,0.0,0.0,0.0,0.0,0.0,0.0,0.0,0.0,0.0,0.0,0.0,0.0,0.0,0.0,0.0,0.0,0.0,0.0,0.0,0.0,0.0,0.0,0.0,0.0,0.0,0.0,0.0,0.0,0.0,0.0,0.0,0.0,0.0,0.0,0.0,0.0,0.0,0.0,0.0,0.0,0.0,0.0,4.707,5.1454,5.4351,5.528,4.9262,4.5992,4.5881,0.0,0.0,0.0,0.0,0.0,0.0,0.0,0.0,0.0,0.0,0.0,0.0,0.0,0.0,0.0,0.0,0.0,0.0,0.0,0.0,0.0,0.0,0.0,0.0,0.0,0.0,0.0,0.0,0.0,0.0,0.0,0.0,0.0,0.0,0.0,0.0,0.0,0.0,0.0,0.0,0.0,0.0,0.0,0.0,0.0,0.0,0.0,0.0,0.0,0.0,0.0,0.0,0.0,0.0,0.0,0.0,0.0,0.0,0.0,0.0,0.0,0.0,0.0,0.0,0.0,0.0,0.0,0.0,0.0,0.0,0.0,0.0,0.0,0.0,0.0,0.0,0.0,0.0,0.0,0.0,0.0,0.0,0.0,0.0,0.0,0.0,0.0,0.0,0.0,0.0,0.0,0.0,0.0,0.0,0.0,0.0,0.0,0.0,0.0,0.0,0.0,0.0,0.0,0.0,0.0,0.0,0.0,0.0,5.7732,6.0927,6.1744,6.0035,5.4537,4.9745,0.0,0.0,0.0,0.0,0.0,0.0,0.0,0.0,0.0,0.0,0.0,0.0,0.0,0.0,0.0,0.0,0.0,0.0,0.0,0.0,0.0,0.0,0.0,0.0,0.0,0.0,0.0,0.0,0.0,0.0,0.0,0.0,0.0,0.0,0.0,0.0,0.0,0.0,0.0,0.0,0.0,0.0,0.0,0.0,0.0,0.0,0.0,0.0,0.0,0.0,0.0,0.0,0.0,0.0,0.0,0.0,0.0,0.0,0.0,0.0,0.0,0.0,0.0,0.0,0.0,0.0,0.0,0.0,0.0,0.0,0.0,0.0,0.0,0.0,0.0,0.0,0.0,0.0,0.0,0.0,0.0,0.0,0.0,0.0,0.0,0.0,0.0,0.0,0.0,0.0,0.0,0.0,0.0,0.0,0.0,0.0,0.0,0.0,0.0,0.0,0.0,0.0,0.0,0.0,0.0,0.0,0.0,0.0,0.0,6.1001,6.375,6.4345,6.2599,5.7063,5.3014,0.0,0.0,0.0,0.0,0.0,0.0,0.0,0.0,0.0,0.0,0.0,0.0,0.0,0.0,0.0,0.0,0.0,0.0,0.0,0.0,0.0,0.0,0.0,0.0,0.0,0.0,0.0,0.0,0.0,0.0,0.0,0.0,0.0,0.0,0.0,0.0,0.0,0.0,0.0,0.0,0.0,0.0,0.0,0.0,0.0,0.0,0.0,0.0,0.0,0.0,0.0,0.0,0.0,0.0,0.0,0.0,0.0,0.0,0.0,0.0,0.0,0.0,0.0,0.0,0.0,0.0,0.0,0.0,0.0,0.0,0.0,0.0,0.0,0.0,0.0,0.0,0.0,0.0,0.0,0.0,0.0,0.0,0.0,0.0,0.0,0.0,0.0,0.0,0.0,0.0,0.0,0.0,0.0,0.0,0.0,0.0,0.0,0.0,0.0,0.0,0.0,0.0,0.0,0.0,0.0,0.0,0.0,0.0,5.9627,6.5831,6.6722,6.6834,6.6202,6.0258,5.58,0.0,0.0,0.0,0.0,0.0,0.0,0.0,0.0,0.0,0.0,0.0,0.0,0.0,0.0,0.0,0.0,0.0,0.0,0.0,0.0,0.0,0.0,0.0,0.0,0.0,0.0,0.0,0.0,0.0,0.0,0.0,0.0,0.0,0.0,0.0,0.0,0.0,0.0,0.0,0.0,0.0,0.0,0.0,0.0,0.0,0.0,0.0,0.0,0.0,0.0,0.0,0.0,0.0,0.0,0.0,0.0,0.0,0.0,0.0,0.0,0.0,0.0,0.0,0.0,0.0,0.0,0.0,0.0,0.0,0.0,0.0,0.0,0.0,0.0,0.0,0.0,0.0,0.0,0.0,0.0,0.0,0.0,0.0,0.0,0.0,0.0,0.0,0.0,0.0,0.0,0.0,0.0,0.0,0.0,0.0,0.0,0.0,0.0,0.0,0.0,0.0,0.0,0.0,0.0,0.0,0.0,0.0,0.0,6.3245,7.0809,6.9543,6.9097,6.9569,6.3654,5.8405,0.0,0.0,0.0,0.0,0.0,0.0,0.0,0.0,0.0,0.0,0.0,0.0,0.0,0.0,0.0,0.0,0.0,0.0,0.0,0.0,0.0,0.0,0.0,0.0,0.0,0.0,0.0,0.0,0.0,0.0,0.0,0.0,0.0,0.0,0.0,0.0,0.0,0.0,0.0,0.0,0.0,0.0,0.0,0.0,0.0,0.0,0.0,0.0,0.0,0.0,0.0,0.0,0.0,0.0,0.0,0.0,0.0,0.0,0.0,0.0,0.0,0.0,0.0,0.0,0.0,0.0,0.0,0.0,0.0,0.0,0.0,0.0,0.0,0.0,0.0,0.0,0.0,0.0,0.0,0.0,0.0,0.0,0.0,0.0,0.0,0.0,0.0,0.0,0.0,0.0,0.0,0.0,0.0,0.0,0.0,0.0,0.0,0.0,0.0,0.0,0.0,0.0,0.0,0.0,0.0,0.0,0.0,0.0,6.7221,7.1735,7.0979,7.0399,7.0241,6.5741,6.1232,0.0,0.0,0.0,0.0,0.0,0.0,0.0,0.0,0.0,0.0,0.0,0.0,0.0,0.0,0.0,0.0,0.0,0.0,0.0,0.0,0.0,0.0,0.0,0.0,0.0,0.0,0.0,0.0,0.0,0.0,0.0,0.0,0.0,0.0,0.0,0.0,0.0,0.0,0.0,0.0,0.0,0.0,0.0,0.0,0.0,0.0,0.0,0.0,4.2119,0.0,0.0,0.0,0.0,0.0,0.0,0.0,0.0,0.0,0.0,0.0,0.0,0.0,0.0,0.0,0.0,0.0,0.0,0.0,0.0,0.0,0.0,0.0,0.0,0.0,0.0,0.0,0.0,0.0,0.0,0.0,0.0,0.0,0.0,0.0,0.0,0.0,0.0,0.0,0.0,0.0,0.0,0.0,0.0,0.0,0.0,0.0,0.0,0.0,0.0,0.0,0.0,0.0,0.0,0.0,0.0,0.0,0.0,0.0,7.023,7.4366,7.3759,7.2881,7.1845,6.955,6.4898,0.0,0.0,0.0,0.0,0.0,0.0,0.0,0.0,0.0,0.0,0.0,0.0,0.0,0.0,0.0,0.0,0.0,0.0,0.0,0.0,0.0,0.0,0.0,0.0,0.0,0.0,0.0,0.0,0.0,0.0,0.0,0.0,0.0,0.0,0.0,0.0,0.0,0.0,0.0,0.0,0.0,0.0,0.0,0.0,0.0,0.0,0.0,0.0,0.0,0.0,0.0,0.0,0.0,0.0,0.0,0.0,0.0,0.0,0.0,0.0,0.0,0.0,0.0,0.0,0.0,0.0,0.0,0.0,0.0,0.0,0.0,0.0,0.0,0.0,0.0,0.0,0.0,0.0,0.0,0.0,0.0,0.0,0.0,0.0,0.0,0.0,0.0,0.0,0.0,0.0,0.0,0.0,0.0,0.0,0.0,0.0,0.0,0.0,0.0,0.0,0.0,0.0,0.0,0.0,0.0,0.0,0.0,6.7161,7.2206,7.6958,7.646,7.5395,7.4028,7.3189,6.8184,5.8604,0.0,0.0,0.0,0.0,0.0,0.0,0.0,0.0,0.0,0.0,0.0,0.0,0.0,0.0,0.0,0.0,0.0,0.0,0.0,0.0,0.0,0.0,0.0,0.0,0.0,0.0,0.0,0.0,0.0,0.0,0.0,0.0,0.0,0.0,0.0,0.0,0.0,0.0,3.7559,4.3007,0.0,0.0,0.0,0.0,0.0,0.0,0.0,0.0,4.759,0.0,0.0,0.0,0.0,0.0,0.0,0.0,0.0,0.0,0.0,0.0,0.0,0.0,0.0,0.0,0.0,0.0,0.0,0.0,0.0,0.0,0.0,0.0,0.0,0.0,0.0,0.0,0.0,0.0,0.0,0.0,0.0,0.0,0.0,0.0,0.0,0.0,0.0,0.0,0.0,0.0,0.0,0.0,0.0,0.0,0.0,0.0,0.0,0.0,0.0,0.0,0.0,0.0,0.0,0.0,0.0,6.8014,6.926,7.2195,7.7099,7.6755,7.6422,7.6117,7.365,6.8792,6.162,0.0,0.0,0.0,0.0,0.0,0.0,0.0,0.0,0.0,0.0,0.0,0.0,0.0,0.0,0.0,0.0,0.0,0.0,0.0,0.0,0.0,0.0,0.0,0.0,0.0,0.0,0.0,0.0,0.0,0.0,0.0,0.0,0.0,0.0,0.0,0.0,0.0,0.0,0.0,5.1166,5.314,0.0,0.0,0.0,0.0,0.0,0.0,0.0,0.0,4.8372,0.0,0.0,0.0,0.0,0.0,0.0,0.0,0.0,0.0,0.0,0.0,0.0,0.0,0.0,0.0,0.0,0.0,0.0,0.0,0.0,0.0,0.0,0.0,0.0,0.0,0.0,0.0,0.0,0.0,0.0,0.0,0.0,0.0,0.0,0.0,0.0,0.0,0.0,0.0,0.0,0.0,0.0,0.0,0.0,0.0,0.0,0.0,0.0,0.0,0.0,0.0,0.0,0.0,0.0,0.0,6.7646,7.2581,7.658,7.9746,7.9665,7.8947,7.7681,7.625,7.135,0.0,0.0,0.0,0.0,0.0,0.0,0.0,0.0,0.0,0.0,0.0,0.0,0.0,0.0,0.0,0.0,0.0,0.0,0.0,0.0,0.0,0.0,0.0,0.0,0.0,0.0,0.0,0.0,0.0,0.0,0.0,0.0,0.0,0.0,0.0,0.0,0.0,0.0,0.0,0.0,5.4011,5.6187,5.9337,0.0,0.0,0.0,0.0,0.0,0.0,5.2402,5.0522,0.0,0.0,0.0,0.0,0.0,0.0,0.0,0.0,0.0,0.0,0.0,0.0,0.0,0.0,0.0,0.0,0.0,0.0,0.0,0.0,0.0,0.0,0.0,0.0,0.0,0.0,0.0,0.0,0.0,0.0,0.0,0.0,0.0,0.0,0.0,0.0,0.0,0.0,0.0,0.0,0.0,0.0,0.0,0.0,0.0,0.0,0.0,0.0,0.0,0.0,0.0,0.0,0.0,0.0,0.0,6.6275,7.4267,7.9715,8.217,8.2221,8.1298,7.9592,7.8762,7.3722,0.0,0.0,0.0,0.0,0.0,0.0,0.0,0.0,0.0,0.0,0.0,0.0,0.0,0.0,0.0,0.0,0.0,0.0,0.0,0.0,0.0,0.0,0.0,0.0,0.0,0.0,0.0,0.0,0.0,0.0,0.0,0.0,0.0,0.0,0.0,0.0,0.0,0.0,0.0,0.0,0.0,5.8949,6.2887,6.0866,0.0,0.0,0.0,0.0,5.7375,5.5857,0.0,0.0,0.0,0.0,0.0,0.0,0.0,0.0,0.0,0.0,0.0,0.0,0.0,0.0,0.0,0.0,0.0,0.0,0.0,0.0,0.0,0.0,0.0,0.0,0.0,0.0,0.0,0.0,0.0,0.0,0.0,0.0,0.0,0.0,0.0,0.0,0.0,0.0,0.0,0.0,0.0,0.0,0.0,0.0,0.0,0.0,0.0,0.0,0.0,0.0,0.0,0.0,0.0,0.0,0.0,0.0,6.5781,7.1121,7.6562,8.1946,8.1908,8.2099,8.2939,7.9685,7.4231,0.0,0.0,0.0,0.0,0.0,0.0,0.0,0.0,0.0,0.0,0.0,0.0,0.0,0.0,0.0,0.0,0.0,0.0,0.0,0.0,0.0,0.0,0.0,0.0,0.0,0.0,0.0,0.0,0.0,0.0,0.0,0.0,0.0,0.0,0.0,0.0,0.0,0.0,0.0,0.0,0.0,6.3145,6.1276,6.1523,6.1533,0.0,0.0,6.114,6.3855,6.3456,0.0,0.0,0.0,0.0,0.0,0.0,0.0,0.0,0.0,0.0,0.0,0.0,0.0,0.0,0.0,0.0,0.0,0.0,0.0,0.0,0.0,0.0,0.0,0.0,0.0,0.0,0.0,0.0,0.0,0.0,0.0,0.0,0.0,0.0,0.0,0.0,0.0,0.0,0.0,0.0,0.0,0.0,0.0,0.0,0.0,0.0,0.0,0.0,0.0,0.0,0.0,0.0,0.0,0.0,0.0,6.0942,6.7093,7.4021,7.9345,8.2862,8.2847,8.3039,8.3593,8.1502,7.614,0.0,0.0,0.0,0.0,0.0,0.0,0.0,0.0,0.0,0.0,0.0,0.0,0.0,0.0,0.0,0.0,0.0,0.0,0.0,0.0,0.0,0.0,0.0,0.0,0.0,0.0,0.0,0.0,0.0,0.0,0.0,0.0,0.0,0.0,0.0,0.0,0.0,0.0,0.0,0.0,0.0,0.0,6.5779,6.4833,0.0,0.0,0.0,6.4187,6.4991,0.0,0.0,0.0,0.0,0.0,0.0,0.0,0.0,0.0,0.0,0.0,0.0,0.0,0.0,0.0,0.0,0.0,0.0,0.0,0.0,0.0,0.0,0.0,0.0,0.0,0.0,0.0,0.0,0.0,0.0,0.0,0.0,0.0,0.0,0.0,0.0,0.0,0.0,0.0,0.0,0.0,0.0,0.0,0.0,0.0,0.0,0.0,0.0,0.0,0.0,0.0,0.0,0.0,0.0,0.0,0.0,0.0,6.8484,7.6963,8.2324,8.4132,8.4016,8.3939,8.3901,8.2862,0.0,0.0,0.0,0.0,0.0,0.0,0.0,0.0,0.0,0.0,0.0,0.0,0.0,0.0,0.0,0.0,0.0,0.0,0.0,0.0,0.0,0.0,0.0,0.0,0.0,0.0,0.0,3.2564,0.0,0.0,0.0,0.0,0.0,0.0,0.0,0.0,0.0,0.0,0.0,0.0,0.0,0.0,6.2871,6.9221,6.7883,6.7316,0.0,0.0,6.6945,6.7044,6.8373,6.8127,0.0,0.0,0.0,0.0,0.0,0.0,0.0,0.0,0.0,0.0,0.0,0.0,0.0,0.0,0.0,0.0,0.0,0.0,0.0,0.0,0.0,0.0,0.0,0.0,0.0,0.0,0.0,0.0,0.0,0.0,0.0,0.0,0.0,0.0,0.0,0.0,0.0,0.0,0.0,0.0,0.0,0.0,0.0,0.0,0.0,0.0,0.0,0.0,0.0,0.0,0.0,0.0,0.0,0.0,0.0,6.964,7.7938,8.3401,8.5786,8.5209,8.4824,8.4786,8.317,7.7938,0.0,0.0,0.0,0.0,0.0,0.0,0.0,0.0,0.0,0.0,0.0,0.0,0.0,0.0,0.0,0.0,0.0,0.0,0.0,0.0,0.0,0.0,0.0,0.0,0.0,0.0,0.0,0.0,0.0,0.0,0.0,0.0,0.0,0.0,0.0,0.0,0.0,0.0,0.0,0.0,0.0,6.4007,6.864,6.975,7.1413,0.0,0.0,6.9889,7.2506,7.3024,7.1178,6.55,0.0,0.0,0.0,0.0,0.0,0.0,0.0,0.0,0.0,0.0,0.0,0.0,0.0,0.0,0.0,0.0,0.0,0.0,0.0,0.0,0.0,0.0,0.0,0.0,0.0,0.0,0.0,0.0,0.0,0.0,0.0,0.0,0.0,0.0,0.0,0.0,0.0,0.0,0.0,0.0,0.0,0.0,0.0,0.0,0.0,0.0,0.0,0.0,0.0,0.0,0.0,0.0,0.0,6.6167,6.9744,7.8015,8.3324,8.5247,8.5055,8.5132,8.5632,8.4016,7.9939,0.0,0.0,0.0,0.0,0.0,0.0,0.0,0.0,0.0,0.0,0.0,0.0,0.0,0.0,0.0,0.0,0.0,0.0,0.0,0.0,0.0,0.0,0.0,0.0,0.0,0.0,0.0,0.0,4.8089,4.9338,4.8186,0.0,0.0,0.0,0.0,0.0,0.0,0.0,0.0,0.0,0.0,6.7247,7.0936,7.1778,0.0,0.0,7.4535,7.3291,7.6139,7.4861,7.2745,7.0437,6.7703,0.0,0.0,0.0,0.0,0.0,0.0,0.0,0.0,0.0,0.0,0.0,0.0,0.0,0.0,0.0,0.0,0.0,0.0,0.0,0.0,0.0,0.0,0.0,0.0,0.0,0.0,0.0,0.0,0.0,0.0,0.0,0.0,0.0,0.0,0.0,0.0,0.0,0.0,0.0,0.0,0.0,0.0,0.0,0.0,0.0,0.0,0.0,0.0,0.0,0.0,0.0,0.0,6.7398,7.0475,7.8784,8.3901,8.5593,8.5901,8.6055,8.6055,8.4709,8.1477,0.0,0.0,0.0,0.0,0.0,0.0,0.0,0.0,0.0,0.0,0.0,0.0,0.0,0.0,0.0,0.0,0.0,0.0,0.0,0.0,0.0,0.0,0.0,0.0,0.0,0.0,0.0,0.0,5.3376,5.4052,5.0786,0.0,0.0,0.0,0.0,0.0,0.0,0.0,0.0,0.0,0.0,7.0157,7.4012,7.4395,7.5264,7.8062,7.5941,7.4804,7.7024,7.563,7.3976,7.3245,0.0,0.0,0.0,0.0,0.0,0.0,0.0,0.0,0.0,0.0,0.0,0.0,0.0,0.0,0.0,0.0,0.0,0.0,0.0,0.0,0.0,0.0,0.0,0.0,0.0,0.0,0.0,0.0,0.0,0.0,3.5573,0.0,0.0,0.0,0.0,0.0,0.0,0.0,0.0,0.0,0.0,0.0,0.0,0.0,0.0,0.0,0.0,0.0,0.0,0.0,0.0,0.0,0.0,6.7975,7.2168,8.0516,8.5632,8.7248,8.8171,8.7786,8.6209,8.5324,8.2124,7.6283,0.0,0.0,0.0,0.0,0.0,0.0,0.0,0.0,0.0,0.0,0.0,0.0,0.0,0.0,0.0,0.0,0.0,0.0,0.0,0.0,0.0,0.0,0.0,0.0,0.0,0.0,4.7394,5.2279,5.4682,0.0,0.0,0.0,0.0,0.0,0.0,0.0,0.0,0.0,0.0,6.9352,7.2395,7.76,7.7707,7.7592,7.8477,7.5822,7.3937,7.4938,7.5515,7.5091,0.0,0.0,0.0,0.0,0.0,0.0,0.0,0.0,0.0,0.0,0.0,0.0,0.0,0.0,0.0,0.0,0.0,0.0,0.0,0.0,0.0,0.0,0.0,0.0,0.0,0.0,0.0,4.4675,4.4316,0.0,0.0,0.0,0.0,0.0,0.0,0.0,0.0,0.0,0.0,0.0,6.2583,6.564,0.0,0.0,0.0,0.0,0.0,0.0,0.0,0.0,0.0,0.0,0.0,0.0,6.9975,7.3283,8.14,8.6247,8.7363,8.8248,8.8402,8.7825,8.644,8.2932,7.713,0.0,0.0,0.0,0.0,0.0,0.0,0.0,0.0,0.0,0.0,0.0,0.0,0.0,0.0,0.0,0.0,0.0,0.0,0.0,0.0,0.0,0.0,0.0,0.0,0.0,5.2626,0.0,0.0,0.0,0.0,0.0,0.0,0.0,0.0,0.0,0.0,0.0,6.6307,7.0287,7.3697,7.6847,7.9823,8.0477,8.09,0.0,0.0,0.0,0.0,0.0,0.0,0.0,0.0,0.0,0.0,0.0,0.0,0.0,0.0,7.7861,7.0591,6.8129,6.7398,6.8205,0.0,0.0,0.0,0.0,0.0,0.0,0.0,0.0,0.0,0.0,0.0,0.0,0.0,0.0,5.2493,0.0,5.1661,0.0,0.0,0.0,0.0,0.0,0.0,0.0,0.0,6.6254,6.8732,6.9143,7.2438,7.2855,0.0,7.0431,6.7705,0.0,0.0,0.0,0.0,0.0,0.0,0.0,0.0,7.2399,7.6245,8.3016,8.7094,8.8248,8.9133,8.944,8.9094,8.7506,8.4566,8.0232,7.7907,7.5272,0.0,0.0,0.0,0.0,0.0,0.0,0.0,0.0,0.0,0.0,0.0,0.0,0.0,0.0,0.0,0.0,0.0,0.0,0.0,0.0,0.0,0.0,0.0,5.7588,0.0,0.0,0.0,0.0,0.0,0.0,0.0,0.0,0.0,6.0751,6.6595,7.2033,7.4524,7.7707,8.0439,8.217,0.0,0.0,0.0,0.0,0.0,0.0,0.0,7.8823,7.94,7.8631,7.7361,7.563,7.8784,8.14,8.0785,0.0,0.0,7.6707,7.4207,7.3553,7.4668,7.5091,7.5361,7.5707,7.7361,7.8707,0.0,0.0,0.0,0.0,0.0,0.0,0.0,0.0,6.1175,6.068,0.0,5.9899,0.0,0.0,0.0,0.0,0.0,6.218,0.0,0.0,7.6447,7.8844,7.9623,7.9607,7.9768,7.9845,7.8869,7.7669,7.5861,7.0437,0.0,0.0,0.0,0.0,0.0,0.0,7.5284,8.0939,8.5286,8.8248,8.9825,9.071,9.0787,8.9902,8.8451,8.6924,8.5188,8.2146,7.9185,7.648,6.8596,0.0,0.0,0.0,0.0,0.0,0.0,0.0,0.0,0.0,0.0,0.0,0.0,0.0,0.0,0.0,0.0,0.0,0.0,0.0,0.0,5.8473,0.0,0.0,0.0,0.0,0.0,0.0,0.0,0.0,0.0,0.0,6.7975,7.1822,7.613,7.94,0.0,0.0,0.0,0.0,8.4055,8.4939,8.2939,8.1708,8.2477,8.3131,8.3632,8.367,0.0,0.0,8.4209,8.567,8.6209,8.3131,8.4632,8.617,8.5978,8.2554,8.0631,8.2093,8.1862,8.2285,8.4478,8.6247,8.8248,6.5462,0.0,0.0,0.0,0.0,6.1615,6.3664,6.7381,6.683,6.6399,6.6106,6.6113,0.0,0.0,0.0,0.0,0.0,0.0,6.8472,7.3453,7.4486,7.6996,8.0692,8.0061,8.0421,8.1541,8.133,8.1593,8.2247,8.0631,7.4861,6.5397,0.0,0.0,0.0,0.0,7.9054,8.2054,8.6709,8.9402,8.9902,9.0748,9.0821,9.0081,8.9613,8.8938,8.7901,8.6423,8.3861,8.0074,7.6505,0.0,0.0,0.0,0.0,0.0,0.0,0.0,0.0,0.0,0.0,0.0,0.0,0.0,0.0,0.0,0.0,0.0,0.0,0.0,5.678,6.2089,6.4743,0.0,0.0,0.0,0.0,0.0,0.0,0.0,0.0,0.0,7.5438,7.7553,7.9823,0.0,0.0,8.4324,8.4824,8.6247,8.7325,8.7594,8.6978,0.0,8.6824,8.6017,8.5593,8.6209,8.6632,8.6709,8.6363,8.6901,8.7286,8.6824,8.7478,8.794,8.7902,8.7055,8.6517,8.7478,8.8017,8.8248,8.8517,8.9594,9.021,7.2948,6.9401,6.6676,6.6466,6.7879,6.7695,6.9687,7.3041,7.2886,7.2809,7.2785,7.2809,7.0838,6.7531,6.6681,0.0,0.0,0.0,7.2302,7.7116,7.7121,7.8921,8.2032,8.1993,8.2394,8.3292,8.2701,8.3394,8.5363,8.4709,8.0208,7.2283,0.0,0.0,7.4091,7.8477,8.2285,8.5286,8.8671,9.0594,9.0941,9.1822,9.2049,9.1616,9.1644,9.1199,9.0093,8.9581,8.7677,8.412,8.1092,7.7882,0.0,0.0,0.0,0.0,0.0,0.0,0.0,0.0,0.0,0.0,0.0,5.1414,0.0,0.0,0.0,0.0,5.9935,6.1204,6.3589,6.7898,0.0,0.0,0.0,0.0,0.0,0.0,0.0,7.5438,7.9438,8.217,8.2516,8.3439,8.4055,8.3824,8.5324,8.6517,8.6824,0.0,8.9286,8.9633,8.971,8.971,8.9671,8.8825,8.8325,8.8825,8.8479,8.8286,8.8786,8.8902,8.9094,8.9517,8.9671,8.971,8.971,8.994,9.0056,8.994,9.0287,9.0556,9.0441,9.0864,9.0941,7.9323,7.8747,7.2491,7.1101,7.3041,7.3876,7.5562,7.7814,7.865,7.9013,7.9028,7.9052,7.7388,7.434,7.1153,0.0,7.56,7.5607,7.8139,8.268,8.267,8.3141,8.3919,8.4618,8.5004,8.4997,8.338,8.3803,8.594,8.4555,8.3054,8.1631,8.1593,8.1862,8.2401,8.2708,8.5286,9.0017,9.0979,9.1787,9.263,9.347,9.389,9.3885,9.4049,9.3338,9.187,9.1803,9.0671,8.8234,8.3554,8.0536,7.9492,0.0,0.0,0.0,0.0,0.0,0.0,0.0,0.0,0.0,0.0,0.0,0.0,0.0,0.0,0.0,7.2322,0.0,7.2668,7.4861,0.0,0.0,0.0,7.1937,7.3245,7.6592,7.9515,8.1362,0.0,0.0,8.8594,8.8748,8.8248,8.6709,8.7825,8.9056,8.971,8.9863,9.0287,9.0864,9.1056,9.1018,9.071,9.0633,9.0556,9.0594,9.1056,9.0864,9.0902,9.1018,9.1133,9.1095,9.1171,9.1133,9.1171,9.1672,9.1902,9.0325,9.0287,9.0671,9.1441,9.1672,9.1902,8.1915,8.1813,8.0846,7.9274,7.7471,7.7674,7.8099,7.8694,7.8926,7.9003,7.9017,7.9622,8.0188,8.0614,7.9801,7.9956,8.0846,8.0873,8.1813,8.3502,8.3519,8.4001,8.4743,8.4339,8.4474,8.5004,8.4588,8.499,8.6114,8.5742,8.5632,8.5901,8.5928,8.5081,8.3478,8.6478,8.9325,9.1864,9.2781,9.3389,9.361,9.3836,9.3985,9.4049,9.4111,9.3948,9.3582,9.2992,9.2102,9.0826,8.8389,8.6377,8.4792,7.7519,0.0,0.0,0.0,0.0,0.0,0.0,0.0,0.0,0.0,6.551,5.9742,0.0,6.9052,0.0,7.7515,7.9015,7.5476,7.7977,0.0,0.0,7.7669,7.79,8.3131,8.2362,8.2554,8.5555,8.7363,8.844,8.8671,8.9248,8.9748,8.994,8.9748,8.9479,8.9094,9.0133,9.071,9.0325,9.0287,8.9979,8.9517,8.9286,8.9402,8.9286,8.9825,9.021,9.021,9.0787,9.121,9.121,9.121,9.121,9.121,9.1402,9.1402,9.1133,9.2402,9.3826,9.4057,9.4057,9.3941,8.3399,8.3438,8.3902,8.2986,8.1259,8.1296,8.1064,8.0744,8.1092,8.1246,8.1285,8.1736,8.2471,8.336,8.3399,8.336,8.3296,8.3335,8.376,8.4456,8.448,8.4955,8.5738,8.5274,8.5485,8.6273,8.625,8.6624,8.7364,8.734,8.761,8.8072,8.8104,8.7757,8.7186,8.9041,9.0504,9.1433,9.308,9.4337,9.5065,9.5136,9.4852,9.4149,9.4876,9.4626,9.3147,9.3031,9.1909,8.9549,8.8196,8.688,8.5526,8.1736,7.9685,0.0,0.0,0.0,0.0,0.0,0.0,0.0,0.0,0.0,0.0,0.0,7.5379,7.5322,8.1285,8.3285,7.8669,8.167,8.4093,8.4516,8.2554,8.3016,8.7517,8.6286,8.6017,8.8248,8.9286,8.9671,8.9325,8.9633,9.0094,9.0556,9.021,8.9902,8.9825,9.0056,9.0171,9.0402,9.0171,8.994,8.9787,8.9825,8.9825,8.9863,9.0171,9.0479,9.0479,9.0864,9.121,9.121,9.121,9.121,9.121,9.121,9.1287,9.1864,9.2864,9.3787,9.3903,9.4172,9.4287,8.4429,8.4429,8.4391,8.4391,8.4391,8.443,8.385,8.3012,8.3773,8.4121,8.4095,8.4198,8.425,8.4275,8.4352,8.4429,8.4391,8.4429,8.4881,8.5616,8.5643,8.6107,8.6919,8.6958,8.7306,8.7975,8.7958,8.8287,8.8884,8.8922,8.893,8.9046,8.9192,8.9964,9.1322,9.0968,9.0744,9.0802,9.2795,9.4634,9.6178,9.6281,9.5687,9.4265,9.5864,9.539,9.2528,9.2992,9.1484,8.7693,8.661,8.5643,8.4675,8.5681,8.483,0.0,8.189,0.0,0.0,0.0,0.0,0.0,0.0,0.0,0.0,8.1658,8.1454,7.7476,8.4093,8.6824,8.2593,8.5555,8.7786,8.7863,8.7132,8.7248,8.8786,8.8825,8.9017,8.9825,9.0594,9.0748,8.9979,8.9979,9.0094,9.0171,9.0017,9.021,9.0864,9.0017,8.971,9.0902,9.0325,8.9863,9.0441,9.071,9.071,9.0787,9.0825,9.1018,9.0941,9.1095,9.121,9.121,9.121,9.121,9.121,9.121,9.1441,9.2056,9.2441,9.2672,9.2826,9.3326,9.398,8.6119,8.6119,8.6119,8.6119,8.6145,8.6145,8.5256,8.385,8.4031,8.4108,8.4185,8.4779,8.5049,8.5152,8.5809,8.6119,8.6119,8.6119,8.6583,8.7395,8.7422,8.7847,8.8687,8.8698,8.8776,8.8931,8.8808,8.8857,8.8943,8.8922,8.9239,8.9972,9.072,9.1261,9.1547,0.0,0.0,0.0,9.3501,9.3531,9.4588,9.4665,9.451,9.424,9.5893,0.0,9.5855,9.5313,9.4037,9.1909,9.0981,0.0,0.0,0.0,0.0,0.0,0.0,0.0,0.0,0.0,0.0,0.0,8.363,8.3807,8.213,8.4743,8.5613,8.3516,8.594,8.7825,8.8209,8.8902,8.971,9.0364,8.971,8.9594,9.0556,8.9556,8.8979,8.9825,9.0056,9.0094,8.9979,9.0517,9.0941,9.0825,9.0325,9.0287,9.1095,9.0864,9.0556,9.0248,8.9671,8.9094,8.9133,8.9363,8.9671,8.9248,8.9787,9.021,9.0364,9.0864,9.1248,9.1287,9.121,9.1248,9.1248,9.121,9.1364,9.1441,9.2056,9.271,9.3326,9.3595,9.3941,8.7913,0.0,8.7913,8.7874,0.0,8.7913,8.7383,8.6571,8.5693,8.5577,8.6003,8.6377,8.6829,8.7267,8.7719,8.7913,8.7913,8.7886,8.8118,8.8544,8.8544,8.8776,8.9228,8.9588,9.0052,9.0411,9.0344,9.0769,9.1504,9.1127,9.1368,9.2179,9.2664,9.2857,9.2836,9.3737,9.4626,9.5447,9.4597,9.4356,9.481,9.5274,9.4888,9.3727,0.0,0.0,0.0,0.0,0.0,0.0,0.0,0.0,0.0,0.0,0.0,8.5913,8.5101,8.4598,8.4637,8.5384,8.6621,8.835,8.9599,8.9349,8.7108,8.8475,8.9189,8.8709,8.944,9.0441,9.1595,9.1056,9.0902,9.1672,9.071,9.0248,9.0941,9.0479,9.0094,9.0441,9.0517,9.0402,8.9979,9.0248,9.0556,9.0556,9.021,9.0402,9.1402,9.071,8.9979,9.0479,9.1056,9.121,9.1171,9.1171,9.1133,9.1248,9.1518,9.1748,9.1787,9.2133,9.2441,9.2441,9.2441,9.2441,9.2441,9.2441,9.2402,9.2479,9.2787,9.3172,9.3672,9.4364,9.5095,8.9615,8.9654,8.9615,8.9615,8.9654,8.9615,8.9615,8.9499,0.0,0.0,0.0,8.8091,8.8505,8.919,8.919,8.919,8.9228,8.9317,8.9511,8.9665,8.982,8.9936,9.0091,9.0749,9.1417,9.2151,9.2151,9.2837,9.4153,9.3534,9.3534,9.4153,9.4346,9.4501,9.4655,9.4655,9.5004,9.5661,9.5274,9.512,9.5274,9.5971,9.5352,9.3263,9.5545,9.5816,9.3766,9.5004,9.4346,9.1484,9.1329,9.0633,8.9163,8.9704,9.0362,9.1019,9.16,9.1909,9.1948,9.2451,9.276,9.276,9.3379,9.3205,9.1901,9.1708,9.1875,9.2476,9.2399,9.2553,9.3207,9.2091,9.1479,9.2172,9.0979,9.0441,9.1095,9.1056,9.0864,9.0979,9.0902,9.071,9.0056,9.0248,9.0364,9.0402,9.071,9.1018,9.2095,9.1133,9.0441,9.1556,9.2595,9.3518,9.3633,9.3518,9.3672,9.3403,9.3518,9.3672,9.3672,9.3672,9.3672,9.3557,9.3672,9.3633,9.3672,9.3557,9.3672,9.3672,9.3672,9.3672,9.3826,9.5057,9.6095,9.1367,9.1329,9.1329,9.1329,9.1329,9.1329,9.1329,9.1213,8.9577,8.8892,8.9019,8.8991,8.9068,8.9212,8.9212,8.9212,8.9251,8.9919,9.0615,0.0,9.2113,9.2799,9.3485,9.364,9.3727,9.3823,9.3843,9.3959,9.4153,9.4114,9.4075,9.4307,9.4965,9.57,9.6358,9.6435,9.6474,9.6551,9.4462,9.3688,9.4385,9.4501,9.4385,9.4153,9.5816,9.6667,9.628,9.6474,9.6048,9.4849,9.4772,9.4346,9.3379,9.3379,9.3534,9.3611,9.3147,9.2837,9.2799,9.2257,9.187,9.1909,9.1986,9.247,9.3483,9.2943,9.2563,9.258,9.1929,9.1506,9.1583,9.1506,9.1395,9.1441,9.121,9.1095,9.1248,9.0671,9.0325,9.0364,9.0094,9.021,9.0287,9.1248,9.2056,9.221,9.2595,9.3287,9.3441,9.3249,9.3095,9.3287,9.3518,9.3672,9.398,9.371,9.3903,9.3672,9.3826,9.3903,9.3903,9.3903,9.3941,9.3787,9.398,9.3941,9.3903,9.3672,9.398,9.4095,9.4134,9.4018,9.4095,9.5365,9.6134,9.3079,9.3041,9.3041,9.3079,9.3041,9.3079,9.3041,9.3002,9.2257,9.1649,9.1272,9.1262,9.1484,9.1909,9.1909,9.1909,9.1909,9.2296,9.2654,9.305,9.3466,9.3843,9.422,9.4655,9.4926,9.4897,9.4926,9.5158,9.5506,9.5158,9.5158,9.5623,9.6474,9.7325,9.8098,9.775,9.7711,9.8098,9.6125,9.5004,9.4926,9.5352,9.539,9.4926,9.6125,9.6822,9.6822,9.6822,9.686,9.6899,9.6474,9.6009,9.5623,9.5158,9.4694,9.423,9.3843,9.365,9.365,9.3727,9.3959,9.4423,9.4462,9.4713,9.5393,9.3392,9.228,9.2608,9.2261,9.2421,9.3196,9.2541,9.216,9.2518,9.2172,9.1902,9.1902,9.2018,9.1979,9.1979,9.1979,9.1979,9.1941,9.2672,9.3133,9.3249,9.421,9.5095,9.5134,9.5903,9.5903,9.4788,9.5134,9.5711,9.5749,9.5749,9.5749,9.5749,9.5365,9.5172,9.5095,9.5134,9.5288,9.5672,9.5749,9.598,9.6249,9.6442,9.6442,9.648,9.648,9.6442,9.6596,9.6826,9.6903,9.4781,9.4781,9.4781,9.4781,9.482,9.4781,9.482,9.482,9.5013,9.4713,9.4133,9.3572,9.364,9.4143,9.4181,9.4181,9.422,9.4413,9.4501,9.451,9.4704,9.4772,9.4888,9.5661,9.6087,9.6096,9.628,9.6706,9.7209,9.6667,9.6706,9.7363,9.806,9.8601,9.8988,9.8601,9.8601,9.8949,9.7943,9.7015,9.6396,9.7015,9.7054,9.6474,9.7015,9.7286,9.7092,9.7092,9.7325,9.775,9.7363,9.7092,9.7054,9.6628,9.5971,9.5197,9.4888,9.4617,9.4269,9.481,9.5468,9.6125,9.6203,9.6173,9.5919,9.3755,9.2488,9.3129,9.3168,9.3522,9.4309,9.3692,9.3158,9.3592,9.3172,9.2787,9.2826,9.3326,9.3672,9.3672,9.3672,9.3633,9.371,9.3864,9.4172,9.4749,9.5903,9.6788,9.7019,9.8057,9.7788,9.6826,9.698,9.7519,9.7596,9.7403,9.7288,9.7288,9.6826,9.6519,9.6519,9.6673,9.7019,9.7557,9.7711,9.7827,9.8557,9.8442,9.825,9.8057,9.7788,9.798,9.8057,9.775,9.7673,9.6551,9.6551,9.6512,9.659,9.6512,9.6512,9.6551,9.6628,9.7363,9.7711,9.7294,9.5168,9.4201,9.4191,9.4297,9.4375,9.4433,9.5052,9.5438,9.5516,9.6203,9.6551,9.6628,9.7441,9.7866,9.7913,9.8485,9.8794,9.8911,9.8872,9.8949,9.9065,9.9143,9.8911,9.8408,9.8911,9.8911,9.8253,9.8794,9.9027,9.8949,9.9027,9.9027,9.8949,9.8988,9.8717,9.7943,9.7982,9.7634,9.7054,9.7595,9.7982,9.806,9.8562,9.8562,9.775,9.6976,9.5893,9.4462,9.4269,9.4539,9.4423,9.4655,9.4655,9.4617,9.423,9.4317,9.4806,9.442,9.4041,9.41,9.3985,9.3842,9.3823,9.3787,9.3595,9.3672,9.3633,9.3672,9.3672,9.4057,9.371,9.4095,9.4634,9.5557,9.6749,9.7711,9.8442,9.8481,9.875,9.9019,9.8557,9.8673,9.8365,9.7904,9.7519,9.7519,9.6903,9.7057,9.7326,9.7519,9.7942,9.8634,9.8557,9.8673,9.8788,9.8711,9.825,9.7904,9.8326,9.7902,9.7019,9.7442,9.775,9.7864,9.6822,9.6822,9.6822,9.6822,9.686,9.7325,9.7557,9.7664,9.8438,9.8794,9.8725,9.7651,9.7178,9.7199,9.7199,9.7199,9.7209,9.7557,9.775,9.7789,9.8137,9.8292,9.8322,9.864,9.8803,9.8803,9.9151,9.9297,9.9297,9.9297,9.9568,10.0032,10.0071,10.0148,10.0303,10.0148,10.0148,10.0342,10.0148,10.0303,10.0651,9.9839,9.9065,9.864,9.8601,9.8176,9.7441,9.7325,9.7634,9.8137,9.7711,9.8021,9.9491,9.8949,9.8678,9.8756,9.8485,9.7982,9.7286,9.7209,9.7015,9.6551,9.6512,9.6319,9.5777,9.5739,9.5902,9.6018,9.4944,9.4296,9.4775,9.4821,9.4756,9.4737,9.5399,9.5861,9.5288,9.6095,9.6557,9.6095,9.6403,9.6442,9.6172,9.6711,9.748,9.8288,9.9019,9.9519,9.9596,10.0019,10.0365,10.0441,10.0439,10.0056,9.9211,9.9019,9.8827,9.8596,9.8327,9.825,9.8327,9.8481,9.8904,9.9442,9.9557,9.9788,10.0327,10.0096,9.975,9.9556,9.9707,9.9435,9.9242,9.9165,9.9011,9.7479,9.7479,9.7479,9.7479,9.7518,9.8167,9.8438,9.8524,9.9328,9.9645,9.9692,9.9924,10.0032,9.9947,9.9521,9.9328,9.9328,9.9328,9.9297,9.9305,9.9305,9.9297,9.9328,9.9568,9.9653,9.9692,9.9955,10.0032,9.9994,9.9723,10.011,10.0806,10.0729,10.0922,10.1425,10.1077,10.1115,10.1425,10.1115,10.127,10.1657,10.0651,9.9723,9.922,9.9143,9.8717,9.7905,9.7866,9.8253,9.922,9.8137,9.8408,10.0342,9.922,9.8601,9.8911,9.8988,9.8988,9.8988,9.9181,9.9065,9.8524,9.8446,9.8176,9.7634,9.7479,9.7479,9.7441,9.6319,9.5864,9.5656,9.5965,9.6018,9.5928,9.7203,9.7706,9.7173,9.8173,9.8442,9.8019,9.8173,9.8596,9.8096,9.8518,9.9095,9.9249,9.9941,10.048,10.0595,10.1056,10.1439,10.1516,10.155,10.1128,10.0364,10.0018,10.0095,9.9826,9.9248,9.921,9.9287,9.9325,9.9595,10.0516,10.0518,10.0556,10.0826,10.1134,10.0827,10.0861,10.0855,10.0775,10.0123,10.0235,10.0158,9.9173,9.9134,9.9173,9.9057,9.9173,9.9211,9.922,9.9305,10.0156,10.0543,10.0659,10.1348,10.1734,10.158,10.0117,9.9383,9.9383,9.946,9.946,9.946,9.946,9.9344,9.9375,10.011,10.0535,10.0581,10.1231,10.158,10.1618,10.0922,10.0961,10.1734,10.1038,10.0651,10.0883,10.1464,10.1425,10.0961,10.1425,10.1812,10.1889,10.1812,10.1657,10.1541,10.1618,10.1038,10.038,10.0342,10.0071,9.9336,9.9181,9.9607,10.0419,9.98,9.9027,9.8446,9.8292,9.8292,9.8446,9.9065,9.9375,9.9259,9.9259,9.922,9.8988,9.8949,9.8949,9.9143,9.8794,9.8184,9.704,9.731,9.76,9.7546,9.8282,9.8708,9.8634,9.8711,9.8788,9.8711,9.8826,9.898,9.8865,9.9556,10.0017,10.0285,10.0936,10.1434,10.1395,10.1511,10.1585,10.1585,10.1546,10.1315,10.0508,10.0437,10.0052,9.9859,10.0131,10.0131,10.0473,10.0813,10.1164,10.1395,10.1318,10.128,10.1357,10.1045,10.0393,10.0158,10.0076,9.996,10.065,10.0462,10.0462,9.9297,9.9336,9.9336,9.9336,9.9375,9.9878,10.0148,10.0195,10.1077,10.1425,10.1502,10.1773,10.1889,10.185,10.127,10.0929,10.0929,10.0929,10.0929,10.0968,10.0929,10.0961,10.0999,10.1309,10.1425,10.1502,10.1734,10.1889,10.1889,10.1541,10.158,10.1812,10.158,10.1425,10.1502,10.1734,10.1734,10.1502,10.1773,10.1889,10.1889,10.1889,10.1889,10.185,10.1348,10.0651,9.98,9.9762,9.9878,10.011,9.9607,9.9955,10.1193,10.1154,10.0845,10.0574,10.0535,10.0535,10.0574,10.0806,10.0729,10.0187,10.0148,9.9878,9.9452,9.9297,9.9297,9.9336,9.9336,9.888,9.8648,9.8617,9.874,9.8797,9.9381,9.9656,9.9278,9.9435,9.9589,9.9204,9.9396,9.9936,10.0437,10.0897,10.1051,10.1125,10.1395,10.1585,10.1624,10.162,10.1688,10.1688,10.1722,10.1677,10.1445,10.1195,10.101,10.0897,10.0938,10.1051,10.1315,10.1388,10.1624,10.1581,10.162,10.162,10.1543,10.15,10.0728,10.0761,10.053,10.0563,10.1252,10.1103,10.1297,10.0148,10.0117,10.0156,10.0117,10.0195,10.0736,10.1007,10.1115,10.1657,10.1889,10.1889,10.1889,10.1889,10.1889,10.1889,10.1889,10.1889,10.1889,10.1889,10.1889,10.1889,10.1889,10.1889,10.1889,10.1889,10.1889,10.1889,10.1889,10.185,10.1618,10.1618,10.1889,10.1618,10.1773,10.2199,10.2315,10.2315,10.2315,10.2315,10.2237,10.1966,10.1889,10.1889,10.1812,10.1309,10.0767,10.0148,10.0148,10.038,10.0806,10.0187,10.0148,10.0961,10.1309,10.1348,10.1115,10.1309,10.1464,10.1541,10.1734,10.1618,10.1077,10.0999,10.0729,10.0187,10.0148,10.0148,10.0148,10.0148,10.0148,10.0148,10.0148,10.0001,9.9822,10.0369,10.0645,10.0042,10.0428,10.0428,10.0196,10.0428,10.0968,10.1431,10.1581,10.1736,10.1967,10.1886,10.1765,10.2036,10.1876,10.1909,10.2102,10.2322,10.2554,10.2637,10.2687,10.2345,10.2156,10.2241,10.2276,10.2079,10.2079,10.1925,10.177,10.1693,10.1688,10.1688,10.1722,10.1755,10.1755,10.1594,10.1432,10.1703,10.1812,10.1819,10.1812,10.1773,10.1889,10.1734,10.1696,10.1734,10.185,10.1812,10.185,10.1889,10.1889,10.1889,10.1889,10.1889,10.1889,10.1889,10.1889,10.1889,10.1889,10.1889,10.1889,10.1889,10.1889,10.1889,10.1889,10.1889,10.1889,10.1889,10.185,10.127,10.1231,10.1657,10.1309,10.1812,10.3204,10.3204,10.3204,10.3204,10.3204,10.2779,10.2044,10.2005,10.1966,10.1928,10.1812,10.1773,10.1773,10.1734,10.1696,10.1696,10.1038,10.0226,9.9955,10.0419,10.0342,9.9994,10.0303,10.0651,10.0806,10.1502,10.1889,10.1734,10.1812,10.1734,10.158,10.1618,10.1618,10.158,10.1657,10.1734,10.1696,10.1657,10.1355,10.075,10.1213,10.1456,10.1388,10.1469,10.1546,10.1388,10.1504,10.1624,10.1697,10.1959,10.234,10.2726,10.256,10.2399,10.2979,10.267,10.2469,10.2933,10.305,10.3018,10.3714,10.4261,10.383,10.3482,10.3648,10.3692,10.3146,10.2985,10.256,10.2328,10.1864,10.1864,10.2141,10.2167,10.2051,10.2051,10.2005,10.1966,10.1889,10.1889,10.1889,10.1889,10.1889,10.1889,10.1889,10.1889,10.1889,10.1889,10.1889,10.1889,10.1889,10.1889,10.1889,10.1889,10.1889,10.1889,10.1889,10.1889,10.1889,10.1889,10.1889,10.1889,10.1889,10.1889,10.1889,10.1889,10.1889,10.1889,10.1889,10.185,10.1618,10.1928,10.2547,10.2508,10.2972,10.3978,10.4017,10.4017,10.4017,10.4017,10.363,10.2895,10.2779,10.2547,10.1966,10.1889,10.1889,10.1889,10.1889,10.1889,10.1889,10.1618,10.1348,10.1193,10.1348,10.1348,10.1193,10.1309,10.1502,10.1502,10.1734,10.1889,10.1889,10.1889,10.1889,10.1889,10.1889,10.1889,10.1889,10.1889,10.1889,10.1889,10.1889,10.1773,10.151,10.1703,10.1632,10.1291,10.1059,10.0898,10.1091,10.198,10.2637,10.2831,10.3063,10.3527,10.383,10.3675,10.3707,10.3862,10.3707,10.3668,10.3978,10.3746,10.3746,10.4448,10.4951,10.4797,10.4636,10.4797,10.4686,10.4178,10.3784,10.332,10.2663,10.2237,10.2121,10.2431,10.2508,10.2392,10.2392,10.2469,10.2276,10.2005,10.2044,10.2315,10.1889,10.1889,10.1889,10.1889,10.1889,10.1889,10.1889,10.1889,10.1889,10.1889,10.1889,10.1889,10.1889,10.1889,10.1889,10.1889,10.1889,10.1889,10.1889,10.1889,10.1889,10.1889,10.1889,10.1889,10.1889,10.1889,10.1889,10.2082,10.2392,10.2431,10.2817,10.3514,10.3668,10.4055,10.4829,10.4868,10.4868,10.4868,10.4906,10.4481,10.3823,10.363,10.3398,10.2856,10.2547,10.2392,10.2353,10.2082,10.1889,10.1889,10.1889,10.216,10.2701,10.2585,10.2353,10.2392,10.2353,10.2237,10.1966,10.1889,10.1889,10.1889,10.1889,10.1889,10.1889,10.1889,10.1889,10.1889,10.1889,10.1889,10.1928,10.2237,10.2353,10.2353,10.2392,10.2276,10.1966,10.2005,10.2082,10.2431,10.305,10.3514,10.3784,10.3978,10.4558,10.4752,10.4597,10.4636,10.4674,10.4558,10.4636,10.4674,10.4674,10.4868,10.5293,10.5564,10.568,10.5719,10.5835,10.5454,10.5061,10.4713,10.4326,10.3127,10.2469,10.2392,10.2624,10.2701,10.2663,10.2779,10.305,10.3204,10.3166,10.3088,10.3243,10.1889,10.1889,10.1928,10.1928,10.1928,10.1966,10.1966,10.1966,10.1966,10.1966,10.1966,10.1966,10.1966,10.1966,10.2005,10.1966,10.1966,10.1966,10.2044,10.2082,10.2082,10.2082,10.1928,10.2044,10.2121,10.2082,10.2082,10.2469,10.3243,10.3243,10.3668,10.4403,10.4519,10.4906,10.5641,10.5757,10.5796,10.5757,10.5757,10.5332,10.4558,10.4481,10.4365,10.4249,10.3591,10.3243,10.3166,10.2663,10.216,10.2005,10.2082,10.274,10.3862,10.3668,10.3243,10.3243,10.3243,10.274,10.2199,10.1928,10.1889,10.1889,10.1889,10.1889,10.1889,10.1889,10.1889,10.1889,10.1889,10.1966,10.216,10.2624,10.3127,10.3359,10.332,10.3514,10.421,10.421,10.3939,10.4094,10.4403,10.4481,10.4519,10.4636,10.51,10.5409,10.5216,10.5293,10.5448,10.5448,10.5177,10.5216,10.5448,10.5641,10.5989,10.5757,10.5912,10.6299,10.6415,10.6183,10.568,10.5332,10.4636,10.3514,10.274,10.2701,10.2701,10.274,10.3204,10.3668,10.3978,10.4326,10.4365,10.4171,10.4287,10.1889,10.1928,10.2005,10.2044,10.2082,10.2199,10.2268,10.2268,10.2268,10.2213,10.2268,10.2276,10.226,10.2237,10.2268,10.2276,10.2252,10.2268,10.2585,10.2972,10.3018,10.2547,10.2199,10.2547,10.2856,10.2856,10.2856,10.3282,10.4055,10.4094,10.4519,10.5332,10.537,10.5757,10.6531,10.6608,10.6647,10.6647,10.6647,10.6221,10.5487,10.537,10.5022,10.4403,10.421,10.4094,10.4055,10.3862,10.3436,10.2895,10.2856,10.3282,10.4365,10.4249,10.4094,10.4017,10.3552,10.3166,10.2817,10.2276,10.1966,10.1889,10.1928,10.1889,10.1889,10.1889,10.1889,10.1889,10.1928,10.2199,10.2701,10.3127,10.3746,10.4752,10.4519,10.4287,10.4442,10.4403,10.4403,10.4442,10.5022,10.5293,10.5487,10.5835,10.6221,10.6454,10.6376,10.6183,10.6299,10.6376,10.6105,10.6105,10.6221,10.6376,10.6415,10.6105,10.6183,10.6724,10.684,10.6763,10.6144,10.5487,10.4519,10.3359,10.2933,10.2817,10.2701,10.2701,10.3475,10.4597,10.4365,10.4442,10.4906,10.4984,10.5409,10.1928,10.2005,10.2044,10.2165,10.2226,10.2361,10.24,10.24,10.24,10.24,10.24,10.24,10.2389,10.2406,10.2395,10.24,10.2401,10.2395,10.2592,10.294,10.332,10.3282,10.3166,10.3514,10.3707,10.3707,10.3707,10.4171,10.4829,10.4945,10.5448,10.6105,10.626,10.6531,10.6879,10.6995,10.6995,10.6995,10.6995,10.6724,10.6299,10.626,10.6028,10.5448,10.5177,10.4829,10.4481,10.4403,10.4287,10.4171,10.3978,10.4249,10.5332,10.5138,10.4945,10.4906,10.4481,10.4171,10.363,10.2933,10.2469,10.2353,10.216,10.1928,10.1889,10.1928,10.1966,10.2431,10.2431,10.2856,10.3552,10.4017,10.4868,10.5873,10.5796,10.5487,10.5487,10.5564,10.5525,10.5603,10.5912,10.626,10.6221,10.6724,10.6918,10.6956,10.6879,10.684,10.6918,10.6995,10.6956,10.6763,10.6686,10.6724,10.6763,10.6531,10.6415,10.6879,10.6995,10.6995,10.657,10.5796,10.4906,10.3939,10.332,10.2972,10.3088,10.3514,10.4636,10.5216,10.479,10.5138,10.5873,10.5757,10.6221,10.2005,10.2152,10.2155,10.2279,10.2422,10.2461,10.25,10.2461,10.25,10.2461,10.2461,10.2461,10.25,10.2488,10.25,10.2461,10.2461,10.2516,10.261,10.2965,10.3482,10.3978,10.4249,10.4249,10.4442,10.4519,10.4558,10.5061,10.5641,10.5835,10.6221,10.6724,10.6918,10.6956,10.6995,10.6995,10.6995,10.6995,10.6995,10.6956,10.684,10.684,10.6763,10.6608,10.6144,10.5564,10.5061,10.4868,10.51,10.5835,10.5022,10.537,10.657,10.6183,10.5912,10.5757,10.5603,10.5177,10.4597,10.3862,10.3243,10.3088,10.2469,10.2044,10.2121,10.2199,10.2469,10.3243,10.332,10.3707,10.4481,10.5293,10.5989,10.6686,10.684,10.6956,10.6995,10.6995,10.6995,10.6995,10.6956,10.6995,10.6995,10.6995,10.6995,10.6995,10.6995,10.6995,10.6995,10.6995,10.6995,10.6956,10.6918,10.6956,10.6956,10.6918,10.6879,10.6995,10.6995,10.6956,10.6802,10.6144,10.5448,10.4713,10.4055,10.3862,10.3978,10.4752,10.5603,10.5873,10.5487,10.6608,10.7691,10.6802,10.6763,10.2276,10.2329,10.2465,10.2519,10.2578,10.2734,10.2812,10.2773,10.2773,10.2773,10.2812,10.2773,10.2773,10.2773,10.2773,10.2812,10.2773,10.2812,10.3045,10.3636,10.4294,10.4642,10.4758,10.4681,10.4913,10.5222,10.5409,10.5873,10.6492,10.6647,10.6802,10.6918,10.7034,10.6995,10.6995,10.6995,10.6995,10.6995,10.6995,10.6995,10.6995,10.6995,10.6995,10.6956,10.6763,10.6647,10.6492,10.6454,10.657,10.657,10.6099,10.5976,10.6757,10.6802,10.6647,10.6531,10.6067,10.5719,10.5487,10.4861,10.4087,10.3538,10.3274,10.3042,10.2933,10.2933,10.332,10.3939,10.4171,10.4519,10.5332,10.6183,10.6686,10.6918,10.6995,10.6995,10.6995,10.6995,10.6995,10.6995,10.6995,10.6995,10.6995,10.6995,10.6995,10.6995,10.6995,10.6995,10.6995,10.6995,10.6995,10.6995,10.6995,10.6995,10.6995,10.6995,10.6995,10.6995,10.6995,10.6995,10.684,10.6531,10.5835,10.5293,10.479,10.4713,10.479,10.479,10.5409,10.5757,10.626,10.7072,10.7575,10.7189,10.7614,10.2462,10.2484,10.2558,10.2656,10.2734,10.2851,10.289,10.289,10.289,10.289,10.289,10.289,10.289,10.289,10.289,10.289,10.289,10.289,10.305,10.3412,10.382,10.4332,10.5029,10.5067,10.5261,10.5873,10.6299,10.6724,10.7072,10.715,10.7072,10.7072,10.7111,10.7034,10.6995,10.6995,10.6995,10.6995,10.6995,10.6995,10.6995,10.6995,10.6995,10.6995,10.6995,10.6995,10.6956,10.7034,10.7111,10.706,10.6804,10.6716,10.7098,10.715,10.715,10.7111,10.6879,10.657,10.6486,10.5912,10.5191,10.4648,10.4286,10.3971,10.3823,10.3746,10.4171,10.4752,10.51,10.537,10.6183,10.6608,10.6956,10.6995,10.6995,10.6995,10.6995,10.6995,10.6995,10.6995,10.6995,10.6995,10.6995,10.6995,10.6995,10.6995,10.6995,10.6995,10.6995,10.6995,10.6995,10.6995,10.6995,10.6995,10.6995,10.6995,10.6995,10.6995,10.6995,10.6995,10.6918,10.6608,10.6221,10.5796,10.5409,10.5448,10.5448,10.5409,10.5525,10.6183,10.6802,10.7227,10.7421,10.7266,10.8233,10.2546,10.2656,10.2656,10.2734,10.289,10.289,10.289,10.289,10.289,10.289,10.289,10.289,10.289,10.289,10.289,10.289,10.289,10.289,10.3008,10.3047,10.3086,10.3671,10.4478,10.5022,10.5449,10.6106,10.6804,10.729,10.7369,10.7355,10.727,10.726,10.726,10.7221,10.7111,10.7034,10.7034,10.7034,10.6995,10.6995,10.7034,10.7034,10.7072,10.7111,10.7111,10.7111,10.715,10.7189,10.7266,10.7331,10.7455,10.7503,10.7522,10.7385,10.7308,10.7493,10.7358,10.7346,10.7277,10.6822,10.631,10.6136,10.5447,10.4938,10.4752,10.4752,10.5138,10.5603,10.5989,10.6183,10.6879,10.6956,10.6995,10.6995,10.6995,10.6995,10.6995,10.6995,10.6995,10.6995,10.6995,10.6995,10.6995,10.6995,10.6995,10.6995,10.6995,10.6995,10.6995,10.6995,10.6995,10.6995,10.6995,10.6995,10.6995,10.7111,10.7072,10.715,10.7111,10.715,10.7111,10.6802,10.6531,10.6415,10.6183,10.6144,10.6183,10.6221,10.6492,10.6956,10.7072,10.7189,10.7305,10.7382,10.8426,10.2803,10.2851,10.2851,10.289,10.289,10.289,10.289,10.289,10.289,10.289,10.289,10.289,10.289,10.289,10.289,10.289,10.289,10.289,10.289,10.289,10.2929,10.3281,10.375,10.4765,10.5429,10.5912,10.6753,10.7371,10.7507,10.7479,10.7455,10.7438,10.7469,10.7424,10.7324,10.7266,10.7176,10.715,10.7111,10.7072,10.7072,10.7169,10.7207,10.7355,10.7355,10.7362,10.7408,10.7415,10.7498,10.764,10.7572,10.7682,10.7752,10.762,10.7516,10.7539,10.7539,10.7632,10.7663,10.7629,10.7092,10.6611,10.6253,10.6115,10.5937,10.5789,10.6085,10.6492,10.6763,10.684,10.6956,10.6995,10.6995,10.6995,10.6995,10.6995,10.6995,10.6995,10.6995,10.6995,10.6995,10.6995,10.6995,10.6995,10.6995,10.6995,10.6995,10.6995,10.6995,10.6995,10.6995,10.6995,10.6995,10.6995,10.6995,10.715,10.7227,10.7421,10.7459,10.7459,10.7343,10.7072,10.6879,10.7111,10.6995,10.6802,10.6879,10.6956,10.6956,10.7072,10.7072,10.7072,10.7111,10.7189,10.7266,10.289,10.289,10.289,10.289,10.289,10.289,10.289,10.289,10.289,10.289,10.289,10.289,10.289,10.289,10.289,10.289,10.289,10.289,10.289,10.289,10.2929,10.3203,10.3476,10.4531,10.5351,10.6054,10.6838,10.7383,10.7705,10.7658,10.7633,10.7671,10.7664,10.7597,10.7487,10.7425,10.7336,10.7346,10.7337,10.7299,10.7292,10.7347,10.7455,10.7479,10.7518,10.7479,10.7546,10.7626,10.7685,10.7781,10.7805,10.7866,10.7905,10.7869,10.7773,10.7738,10.7734,10.7773,10.789,10.7893,10.7642,10.7284,10.7137,10.7099,10.6935,10.6857,10.6886,10.7053,10.7072,10.6995,10.6995,10.6995,10.6995,10.6995,10.6995,10.6995,10.6995,10.6995,10.7034,10.7034,10.7072,10.7072,10.6995,10.6995,10.6995,10.6995,10.6995,10.6995,10.6995,10.7111,10.7189,10.7382,10.7498,10.7653,10.773,10.7846,10.7846,10.7923,10.7962,10.8001,10.8078,10.8001,10.8194,10.8426,10.8156,10.7769,10.7305,10.7266,10.7227,10.7111,10.7072,10.7034,10.6995,10.7034,10.715,10.289,10.289,10.289,10.289,10.289,10.289,10.289,10.289,10.289,10.289,10.289,10.289,10.289,10.289,10.289,10.289,10.289,10.289,10.289,10.289,10.289,10.3281,10.375,10.4336,10.4922,10.6093,10.6679,10.7148,10.7812,10.7869,10.7834,10.7851,10.7812,10.7761,10.7649,10.76,10.7578,10.7611,10.7755,10.7764,10.7803,10.7843,10.7861,10.7795,10.7678,10.7691,10.8015,10.7851,10.7837,10.7866,10.79,10.8002,10.7987,10.8017,10.7983,10.8008,10.8008,10.8008,10.8008,10.8008,10.789,10.7734,10.7812,10.7716,10.7613,10.7455,10.7402,10.7251,10.7111,10.7034,10.6995,10.6995,10.6995,10.6995,10.6995,10.6995,10.6995,10.7034,10.7189,10.7227,10.7189,10.7189,10.7189,10.6995,10.6995,10.6995,10.6995,10.6995,10.7034,10.7421,10.7614,10.7885,10.8156,10.8465,10.8658,10.8852,10.8852,10.8852,10.8891,10.8891,10.9084,10.9239,10.9316,10.9239,10.9355,10.8929,10.8272,10.7575,10.7498,10.7343,10.7111,10.6995,10.6995,10.7034,10.7111,10.289,10.289,10.289,10.289,10.289,10.289,10.289,10.289,10.289,10.289,10.289,10.2929,10.2929,10.3008,10.2969,10.2969,10.3008,10.3047,10.3047,10.3086,10.2969,10.2969,10.3203,10.3906,10.4726,10.5781,10.6445,10.7187,10.7812,10.7969,10.7969,10.7969,10.7969,10.7969,10.789,10.7812,10.7755,10.7861,10.8394,10.8738,10.887,10.8899,10.8939,10.8848,10.8515,10.8398,10.8867,10.8593,10.8242,10.8164,10.8086,10.8047,10.8007,10.8005,10.7998,10.8008,10.8008,10.8008,10.8008,10.8008,10.8008,10.7969,10.7969,10.7969,10.7851,10.7773,10.761,10.7238,10.7189,10.715,10.7111,10.7072,10.7034,10.715,10.7305,10.7227,10.7189,10.7691,10.7807,10.7923,10.8117,10.7691,10.7421,10.7189,10.6995,10.6995,10.7034,10.7111,10.7305,10.7846,10.8194,10.8504,10.8968,10.9316,10.9587,10.9819,10.9974,10.9896,10.9896,10.9896,11.0051,11.0167,10.9742,10.9742,10.9935,10.9587,10.8542,10.7923,10.7769,10.7459,10.7072,10.6995,10.6995,10.7034,10.7111,10.289,10.289,10.289,10.289,10.289,10.289,10.289,10.289,10.289,10.289,10.289,10.289,10.3125,10.3554,10.3633,10.3945,10.414,10.3867,10.3633,10.3476,10.3242,10.2969,10.3125,10.3789,10.4648,10.5547,10.6328,10.7148,10.7734,10.8008,10.8008,10.8008,10.8008,10.8008,10.8125,10.7969,10.8242,10.8712,10.9363,10.9837,10.9914,10.9961,10.9961,11.0,10.9609,10.9687,10.9804,10.9765,10.9453,10.9492,10.9453,10.9492,10.9492,10.9453,10.9336,10.875,10.875,10.8515,10.8125,10.8047,10.8008,10.8008,10.8008,10.8008,10.7969,10.789,10.7773,10.7586,10.7417,10.7362,10.7415,10.7653,10.7807,10.7923,10.804,10.8194,10.8272,10.8426,10.8697,10.8852,10.8968,10.8658,10.8465,10.8504,10.8388,10.8194,10.8272,10.8426,10.8542,10.8813,10.9045,10.9239,10.9742,11.0206,11.0515,11.0786,11.1134,11.1134,11.1173,11.1134,11.1134,11.1018,11.0477,11.0244,11.0399,10.9742,10.8658,10.8388,10.831,10.7691,10.6995,10.6995,10.6995,10.6995,10.7034,10.289,10.289,10.289,10.289,10.289,10.289,10.289,10.2929,10.3164,10.3242,10.3281,10.3515,10.3984,10.4414,10.457,10.4804,10.5351,10.4804,10.4609,10.4258,10.3945,10.3672,10.3945,10.4414,10.5039,10.5781,10.6367,10.7187,10.7734,10.8008,10.8008,10.8047,10.8359,10.8398,10.8437,10.875,10.9218,11.0039,11.0586,11.0859,11.0898,11.0898,11.0898,11.0859,11.0742,11.0703,11.0859,11.0586,11.0508,11.0468,11.0429,11.0351,11.039,11.0312,11.0156,10.9726,10.9609,10.9414,10.8828,10.8437,10.8086,10.8008,10.8008,10.8008,10.7969,10.789,10.7812,10.7734,10.7652,10.7666,10.788,10.8278,10.8578,10.8904,10.9239,10.9471,10.9626,10.9509,10.9548,10.9742,10.9935,11.009,11.0012,11.0128,10.9935,10.9548,10.9548,10.9626,10.9742,10.9819,11.009,11.0283,11.0631,11.1057,11.125,11.1598,11.1985,11.2101,11.2101,11.1985,11.1714,11.1444,11.0979,11.0863,11.0631,10.9742,10.8542,10.8697,10.8775,10.7769,10.6995,10.6995,10.6995,10.6995,10.7034,10.289,10.289,10.289,10.2929,10.289,10.289,10.289,10.2969,10.3711,10.4062,10.4219,10.4844,10.5156,10.539,10.5429,10.5508,10.5586,10.5429,10.539,10.539,10.5312,10.5078,10.5117,10.5312,10.5781,10.6406,10.6836,10.7344,10.7812,10.8008,10.8008,10.8086,10.8476,10.8984,10.9414,10.9765,11.0508,11.1211,11.164,11.1797,11.1797,11.1797,11.1797,11.164,11.1172,11.0937,11.1679,11.1211,11.0937,11.0937,11.0976,11.0976,11.1093,11.1054,11.0898,11.0625,11.0508,11.0312,10.9883,10.9023,10.8242,10.8086,10.8164,10.8398,10.8476,10.8164,10.8008,10.8125,10.8281,10.8344,10.8625,10.8861,10.9482,10.9888,11.0251,11.0382,11.0438,11.0244,11.0322,11.0593,11.0825,11.1018,11.1095,11.1134,11.0863,11.0438,11.0322,11.0399,11.0631,11.0747,11.1134,11.1444,11.1676,11.1869,11.1908,11.2101,11.2101,11.2101,11.2101,11.2024,11.1869,11.156,11.1057,11.036,10.9858,10.9123,10.8542,10.831,10.8001,10.7382,10.6995,10.6995,10.6995,10.6995,10.7072,10.289,10.2969,10.3476,10.3398,10.289,10.289,10.289,10.3047,10.3828,10.4531,10.5039,10.5351,10.5781,10.6133,10.6289,10.6562,10.6875,10.6406,10.6289,10.6015,10.582,10.5547,10.5625,10.6054,10.6406,10.6797,10.7187,10.7578,10.7969,10.8008,10.8008,10.8164,10.8437,10.8828,10.9414,11.0664,11.1523,11.1914,11.2383,11.2695,11.2695,11.2695,11.2695,11.2617,11.25,11.2343,11.2617,11.2383,11.2226,11.2148,11.2109,11.207,11.2031,11.2031,11.1836,11.1484,11.1406,11.1172,11.0742,11.0,10.9648,10.9609,10.9609,10.9531,10.9414,10.9531,10.957,10.957,10.9414,10.9492,10.9804,11.0273,11.0792,11.1045,11.1255,11.1367,11.1326,11.1144,11.1174,11.1506,11.1699,11.1908,11.1985,11.2062,11.1676,11.1328,11.1211,11.1173,11.1328,11.1444,11.1714,11.1869,11.2024,11.2101,11.2101,11.2101,11.2101,11.2101,11.2062,11.1792,11.156,11.125,11.0709,10.9896,10.9084,10.8426,10.7923,10.7614,10.7305,10.7072,10.6995,10.6995,10.6995,10.7072,10.7343,10.3047,10.3359,10.3945,10.3711,10.3008,10.3437,10.3515,10.3515,10.4531,10.5429,10.6211,10.6289,10.6523,10.6992,10.7109,10.7304,10.7617,10.7344,10.7148,10.6914,10.664,10.6289,10.6445,10.6758,10.7148,10.7265,10.7578,10.8008,10.8008,10.8008,10.8008,10.8008,10.8086,10.8633,10.9961,11.1328,11.2265,11.2461,11.2773,11.3203,11.3164,11.3164,11.3125,11.3125,11.3047,11.3047,11.3086,11.2968,11.3008,11.3008,11.3047,11.3125,11.3164,11.3125,11.2851,11.25,11.2187,11.1914,11.1484,11.082,11.0625,11.0351,11.0429,11.0468,11.0625,11.0625,11.0312,11.039,11.0508,11.0703,11.0898,11.1289,11.1718,11.1953,11.2265,11.2397,11.2332,11.2236,11.2245,11.2388,11.2436,11.2379,11.2333,11.2295,11.2062,11.1792,11.1714,11.1637,11.1753,11.183,11.1946,11.2024,11.2062,11.2101,11.2101,11.2101,11.2062,11.1946,11.183,11.1366,11.1057,11.067,11.0051,10.9123,10.8349,10.7691,10.7421,10.7337,10.715,10.7034,10.6995,10.7034,10.7537,10.773,10.804,10.3398,10.414,10.4219,10.375,10.3281,10.4726,10.4922,10.4414,10.5781,10.6914,10.7617,10.7734,10.7734,10.7851,10.7734,10.7851,10.7929,10.789,10.7812,10.7695,10.7578,10.7734,10.7734,10.7773,10.7695,10.7929,10.8008,10.8008,10.8008,10.8008,10.8008,10.8164,10.8359,10.9023,11.0586,11.2265,11.3086,11.3164,11.3164,11.3164,11.3203,11.3203,11.3203,11.3203,11.3203,11.3203,11.3203,11.3203,11.3203,11.3203,11.3203,11.3203,11.3203,11.3203,11.3086,11.3047,11.3047,11.3047,11.2968,11.1523,11.1015,11.1015,11.1211,11.1093,11.082,11.0781,11.0937,11.125,11.1015,11.125,11.1562,11.1992,11.2422,11.2734,11.2968,11.3047,11.2929,11.2891,11.2814,11.2788,11.2697,11.2599,11.2535,11.2484,11.2295,11.214,11.2101,11.2101,11.2101,11.2101,11.2101,11.2101,11.2101,11.2101,11.2101,11.2101,11.2062,11.1869,11.1482,11.0979,11.0244,10.9626,10.8968,10.8272,10.7885,10.7459,10.7299,10.7144,10.7144,10.7181,10.7098,10.7227,10.7807,10.831,10.8581,10.3437,10.4258,10.4804,10.4883,10.4726,10.5234,10.5312,10.5312,10.6211,10.7187,10.7851,10.8008,10.8008,10.8008,10.8008,10.8008,10.8008,10.8008,10.8008,10.8008,10.8008,10.8008,10.8008,10.8008,10.8008,10.8008,10.8008,10.8008,10.8008,10.8008,10.8008,10.8125,10.8984,10.9961,11.0742,11.1836,11.25,11.3086,11.3203,11.3203,11.3203,11.3203,11.3203,11.3203,11.3203,11.3203,11.3203,11.3203,11.3203,11.3203,11.3203,11.3203,11.3203,11.3203,11.3203,11.3203,11.3203,11.3203,11.3164,11.2539,11.2383,11.2265,11.2148,11.2148,11.2304,11.2304,11.2304,11.2226,11.207,11.2343,11.2695,11.2773,11.3008,11.3008,11.3164,11.3164,11.3125,11.3086,11.3068,11.3025,11.293,11.2748,11.264,11.2608,11.2449,11.2295,11.2256,11.214,11.2101,11.2101,11.2101,11.2101,11.2101,11.2101,11.2101,11.1946,11.1637,11.1366,11.0902,11.036,10.9587,10.8775,10.8233,10.773,10.7498,10.7305,10.7292,10.7308,10.7324,10.7377,10.7352,10.7415,10.7811,10.8408,10.8968,10.4297,10.5117,10.5664,10.6093,10.6367,10.6367,10.6367,10.6445,10.6914,10.75,10.7929,10.8008,10.8008,10.8008,10.8008,10.8008,10.8008,10.8008,10.8008,10.8008,10.8008,10.8008,10.8008,10.8008,10.8008,10.8008,10.8008,10.8008,10.8008,10.8008,10.8203,10.875,10.9609,11.0312,11.1093,11.2031,11.2695,11.3125,11.3203,11.3203,11.3203,11.3203,11.3203,11.3203,11.3203,11.3203,11.3203,11.3203,11.3203,11.3203,11.3203,11.3203,11.3203,11.3203,11.3203,11.3203,11.3203,11.3203,11.3164,11.3164,11.2968,11.3008,11.3203,11.3203,11.3203,11.3008,11.3047,11.3086,11.3203,11.3164,11.3164,11.3203,11.3203,11.3203,11.3203,11.3203,11.3203,11.3164,11.3164,11.3125,11.3086,11.289,11.2721,11.2672,11.2565,11.2488,11.2372,11.2251,11.2135,11.214,11.214,11.214,11.2101,11.2101,11.1908,11.1637,11.1289,11.0863,11.0283,10.9664,10.9007,10.8194,10.7691,10.7305,10.7343,10.7415,10.7478,10.7502,10.7705,10.7734,10.7671,10.7766,10.7895,10.8606,10.942,10.5937,10.664,10.6679,10.7148,10.7851,10.7812,10.7851,10.7929,10.7969,10.7969,10.8008,10.8008,10.8008,10.8008,10.8008,10.8008,10.8008,10.8008,10.8008,10.8008,10.8008,10.8008,10.8008,10.8008,10.8008,10.8008,10.8008,10.8008,10.8008,10.8008,10.8398,10.9062,10.9531,11.0508,11.1562,11.25,11.3008,11.3164,11.3203,11.3203,11.3203,11.3203,11.3203,11.3203,11.3203,11.3203,11.3203,11.3203,11.3203,11.3203,11.3203,11.3203,11.3203,11.3203,11.3203,11.3203,11.3203,11.3203,11.3203,11.3203,11.3203,11.3203,11.3203,11.3203,11.3203,11.3203,11.3203,11.3203,11.3203,11.3203,11.3203,11.3203,11.3203,11.3203,11.3203,11.3203,11.3203,11.3203,11.3203,11.3164,11.3164,11.3047,11.2929,11.2844,11.2734,11.2628,11.2538,11.2418,11.2311,11.2213,11.2213,11.2217,11.2179,11.2101,11.183,11.1439,11.0786,11.0283,10.9471,10.8813,10.8194,10.784,10.7537,10.7382,10.7421,10.7618,10.7993,10.8138,10.8132,10.8164,10.8554,10.8142,10.8306,10.9281,11.0121,10.5976,10.6679,10.6679,10.7187,10.7929,10.8008,10.8008,10.8008,10.8008,10.8008,10.8008,10.8008,10.8008,10.8008,10.8008,10.8008,10.8008,10.8008,10.8008,10.8008,10.8008,10.8008,10.8008,10.8008,10.8008,10.8008,10.8008,10.8008,10.8008,10.8008,10.8437,10.9218,10.9843,11.082,11.1797,11.2773,11.3047,11.3203,11.3203,11.3203,11.3203,11.3203,11.3203,11.3203,11.3203,11.3203,11.3203,11.3203,11.3203,11.3203,11.3203,11.3203,11.3203,11.3203,11.3203,11.3203,11.3203,11.3203,11.3203,11.3203,11.3203,11.3203,11.3203,11.3203,11.3203,11.3203,11.3203,11.3203,11.3203,11.3203,11.3203,11.3203,11.3203,11.3203,11.3203,11.3203,11.3203,11.3203,11.3203,11.3203,11.3203,11.3164,11.3047,11.2968,11.2851,11.2773,11.2729,11.2583,11.2453,11.2379,11.229,11.2367,11.2073,11.1941,11.1621,11.124,11.0394,10.9626,10.8872,10.8207,10.7788,10.7517,10.7415,10.7579,10.7818,10.8298,10.8822,10.8906,10.8945,10.9531,10.9883,10.9179,10.8867,10.9883,11.0586,10.6758,10.7187,10.7226,10.7539,10.7969,10.8008,10.8008,10.8008,10.8008,10.8008,10.8008,10.8008,10.8008,10.8008,10.8008,10.8008,10.8008,10.8008,10.8008,10.8008,10.8008,10.8008,10.8008,10.8008,10.8008,10.8008,10.8008,10.8008,10.8047,10.8086,10.8437,10.9297,11.0156,11.1015,11.1875,11.2695,11.3125,11.3203,11.3203,11.3203,11.3203,11.3203,11.3203,11.3203,11.3203,11.3203,11.3203,11.3203,11.3203,11.3203,11.3203,11.3203,11.3203,11.3203,11.3203,11.3203,11.3203,11.3203,11.3203,11.3203,11.3203,11.3203,11.3203,11.3203,11.3203,11.3203,11.3203,11.3203,11.3203,11.3203,11.3203,11.3203,11.3203,11.3203,11.3203,11.3203,11.3203,11.3203,11.3203,11.3203,11.3203,11.3203,11.3125,11.3047,11.3047,11.3008,11.2971,11.2928,11.2775,11.2611,11.2535,11.2478,11.2069,11.1728,11.1311,11.0767,10.9928,10.91,10.8465,10.7882,10.7507,10.758,10.7813,10.8047,10.8373,10.8945,10.9648,10.9765,10.9922,11.0547,11.082,11.0195,10.9922,11.0547,11.1093,10.7969,10.7969,10.8008,10.7969,10.8008,10.8008,10.8008,10.8008,10.8008,10.8008,10.8008,10.8008,10.8008,10.8008,10.8008,10.8008,10.8008,10.8008,10.8008,10.8047,10.8008,10.8008,10.8008,10.8008,10.8008,10.8008,10.8164,10.8359,10.8164,10.8125,10.8398,10.9218,11.0156,11.0937,11.1601,11.2695,11.3164,11.3203,11.3203,11.3203,11.3203,11.3203,11.3203,11.3203,11.3203,11.3203,11.3203,11.3203,11.3203,11.3203,11.3203,11.3203,11.3203,11.3203,11.3203,11.3203,11.3203,11.3203,11.3203,11.3203,11.3203,11.3203,11.3203,11.3203,11.3203,11.3203,11.3203,11.3203,11.3203,11.3203,11.3203,11.3203,11.3203,11.3203,11.3203,11.3203,11.3203,11.3203,11.3203,11.3203,11.3203,11.3203,11.3203,11.3125,11.3125,11.3164,11.315,11.3126,11.2929,11.2734,11.25,11.2422,11.2001,11.1414,11.0661,11.0076,10.9281,10.8556,10.8047,10.7815,10.762,10.787,10.8256,10.8633,10.9023,10.9804,11.039,11.0586,11.082,11.1211,11.1328,11.1015,11.1133,11.1523,11.1523,10.8008,10.8008,10.8008,10.8008,10.8008,10.8008,10.8008,10.8008,10.8008,10.8008,10.8008,10.8008,10.8008,10.8008,10.8008,10.8008,10.8086,10.8203,10.8047,10.8164,10.8203,10.8398,10.8125,10.832,10.8164,10.8242,10.8515,10.8789,10.8633,10.8359,10.8125,10.8515,10.9648,11.0703,11.1133,11.2304,11.3047,11.3164,11.3203,11.3203,11.3203,11.3203,11.3203,11.3203,11.3203,11.3203,11.3203,11.3203,11.3203,11.3203,11.3203,11.3203,11.3203,11.3203,11.3203,11.3203,11.3203,11.3203,11.3203,11.3203,11.3203,11.3203,11.3203,11.3203,11.3203,11.3203,11.3203,11.3203,11.3203,11.3203,11.3203,11.3203,11.3203,11.3203,11.3203,11.3203,11.3203,11.3242,11.3242,11.3242,11.3242,11.3281,11.332,11.3242,11.3203,11.3203,11.3203,11.3125,11.2851,11.2617,11.2109,11.1953,11.1797,11.1195,11.0273,10.9492,10.8828,10.8437,10.8047,10.7851,10.7773,10.8445,10.9062,10.9336,10.9765,11.0586,11.1211,11.1484,11.1758,11.2031,11.2148,11.1953,11.2148,11.2539,11.2265,10.8008,10.8008,10.8008,10.8008,10.8008,10.8008,10.8008,10.8008,10.8008,10.8008,10.8008,10.8008,10.8008,10.8008,10.8008,10.832,10.8476,10.8593,10.8984,10.9101,10.9023,10.9218,10.914,10.9023,10.8906,10.8906,10.8593,10.8593,10.8867,10.8398,10.8086,10.8281,10.9453,11.0351,11.0703,11.1953,11.289,11.3164,11.3203,11.3203,11.3203,11.3203,11.3203,11.3203,11.3203,11.3203,11.3203,11.3203,11.3203,11.3203,11.3203,11.3203,11.3203,11.3203,11.3203,11.3203,11.3203,11.3203,11.3203,11.3203,11.3203,11.3203,11.3203,11.3203,11.3203,11.3203,11.3203,11.3203,11.3203,11.3203,11.3203,11.3203,11.3203,11.3203,11.3203,11.3203,11.3437,11.3633,11.3789,11.3945,11.4062,11.4336,11.4258,11.3945,11.3789,11.3203,11.3203,11.3164,11.289,11.2383,11.1914,11.1367,11.1093,11.0664,10.9804,10.9062,10.8476,10.8164,10.8125,10.8281,10.8515,10.9297,10.9883,11.0273,11.0781,11.1484,11.1992,11.2226,11.25,11.2734,11.289,11.3008,11.3203,11.3203,11.2851,10.8008,10.8008,10.8008,10.8008,10.8047,10.8164,10.8203,10.8203,10.832,10.8398,10.8515,10.8476,10.8242,10.8008,10.8359,10.8789,10.914,10.9375,10.9883,11.0234,11.0351,11.0156,11.0195,11.0351,11.0039,10.9609,10.9179,10.9062,10.914,10.8828,10.8711,10.8554,10.9179,11.0039,11.0781,11.164,11.2578,11.3047,11.3203,11.3203,11.3203,11.3203,11.3203,11.3203,11.3203,11.3203,11.3203,11.3203,11.3203,11.3203,11.3203,11.3203,11.3203,11.3203,11.3203,11.3203,11.3203,11.3203,11.3203,11.3203,11.3203,11.3203,11.3203,11.3203,11.3203,11.3203,11.3203,11.3203,11.3203,11.3203,11.3203,11.3203,11.3203,11.3203,11.3203,11.3203,11.3515,11.3828,11.4062,11.4297,11.4531,11.4804,11.4648,11.4375,11.3984,11.3398,11.3164,11.3125,11.289,11.2187,11.1601,11.082,11.0195,10.9687,10.9101,10.8828,10.8281,10.8554,10.8593,10.8867,10.9297,11.0156,11.0859,11.1445,11.1953,11.2343,11.2656,11.2851,11.3125,11.3203,11.3203,11.3203,11.3203,11.3203,11.3203,10.8008,10.8008,10.8008,10.8047,10.8164,10.875,10.9062,10.9179,10.9804,11.0117,11.0,10.9961,10.9453,10.8086,10.9609,11.0078,10.9726,11.0078,11.0312,11.0547,11.0937,11.0781,11.0742,11.0976,11.1015,11.0703,11.039,11.0508,11.0,10.9961,11.0039,10.9961,11.0781,11.1367,11.1562,11.2304,11.2773,11.3047,11.3164,11.3203,11.3203,11.3203,11.3203,11.3203,11.3203,11.3203,11.3203,11.3203,11.3203,11.3203,11.3203,11.3203,11.3203,11.3203,11.3203,11.3203,11.3203,11.3203,11.3203,11.3203,11.3203,11.3203,11.3203,11.3203,11.3203,11.3203,11.3203,11.3203,11.3203,11.3203,11.3203,11.3203,11.3203,11.3203,11.3203,11.3203,11.3359,11.3515,11.3672,11.3789,11.3906,11.3984,11.3906,11.375,11.3672,11.3242,11.3047,11.2968,11.2578,11.1953,11.1289,11.0586,10.9726,10.8867,10.8398,10.8593,10.8398,10.8711,10.9218,10.9726,11.0312,11.1054,11.1758,11.2148,11.2539,11.289,11.3164,11.3203,11.3203,11.3203,11.3203,11.3203,11.3203,11.3203,11.3203]},{"header":{"parameterUnit":"m.s-1","parameterCategory":1,"la1":31.0,"la2":29.5877,"lo1":-88.7671,"lo2":-86.6584,"dx":0.0162,"dy":0.0185,"nx":115,"ny":88,"refTime":"2022-11-14T06:00:00:Z","depth":0,"parameterNumber":3,"parameterNumberName":"V-component_of_WINDS"},"data":[0.0,0.0,0.0,0.0,0.0,0.0,0.0,0.0,0.0,0.0,0.0,0.0,0.0,0.0,0.0,0.0,0.0,0.0,0.0,0.0,0.0,0.0,0.0,0.0,0.0,0.0,0.0,0.0,0.0,0.0,0.0,0.0,0.0,0.0,0.0,0.0,0.0,0.0,0.0,0.0,0.0,0.0,0.0,0.0,0.0,0.0,0.0,0.0,0.0,0.0,0.0,0.0,0.0,0.0,0.0,0.0,0.0,0.0,0.0,0.0,0.0,0.0,0.0,0.0,0.0,0.0,0.0,0.0,0.0,0.0,0.0,0.0,0.0,0.0,0.0,0.0,0.0,0.0,0.0,0.0,0.0,0.0,0.0,0.0,0.0,0.0,0.0,0.0,0.0,0.0,0.0,0.0,0.0,0.0,0.0,0.0,0.0,0.0,0.0,0.0,0.0,0.0,0.0,0.0,0.0,0.0,0.0,0.0,0.0,0.0,0.0,0.0,0.0,0.0,0.0,0.0,0.0,0.0,0.0,0.0,0.0,0.0,0.0,0.0,0.0,0.0,0.0,0.0,0.0,0.0,0.0,0.0,0.0,0.0,0.0,0.0,0.0,0.0,0.0,0.0,0.0,0.0,0.0,0.0,0.0,0.0,0.0,0.0,0.0,0.0,0.0,0.0,0.0,0.0,0.0,0.0,0.0,0.0,0.0,0.0,0.0,0.0,0.0,0.0,0.0,0.0,0.0,0.0,0.0,0.0,0.0,0.0,0.0,0.0,0.0,0.0,0.0,0.0,0.0,0.0,0.0,0.0,0.0,0.0,0.0,0.0,0.0,0.0,0.0,0.0,0.0,0.0,0.0,0.0,0.0,0.0,0.0,0.0,0.0,0.0,0.0,0.0,0.0,0.0,0.0,0.0,0.0,0.0,0.0,0.0,0.0,0.0,0.0,0.0,0.0,0.0,0.0,0.0,0.0,0.0,0.0,0.0,0.0,0.0,0.0,0.0,0.0,0.0,0.0,0.0,0.0,0.0,0.0,0.0,0.0,0.0,0.0,0.0,0.0,0.0,0.0,0.0,0.0,0.0,0.0,0.0,0.0,0.0,0.0,0.0,0.0,0.0,0.0,0.0,0.0,0.0,0.0,0.0,0.0,0.0,0.0,0.0,0.0,0.0,0.0,0.0,0.0,0.0,0.0,0.0,0.0,0.0,0.0,0.0,0.0,0.0,0.0,0.0,0.0,0.0,0.0,0.0,0.0,0.0,0.0,0.0,0.0,0.0,0.0,0.0,0.0,0.0,0.0,0.0,0.0,0.0,0.0,0.0,0.0,0.0,0.0,0.0,0.0,0.0,0.0,0.0,0.0,0.0,0.0,0.0,0.0,0.0,0.0,0.0,0.0,0.0,0.0,0.0,0.0,0.0,0.0,0.0,0.0,0.0,0.0,0.0,0.0,0.0,0.0,0.0,0.0,0.0,0.0,0.0,0.0,0.0,0.0,0.0,0.0,0.0,0.0,0.0,0.0,0.0,0.0,0.0,0.0,0.0,0.0,0.0,0.0,0.0,0.0,0.0,0.0,0.0,0.0,0.0,0.0,0.0,0.0,0.0,0.0,0.0,0.0,0.0,0.0,0.0,0.0,0.0,0.0,0.0,0.0,0.0,0.0,0.0,0.0,0.0,0.0,0.0,0.0,0.0,0.0,0.0,0.0,0.0,0.0,0.0,0.0,0.0,0.0,0.0,0.0,0.0,0.0,0.0,0.0,0.0,0.0,0.0,0.0,0.0,0.0,0.0,0.0,0.0,0.0,0.0,0.0,0.0,0.0,0.0,0.0,0.0,0.0,0.0,0.0,0.0,0.0,0.0,0.0,0.0,0.0,0.0,0.0,0.0,0.0,0.0,0.0,0.0,0.0,0.0,0.0,0.0,0.0,0.0,0.0,0.0,0.0,0.0,0.0,0.0,0.0,0.0,0.0,0.0,0.0,0.0,0.0,0.0,0.0,0.0,0.0,0.0,0.0,0.0,0.0,0.0,0.0,0.0,0.0,0.0,0.0,0.0,0.0,0.0,0.0,0.0,0.0,0.0,0.0,0.0,0.0,0.0,0.0,0.0,0.0,0.0,0.0,0.0,0.0,0.0,0.0,0.0,0.0,0.0,0.0,0.0,0.0,0.0,0.0,0.0,0.0,0.0,0.0,0.0,0.0,0.0,0.0,0.0,0.0,0.0,0.0,0.0,0.0,0.0,0.0,0.0,0.0,0.0,0.0,0.0,0.0,0.0,0.0,0.0,0.0,0.0,0.0,0.0,0.0,0.0,0.0,0.0,0.0,0.0,0.0,0.0,0.0,0.0,0.0,0.0,0.0,0.0,0.0,0.0,0.0,0.0,0.0,0.0,0.0,0.0,0.0,0.0,0.0,0.0,0.0,0.0,0.0,0.0,0.0,0.0,0.0,0.0,0.0,0.0,0.0,0.0,0.0,0.0,0.0,0.0,0.0,0.0,0.0,0.0,0.0,0.0,0.0,0.0,0.0,0.0,0.0,0.0,0.0,0.0,0.0,0.0,0.0,0.0,0.0,0.0,0.0,0.0,0.0,0.0,0.0,0.0,0.0,0.0,0.0,0.0,0.0,0.0,0.0,0.0,0.0,0.0,0.0,0.0,0.0,0.0,0.0,0.0,0.0,0.0,0.0,0.0,0.0,0.0,0.0,0.0,0.0,0.0,0.0,0.0,0.0,0.0,0.0,0.0,0.0,0.0,0.0,0.0,0.0,0.0,0.0,0.0,0.0,0.0,0.0,0.0,0.0,0.0,0.0,0.0,0.0,0.0,0.0,0.0,0.0,0.0,0.0,0.0,0.0,0.0,0.0,0.0,0.0,0.0,0.0,0.0,0.0,0.0,0.0,0.0,0.0,0.0,0.0,0.0,0.0,0.0,0.0,0.0,0.0,0.0,0.0,0.0,0.0,0.0,0.0,0.0,0.0,0.0,0.0,0.0,0.0,0.0,0.0,0.0,0.0,0.0,0.0,0.0,0.0,0.0,0.0,0.0,0.0,0.0,0.0,0.0,0.0,0.0,0.0,0.0,0.0,0.0,0.0,0.0,0.0,0.0,0.0,0.0,0.0,0.0,0.0,0.0,0.0,0.0,0.0,0.0,0.0,0.0,0.0,0.0,0.0,0.0,0.0,0.0,0.0,0.0,0.0,0.0,0.0,0.0,0.0,0.0,0.0,0.0,0.0,0.0,0.0,0.0,0.0,0.0,0.0,0.0,0.0,0.0,0.0,0.0,0.0,0.0,0.0,0.0,0.0,0.0,0.0,0.0,0.0,0.0,0.0,0.0,0.0,0.0,0.0,0.0,0.0,0.0,0.0,0.0,0.0,0.0,0.0,0.0,0.0,0.0,0.0,0.0,0.0,0.0,0.0,0.0,0.0,0.0,0.0,0.0,0.0,0.0,0.0,0.0,0.0,0.0,0.0,0.0,0.0,0.0,0.0,0.0,0.0,0.0,0.0,0.0,0.0,0.0,0.0,0.0,0.0,0.0,0.0,0.0,0.0,0.0,0.0,0.0,0.0,0.0,0.0,0.0,0.0,0.0,0.0,0.0,0.0,0.0,0.0,0.0,0.0,0.0,0.0,0.0,0.0,0.0,0.0,0.0,0.0,0.0,0.0,0.0,0.0,0.0,0.0,0.0,0.0,0.0,0.0,0.0,0.0,0.0,0.0,0.0,0.0,0.0,0.0,0.0,0.0,0.0,0.0,0.0,0.0,0.0,0.0,0.0,0.0,0.0,0.0,0.0,0.0,0.0,0.0,0.0,0.0,0.0,0.0,0.0,0.0,0.0,0.0,0.0,0.0,0.0,0.0,0.0,0.0,0.0,0.0,0.0,0.0,0.0,0.0,0.0,0.0,0.0,0.0,0.0,0.0,0.0,0.0,0.0,0.0,0.0,0.0,0.0,0.0,0.0,0.0,0.0,0.0,0.0,0.0,0.0,0.0,0.0,0.0,0.0,0.0,0.0,0.0,0.0,0.0,0.0,0.0,0.0,0.0,0.0,0.0,0.0,0.0,0.0,0.0,0.0,0.0,0.0,0.0,0.0,0.0,0.0,0.0,0.0,0.0,0.0,0.0,0.0,0.0,0.0,0.0,0.0,0.0,0.0,0.0,0.0,0.0,0.0,0.0,0.0,0.0,0.0,0.0,0.0,0.0,0.0,0.0,0.0,0.0,0.0,0.0,0.0,0.0,0.0,0.0,0.0,-1.0539,0.0,0.0,0.0,-0.9772,0.0,0.0,0.0,0.0,0.0,0.0,0.0,0.0,0.0,0.0,0.0,0.0,0.0,0.0,0.0,0.0,0.0,0.0,0.0,0.0,0.0,0.0,0.0,0.0,0.0,0.0,0.0,0.0,0.0,0.0,0.0,0.0,0.0,0.0,0.0,0.0,0.0,0.0,0.0,0.0,0.0,0.0,0.0,0.0,0.0,0.0,0.0,0.0,0.0,0.0,0.0,0.0,0.0,0.0,0.0,0.0,0.0,0.0,0.0,0.0,0.0,0.0,0.0,0.0,0.0,0.0,0.0,0.0,0.0,0.0,0.0,0.0,0.0,0.0,0.0,0.0,0.0,0.0,0.0,0.0,0.0,0.0,0.0,0.0,0.0,0.0,0.0,0.0,0.0,0.0,0.0,0.0,0.0,0.0,0.0,0.0,0.0,0.0,0.0,0.0,0.0,0.0,0.0,0.0,0.0,0.0,0.0,0.0,0.0,0.0,-1.061,-0.9556,-1.1129,-1.1214,-0.958,0.0,0.0,0.0,0.0,0.0,0.0,0.0,0.0,0.0,0.0,0.0,0.0,0.0,0.0,0.0,0.0,0.0,0.0,0.0,0.0,0.0,0.0,0.0,0.0,0.0,0.0,0.0,0.0,0.0,0.0,0.0,0.0,0.0,0.0,0.0,0.0,0.0,0.0,0.0,0.0,0.0,0.0,0.0,0.0,0.0,0.0,0.0,0.0,0.0,0.0,0.0,0.0,0.0,0.0,0.0,0.0,0.0,0.0,0.0,0.0,0.0,0.0,0.0,0.0,0.0,0.0,0.0,0.0,0.0,0.0,0.0,0.0,0.0,0.0,0.0,0.0,0.0,0.0,0.0,0.0,0.0,0.0,0.0,0.0,0.0,0.0,0.0,0.0,0.0,0.0,0.0,0.0,0.0,0.0,0.0,0.0,0.0,0.0,0.0,0.0,0.0,0.0,0.0,0.0,0.0,0.0,0.0,0.0,0.0,0.0,0.0,0.0,-1.1612,-1.1733,-1.0203,0.0,0.0,0.0,0.0,0.0,0.0,0.0,0.0,0.0,0.0,0.0,0.0,0.0,0.0,0.0,0.0,0.0,0.0,0.0,0.0,0.0,0.0,0.0,0.0,0.0,0.0,0.0,0.0,0.0,0.0,0.0,0.0,0.0,0.0,0.0,0.0,0.0,0.0,0.0,0.0,0.0,0.0,0.0,0.0,0.0,0.0,0.0,0.0,0.0,0.0,0.0,0.0,0.0,0.0,0.0,0.0,0.0,0.0,0.0,0.0,0.0,0.0,0.0,0.0,0.0,0.0,0.0,0.0,0.0,0.0,0.0,0.0,0.0,0.0,0.0,0.0,0.0,0.0,0.0,0.0,0.0,0.0,0.0,0.0,0.0,0.0,0.0,0.0,0.0,0.0,0.0,0.0,0.0,0.0,0.0,0.0,0.0,0.0,0.0,0.0,0.0,0.0,0.0,0.0,0.0,0.0,0.0,0.0,0.0,0.0,-1.0263,-1.1661,-1.1661,0.0,-1.2011,0.0,0.0,0.0,0.0,0.0,0.0,0.0,0.0,0.0,0.0,0.0,0.0,0.0,0.0,0.0,0.0,0.0,0.0,0.0,0.0,0.0,0.0,0.0,0.0,0.0,0.0,0.0,0.0,0.0,0.0,0.0,0.0,0.0,0.0,0.0,0.0,0.0,0.0,0.0,0.0,0.0,0.0,0.0,0.0,0.0,0.0,0.0,0.0,0.0,0.0,0.0,0.0,0.0,0.0,0.0,0.0,0.0,0.0,0.0,0.0,0.0,0.0,0.0,0.0,0.0,0.0,0.0,0.0,0.0,0.0,0.0,0.0,0.0,0.0,0.0,0.0,0.0,0.0,0.0,0.0,0.0,0.0,0.0,0.0,0.0,0.0,0.0,0.0,0.0,0.0,0.0,0.0,0.0,0.0,0.0,0.0,0.0,0.0,0.0,0.0,0.0,0.0,0.0,0.0,0.0,0.0,0.0,0.0,0.0,0.0,-1.0707,-1.1673,-1.1745,-1.1709,0.0,0.0,0.0,0.0,0.0,0.0,0.0,0.0,0.0,0.0,0.0,0.0,0.0,0.0,0.0,0.0,0.0,0.0,0.0,0.0,0.0,0.0,0.0,0.0,0.0,0.0,0.0,0.0,0.0,0.0,0.0,0.0,0.0,0.0,0.0,0.0,0.0,0.0,0.0,0.0,0.0,0.0,0.0,0.0,0.0,0.0,0.0,0.0,0.0,0.0,0.0,0.0,0.0,0.0,0.0,0.0,0.0,0.0,0.0,0.0,0.0,0.0,0.0,0.0,0.0,0.0,0.0,0.0,0.0,0.0,0.0,0.0,0.0,0.0,0.0,0.0,0.0,0.0,0.0,0.0,0.0,0.0,0.0,0.0,0.0,0.0,0.0,0.0,0.0,0.0,0.0,0.0,0.0,0.0,0.0,0.0,0.0,0.0,0.0,0.0,0.0,0.0,0.0,0.0,0.0,0.0,0.0,0.0,0.0,0.0,-1.0852,-1.1335,-1.2131,-1.2228,-1.1999,-1.1455,0.0,0.0,0.0,0.0,0.0,0.0,0.0,0.0,0.0,0.0,0.0,0.0,0.0,0.0,0.0,0.0,0.0,0.0,0.0,0.0,0.0,0.0,0.0,0.0,0.0,0.0,0.0,0.0,0.0,0.0,0.0,0.0,0.0,0.0,0.0,0.0,0.0,0.0,0.0,0.0,0.0,0.0,0.0,0.0,0.0,0.0,0.0,0.0,0.0,0.0,0.0,0.0,0.0,0.0,0.0,0.0,0.0,0.0,0.0,0.0,0.0,0.0,0.0,0.0,0.0,0.0,0.0,0.0,0.0,0.0,0.0,0.0,0.0,0.0,0.0,0.0,0.0,0.0,0.0,0.0,0.0,0.0,0.0,0.0,0.0,0.0,0.0,0.0,0.0,0.0,0.0,0.0,0.0,0.0,0.0,0.0,0.0,0.0,0.0,0.0,0.0,0.0,0.0,0.0,0.0,0.0,0.0,0.0,-1.3109,-1.2107,-1.2228,-1.3713,-1.3326,-1.2807,0.0,0.0,0.0,0.0,0.0,0.0,0.0,0.0,0.0,0.0,0.0,0.0,0.0,0.0,0.0,0.0,0.0,0.0,0.0,0.0,0.0,0.0,0.0,0.0,0.0,0.0,0.0,0.0,0.0,0.0,0.0,0.0,0.0,0.0,0.0,0.0,0.0,0.0,0.0,0.0,0.0,0.0,0.0,0.0,0.0,0.0,0.0,0.0,0.0,0.0,0.0,0.0,0.0,0.0,0.0,0.0,0.0,0.0,0.0,0.0,0.0,0.0,0.0,0.0,0.0,0.0,0.0,0.0,0.0,0.0,0.0,0.0,0.0,0.0,0.0,0.0,0.0,0.0,0.0,0.0,0.0,0.0,0.0,0.0,0.0,0.0,0.0,0.0,0.0,0.0,0.0,0.0,0.0,0.0,0.0,0.0,0.0,0.0,0.0,0.0,0.0,0.0,0.0,0.0,0.0,0.0,0.0,0.0,0.0,-1.119,-1.1745,-1.2795,-1.4316,-1.3411,-1.2843,0.0,0.0,0.0,0.0,0.0,0.0,0.0,0.0,0.0,0.0,0.0,0.0,0.0,0.0,0.0,0.0,0.0,0.0,0.0,0.0,0.0,0.0,0.0,0.0,0.0,0.0,0.0,0.0,0.0,0.0,0.0,0.0,0.0,0.0,0.0,0.0,0.0,0.0,0.0,0.0,0.0,0.0,0.0,0.0,0.0,0.0,0.0,0.0,0.0,0.0,0.0,0.0,0.0,0.0,0.0,0.0,0.0,0.0,0.0,0.0,0.0,0.0,0.0,0.0,0.0,0.0,0.0,0.0,0.0,0.0,0.0,0.0,0.0,0.0,0.0,0.0,0.0,0.0,0.0,0.0,0.0,0.0,0.0,0.0,0.0,0.0,0.0,0.0,0.0,0.0,0.0,0.0,0.0,0.0,0.0,0.0,0.0,0.0,0.0,0.0,0.0,0.0,0.0,0.0,0.0,0.0,0.0,0.0,0.0,-1.1479,-1.3121,-1.4352,-1.5004,-1.3966,-1.3121,0.0,0.0,0.0,0.0,0.0,0.0,0.0,0.0,0.0,0.0,0.0,0.0,0.0,0.0,0.0,0.0,0.0,0.0,0.0,0.0,0.0,0.0,0.0,0.0,0.0,0.0,0.0,0.0,0.0,0.0,0.0,0.0,0.0,0.0,0.0,0.0,0.0,0.0,0.0,0.0,0.0,0.0,0.0,0.0,0.0,0.0,0.0,0.0,0.0,0.0,0.0,0.0,0.0,0.0,0.0,0.0,0.0,0.0,0.0,0.0,0.0,0.0,0.0,0.0,0.0,0.0,0.0,0.0,0.0,0.0,0.0,0.0,0.0,0.0,0.0,0.0,0.0,0.0,0.0,0.0,0.0,0.0,0.0,0.0,0.0,0.0,0.0,0.0,0.0,0.0,0.0,0.0,0.0,0.0,0.0,0.0,0.0,0.0,0.0,0.0,0.0,0.0,0.0,0.0,0.0,0.0,0.0,0.0,-1.154,-1.4533,-1.638,-1.6779,-1.5922,-1.5065,-1.3701,0.0,0.0,0.0,0.0,0.0,0.0,0.0,0.0,0.0,0.0,0.0,0.0,0.0,0.0,0.0,0.0,0.0,0.0,0.0,0.0,0.0,0.0,0.0,0.0,0.0,0.0,0.0,0.0,0.0,0.0,0.0,0.0,0.0,0.0,0.0,0.0,0.0,0.0,0.0,0.0,0.0,0.0,0.0,0.0,0.0,0.0,0.0,0.0,0.0,0.0,0.0,0.0,0.0,0.0,0.0,0.0,0.0,0.0,0.0,0.0,0.0,0.0,0.0,0.0,0.0,0.0,0.0,0.0,0.0,0.0,0.0,0.0,0.0,0.0,0.0,0.0,0.0,0.0,0.0,0.0,0.0,0.0,0.0,0.0,0.0,0.0,0.0,0.0,0.0,0.0,0.0,0.0,0.0,0.0,0.0,0.0,0.0,0.0,0.0,0.0,0.0,0.0,0.0,0.0,0.0,0.0,0.0,0.0,0.0,-1.3652,-1.5427,-1.6489,-1.6658,-1.5052,-1.4111,0.0,0.0,0.0,0.0,0.0,0.0,0.0,0.0,0.0,0.0,0.0,0.0,0.0,0.0,0.0,0.0,0.0,0.0,0.0,0.0,0.0,0.0,0.0,0.0,0.0,0.0,0.0,0.0,0.0,0.0,0.0,0.0,0.0,0.0,0.0,0.0,0.0,0.0,0.0,0.0,0.0,0.0,0.0,0.0,0.0,0.0,0.0,0.0,0.0,0.0,0.0,0.0,0.0,0.0,0.0,0.0,0.0,0.0,0.0,0.0,0.0,0.0,0.0,0.0,0.0,0.0,0.0,0.0,0.0,0.0,0.0,0.0,0.0,0.0,0.0,0.0,0.0,0.0,0.0,0.0,0.0,0.0,0.0,0.0,0.0,0.0,0.0,0.0,0.0,0.0,0.0,0.0,0.0,0.0,0.0,0.0,0.0,0.0,0.0,0.0,0.0,0.0,0.0,0.0,0.0,0.0,0.0,0.0,0.0,-1.5294,-1.6718,-1.766,-1.7962,-1.6006,-1.4944,-1.4908,0.0,0.0,0.0,0.0,0.0,0.0,0.0,0.0,0.0,0.0,0.0,0.0,0.0,0.0,0.0,0.0,0.0,0.0,0.0,0.0,0.0,0.0,0.0,0.0,0.0,0.0,0.0,0.0,0.0,0.0,0.0,0.0,0.0,0.0,0.0,0.0,0.0,0.0,0.0,0.0,0.0,0.0,0.0,0.0,0.0,0.0,0.0,0.0,0.0,0.0,0.0,0.0,0.0,0.0,0.0,0.0,0.0,0.0,0.0,0.0,0.0,0.0,0.0,0.0,0.0,0.0,0.0,0.0,0.0,0.0,0.0,0.0,0.0,0.0,0.0,0.0,0.0,0.0,0.0,0.0,0.0,0.0,0.0,0.0,0.0,0.0,0.0,0.0,0.0,0.0,0.0,0.0,0.0,0.0,0.0,0.0,0.0,0.0,0.0,0.0,0.0,0.0,0.0,0.0,0.0,0.0,0.0,0.0,-1.8758,-1.9796,-2.0062,-1.9507,-1.772,-1.6163,0.0,0.0,0.0,0.0,0.0,0.0,0.0,0.0,0.0,0.0,0.0,0.0,0.0,0.0,0.0,0.0,0.0,0.0,0.0,0.0,0.0,0.0,0.0,0.0,0.0,0.0,0.0,0.0,0.0,0.0,0.0,0.0,0.0,0.0,0.0,0.0,0.0,0.0,0.0,0.0,0.0,0.0,0.0,0.0,0.0,0.0,0.0,0.0,0.0,0.0,0.0,0.0,0.0,0.0,0.0,0.0,0.0,0.0,0.0,0.0,0.0,0.0,0.0,0.0,0.0,0.0,0.0,0.0,0.0,0.0,0.0,0.0,0.0,0.0,0.0,0.0,0.0,0.0,0.0,0.0,0.0,0.0,0.0,0.0,0.0,0.0,0.0,0.0,0.0,0.0,0.0,0.0,0.0,0.0,0.0,0.0,0.0,0.0,0.0,0.0,0.0,0.0,0.0,0.0,0.0,0.0,0.0,0.0,0.0,-1.982,-2.0714,-2.0907,-2.034,-1.8541,-1.7225,0.0,0.0,0.0,0.0,0.0,0.0,0.0,0.0,0.0,0.0,0.0,0.0,0.0,0.0,0.0,0.0,0.0,0.0,0.0,0.0,0.0,0.0,0.0,0.0,0.0,0.0,0.0,0.0,0.0,0.0,0.0,0.0,0.0,0.0,0.0,0.0,0.0,0.0,0.0,0.0,0.0,0.0,0.0,0.0,0.0,0.0,0.0,0.0,0.0,0.0,0.0,0.0,0.0,0.0,0.0,0.0,0.0,0.0,0.0,0.0,0.0,0.0,0.0,0.0,0.0,0.0,0.0,0.0,0.0,0.0,0.0,0.0,0.0,0.0,0.0,0.0,0.0,0.0,0.0,0.0,0.0,0.0,0.0,0.0,0.0,0.0,0.0,0.0,0.0,0.0,0.0,0.0,0.0,0.0,0.0,0.0,0.0,0.0,0.0,0.0,0.0,0.0,0.0,0.0,0.0,0.0,0.0,0.0,-1.9374,-2.139,-2.1679,-2.1716,-2.151,-1.9579,-1.8131,0.0,0.0,0.0,0.0,0.0,0.0,0.0,0.0,0.0,0.0,0.0,0.0,0.0,0.0,0.0,0.0,0.0,0.0,0.0,0.0,0.0,0.0,0.0,0.0,0.0,0.0,0.0,0.0,0.0,0.0,0.0,0.0,0.0,0.0,0.0,0.0,0.0,0.0,0.0,0.0,0.0,0.0,0.0,0.0,0.0,0.0,0.0,0.0,0.0,0.0,0.0,0.0,0.0,0.0,0.0,0.0,0.0,0.0,0.0,0.0,0.0,0.0,0.0,0.0,0.0,0.0,0.0,0.0,0.0,0.0,0.0,0.0,0.0,0.0,0.0,0.0,0.0,0.0,0.0,0.0,0.0,0.0,0.0,0.0,0.0,0.0,0.0,0.0,0.0,0.0,0.0,0.0,0.0,0.0,0.0,0.0,0.0,0.0,0.0,0.0,0.0,0.0,0.0,0.0,0.0,0.0,0.0,0.0,-2.0245,-2.2496,-2.2094,-2.1952,-2.2269,-2.0376,-1.8836,0.0,0.0,0.0,0.0,0.0,0.0,0.0,0.0,0.0,0.0,0.0,0.0,0.0,0.0,0.0,0.0,0.0,0.0,0.0,0.0,0.0,0.0,0.0,0.0,0.0,0.0,0.0,0.0,0.0,0.0,0.0,0.0,0.0,0.0,0.0,0.0,0.0,0.0,0.0,0.0,0.0,0.0,0.0,0.0,0.0,0.0,0.0,0.0,0.0,0.0,0.0,0.0,0.0,0.0,0.0,0.0,0.0,0.0,0.0,0.0,0.0,0.0,0.0,0.0,0.0,0.0,0.0,0.0,0.0,0.0,0.0,0.0,0.0,0.0,0.0,0.0,0.0,0.0,0.0,0.0,0.0,0.0,0.0,0.0,0.0,0.0,0.0,0.0,0.0,0.0,0.0,0.0,0.0,0.0,0.0,0.0,0.0,0.0,0.0,0.0,0.0,0.0,0.0,0.0,0.0,0.0,0.0,0.0,-1.8958,-1.8886,-1.8687,-1.9193,-2.0473,-1.9162,-1.8429,0.0,0.0,0.0,0.0,0.0,0.0,0.0,0.0,0.0,0.0,0.0,0.0,0.0,0.0,0.0,0.0,0.0,0.0,0.0,0.0,0.0,0.0,0.0,0.0,0.0,0.0,0.0,0.0,0.0,0.0,0.0,0.0,0.0,0.0,0.0,0.0,0.0,0.0,0.0,0.0,0.0,0.0,0.0,0.0,0.0,0.0,0.0,0.0,-1.1978,0.0,0.0,0.0,0.0,0.0,0.0,0.0,0.0,0.0,0.0,0.0,0.0,0.0,0.0,0.0,0.0,0.0,0.0,0.0,0.0,0.0,0.0,0.0,0.0,0.0,0.0,0.0,0.0,0.0,0.0,0.0,0.0,0.0,0.0,0.0,0.0,0.0,0.0,0.0,0.0,0.0,0.0,0.0,0.0,0.0,0.0,0.0,0.0,0.0,0.0,0.0,0.0,0.0,0.0,0.0,0.0,0.0,0.0,0.0,-1.7999,-1.8369,-1.8219,-1.851,-1.9083,-1.7663,-1.7389,0.0,0.0,0.0,0.0,0.0,0.0,0.0,0.0,0.0,0.0,0.0,0.0,0.0,0.0,0.0,0.0,0.0,0.0,0.0,0.0,0.0,0.0,0.0,0.0,0.0,0.0,0.0,0.0,0.0,0.0,0.0,0.0,0.0,0.0,0.0,0.0,0.0,0.0,0.0,0.0,0.0,0.0,0.0,0.0,0.0,0.0,0.0,0.0,0.0,0.0,0.0,0.0,0.0,0.0,0.0,0.0,0.0,0.0,0.0,0.0,0.0,0.0,0.0,0.0,0.0,0.0,0.0,0.0,0.0,0.0,0.0,0.0,0.0,0.0,0.0,0.0,0.0,0.0,0.0,0.0,0.0,0.0,0.0,0.0,0.0,0.0,0.0,0.0,0.0,0.0,0.0,0.0,0.0,0.0,0.0,0.0,0.0,0.0,0.0,0.0,0.0,0.0,0.0,0.0,0.0,0.0,0.0,-1.659,-1.7335,-1.8121,-1.8356,-1.8275,-1.7943,-1.6561,-1.6684,-1.8337,0.0,0.0,0.0,0.0,0.0,0.0,0.0,0.0,0.0,0.0,0.0,0.0,0.0,0.0,0.0,0.0,0.0,0.0,0.0,0.0,0.0,0.0,0.0,0.0,0.0,0.0,0.0,0.0,0.0,0.0,0.0,0.0,0.0,0.0,0.0,0.0,0.0,0.0,-1.2204,-1.3766,0.0,0.0,0.0,0.0,0.0,0.0,0.0,0.0,-1.3871,0.0,0.0,0.0,0.0,0.0,0.0,0.0,0.0,0.0,0.0,0.0,0.0,0.0,0.0,0.0,0.0,0.0,0.0,0.0,0.0,0.0,0.0,0.0,0.0,0.0,0.0,0.0,0.0,0.0,0.0,0.0,0.0,0.0,0.0,0.0,0.0,0.0,0.0,0.0,0.0,0.0,0.0,0.0,0.0,0.0,0.0,0.0,0.0,0.0,0.0,0.0,0.0,0.0,0.0,0.0,0.0,-1.3067,-1.5513,-1.6171,-1.4638,-1.5965,-1.6593,-1.6527,-1.7342,-1.7631,-1.7234,0.0,0.0,0.0,0.0,0.0,0.0,0.0,0.0,0.0,0.0,0.0,0.0,0.0,0.0,0.0,0.0,0.0,0.0,0.0,0.0,0.0,0.0,0.0,0.0,0.0,0.0,0.0,0.0,0.0,0.0,0.0,0.0,0.0,0.0,0.0,0.0,0.0,0.0,0.0,-1.5278,-1.5489,0.0,0.0,0.0,0.0,0.0,0.0,0.0,0.0,-1.2961,0.0,0.0,0.0,0.0,0.0,0.0,0.0,0.0,0.0,0.0,0.0,0.0,0.0,0.0,0.0,0.0,0.0,0.0,0.0,0.0,0.0,0.0,0.0,0.0,0.0,0.0,0.0,0.0,0.0,0.0,0.0,0.0,0.0,0.0,0.0,0.0,0.0,0.0,0.0,0.0,0.0,0.0,0.0,0.0,0.0,0.0,0.0,0.0,0.0,0.0,0.0,0.0,0.0,0.0,0.0,-1.3916,-1.4932,-1.5059,-1.4061,-1.4945,-1.5167,-1.4924,-1.5513,-1.5655,0.0,0.0,0.0,0.0,0.0,0.0,0.0,0.0,0.0,0.0,0.0,0.0,0.0,0.0,0.0,0.0,0.0,0.0,0.0,0.0,0.0,0.0,0.0,0.0,0.0,0.0,0.0,0.0,0.0,0.0,0.0,0.0,0.0,0.0,0.0,0.0,0.0,0.0,0.0,0.0,-1.4852,-1.5187,-1.5346,0.0,0.0,0.0,0.0,0.0,0.0,-1.3919,-1.3537,0.0,0.0,0.0,0.0,0.0,0.0,0.0,0.0,0.0,0.0,0.0,0.0,0.0,0.0,0.0,0.0,0.0,0.0,0.0,0.0,0.0,0.0,0.0,0.0,0.0,0.0,0.0,0.0,0.0,0.0,0.0,0.0,0.0,0.0,0.0,0.0,0.0,0.0,0.0,0.0,0.0,0.0,0.0,0.0,0.0,0.0,0.0,0.0,0.0,0.0,0.0,0.0,0.0,0.0,0.0,-1.4541,-1.4268,-1.4235,-1.4489,-1.4868,-1.4701,-1.4034,-1.4242,-1.3997,0.0,0.0,0.0,0.0,0.0,0.0,0.0,0.0,0.0,0.0,0.0,0.0,0.0,0.0,0.0,0.0,0.0,0.0,0.0,0.0,0.0,0.0,0.0,0.0,0.0,0.0,0.0,0.0,0.0,0.0,0.0,0.0,0.0,0.0,0.0,0.0,0.0,0.0,0.0,0.0,0.0,-1.4971,-1.3942,-1.5035,0.0,0.0,0.0,0.0,-1.4972,-1.4446,0.0,0.0,0.0,0.0,0.0,0.0,0.0,0.0,0.0,0.0,0.0,0.0,0.0,0.0,0.0,0.0,0.0,0.0,0.0,0.0,0.0,0.0,0.0,0.0,0.0,0.0,0.0,0.0,0.0,0.0,0.0,0.0,0.0,0.0,0.0,0.0,0.0,0.0,0.0,0.0,0.0,0.0,0.0,0.0,0.0,0.0,0.0,0.0,0.0,0.0,0.0,0.0,0.0,0.0,0.0,0.0,-1.2043,-1.3664,-1.4536,-1.4634,-1.6107,-1.6144,-1.4624,-1.567,-1.544,0.0,0.0,0.0,0.0,0.0,0.0,0.0,0.0,0.0,0.0,0.0,0.0,0.0,0.0,0.0,0.0,0.0,0.0,0.0,0.0,0.0,0.0,0.0,0.0,0.0,0.0,0.0,0.0,0.0,0.0,0.0,0.0,0.0,0.0,0.0,0.0,0.0,0.0,0.0,0.0,0.0,-1.5744,-1.6419,-1.5625,-1.4773,0.0,0.0,-1.4397,-1.3719,-1.3343,0.0,0.0,0.0,0.0,0.0,0.0,0.0,0.0,0.0,0.0,0.0,0.0,0.0,0.0,0.0,0.0,0.0,0.0,0.0,0.0,0.0,0.0,0.0,0.0,0.0,0.0,0.0,0.0,0.0,0.0,0.0,0.0,0.0,0.0,0.0,0.0,0.0,0.0,0.0,0.0,0.0,0.0,0.0,0.0,0.0,0.0,0.0,0.0,0.0,0.0,0.0,0.0,0.0,0.0,0.0,-1.1984,-1.289,-1.3886,-1.4527,-1.4611,-1.5355,-1.539,-1.474,-1.5106,-1.4456,0.0,0.0,0.0,0.0,0.0,0.0,0.0,0.0,0.0,0.0,0.0,0.0,0.0,0.0,0.0,0.0,0.0,0.0,0.0,0.0,0.0,0.0,0.0,0.0,0.0,0.0,0.0,0.0,0.0,0.0,0.0,0.0,0.0,0.0,0.0,0.0,0.0,0.0,0.0,0.0,0.0,0.0,-1.5489,-1.5416,0.0,0.0,0.0,-1.5262,-1.4557,0.0,0.0,0.0,0.0,0.0,0.0,0.0,0.0,0.0,0.0,0.0,0.0,0.0,0.0,0.0,0.0,0.0,0.0,0.0,0.0,0.0,0.0,0.0,0.0,0.0,0.0,0.0,0.0,0.0,0.0,0.0,0.0,0.0,0.0,0.0,0.0,0.0,0.0,0.0,0.0,0.0,0.0,0.0,0.0,0.0,0.0,0.0,0.0,0.0,0.0,0.0,0.0,0.0,0.0,0.0,0.0,0.0,-1.3312,-1.4091,-1.4516,-1.4835,-1.4814,-1.4801,-1.4794,-1.4611,0.0,0.0,0.0,0.0,0.0,0.0,0.0,0.0,0.0,0.0,0.0,0.0,0.0,0.0,0.0,0.0,0.0,0.0,0.0,0.0,0.0,0.0,0.0,0.0,0.0,0.0,0.0,-0.7593,0.0,0.0,0.0,0.0,0.0,0.0,0.0,0.0,0.0,0.0,0.0,0.0,0.0,0.0,-1.437,-1.4398,-1.5049,-1.5078,0.0,0.0,-1.5302,-1.4863,-1.4066,-1.3706,0.0,0.0,0.0,0.0,0.0,0.0,0.0,0.0,0.0,0.0,0.0,0.0,0.0,0.0,0.0,0.0,0.0,0.0,0.0,0.0,0.0,0.0,0.0,0.0,0.0,0.0,0.0,0.0,0.0,0.0,0.0,0.0,0.0,0.0,0.0,0.0,0.0,0.0,0.0,0.0,0.0,0.0,0.0,0.0,0.0,0.0,0.0,0.0,0.0,0.0,0.0,0.0,0.0,0.0,0.0,-1.2436,-1.3743,-1.4706,-1.5126,-1.5025,-1.4957,-1.495,-1.4665,-1.3743,0.0,0.0,0.0,0.0,0.0,0.0,0.0,0.0,0.0,0.0,0.0,0.0,0.0,0.0,0.0,0.0,0.0,0.0,0.0,0.0,0.0,0.0,0.0,0.0,0.0,0.0,0.0,0.0,0.0,0.0,0.0,0.0,0.0,0.0,0.0,0.0,0.0,0.0,0.0,0.0,0.0,-1.4483,-1.4121,-1.4349,-1.4205,0.0,0.0,-1.406,-1.3275,-1.304,-1.2711,-1.1844,0.0,0.0,0.0,0.0,0.0,0.0,0.0,0.0,0.0,0.0,0.0,0.0,0.0,0.0,0.0,0.0,0.0,0.0,0.0,0.0,0.0,0.0,0.0,0.0,0.0,0.0,0.0,0.0,0.0,0.0,0.0,0.0,0.0,0.0,0.0,0.0,0.0,0.0,0.0,0.0,0.0,0.0,0.0,0.0,0.0,0.0,0.0,0.0,0.0,0.0,0.0,0.0,0.0,-1.1667,-1.2298,-1.3756,-1.4692,-1.5031,-1.4997,-1.5011,-1.5099,-1.4814,-1.4095,0.0,0.0,0.0,0.0,0.0,0.0,0.0,0.0,0.0,0.0,0.0,0.0,0.0,0.0,0.0,0.0,0.0,0.0,0.0,0.0,0.0,0.0,0.0,0.0,0.0,0.0,0.0,0.0,-1.0112,-1.1164,-1.1125,0.0,0.0,0.0,0.0,0.0,0.0,0.0,0.0,0.0,0.0,-1.4294,-1.4593,-1.4767,0.0,0.0,-1.4319,-1.4578,-1.3597,-1.32,-1.2827,-1.242,-1.2395,0.0,0.0,0.0,0.0,0.0,0.0,0.0,0.0,0.0,0.0,0.0,0.0,0.0,0.0,0.0,0.0,0.0,0.0,0.0,0.0,0.0,0.0,0.0,0.0,0.0,0.0,0.0,0.0,0.0,0.0,0.0,0.0,0.0,0.0,0.0,0.0,0.0,0.0,0.0,0.0,0.0,0.0,0.0,0.0,0.0,0.0,0.0,0.0,0.0,0.0,0.0,0.0,-1.1884,-1.2427,-1.3892,-1.4794,-1.5092,-1.5147,-1.5174,-1.5174,-1.4936,-1.4367,0.0,0.0,0.0,0.0,0.0,0.0,0.0,0.0,0.0,0.0,0.0,0.0,0.0,0.0,0.0,0.0,0.0,0.0,0.0,0.0,0.0,0.0,0.0,0.0,0.0,0.0,0.0,0.0,-1.0375,-1.1366,-1.1492,0.0,0.0,0.0,0.0,0.0,0.0,0.0,0.0,0.0,0.0,-1.4114,-1.4554,-1.463,-1.446,-1.394,-1.4246,-1.4371,-1.3755,-1.3336,-1.3044,-1.2915,0.0,0.0,0.0,0.0,0.0,0.0,0.0,0.0,0.0,0.0,0.0,0.0,0.0,0.0,0.0,0.0,0.0,0.0,0.0,0.0,0.0,0.0,0.0,0.0,0.0,0.0,0.0,0.0,0.0,0.0,-0.5873,0.0,0.0,0.0,0.0,0.0,0.0,0.0,0.0,0.0,0.0,0.0,0.0,0.0,0.0,0.0,0.0,0.0,0.0,0.0,0.0,0.0,0.0,-1.1986,-1.2725,-1.4197,-1.5099,-1.5384,-1.5547,-1.5479,-1.5201,-1.5045,-1.4296,-1.2765,0.0,0.0,0.0,0.0,0.0,0.0,0.0,0.0,0.0,0.0,0.0,0.0,0.0,0.0,0.0,0.0,0.0,0.0,0.0,0.0,0.0,0.0,0.0,0.0,0.0,0.0,-0.8357,-0.9218,-0.9765,0.0,0.0,0.0,0.0,0.0,0.0,0.0,0.0,0.0,0.0,-1.3952,-1.4072,-1.3858,-1.3702,-1.3682,-1.3838,-1.337,-1.3037,-1.3214,-1.3315,-1.3241,0.0,0.0,0.0,0.0,0.0,0.0,0.0,0.0,0.0,0.0,0.0,0.0,0.0,0.0,0.0,0.0,0.0,0.0,0.0,0.0,0.0,0.0,0.0,0.0,0.0,0.0,0.0,-0.7576,-0.7814,0.0,0.0,0.0,0.0,0.0,0.0,0.0,0.0,0.0,0.0,0.0,-1.0613,-1.2166,0.0,0.0,0.0,0.0,0.0,0.0,0.0,0.0,0.0,0.0,0.0,0.0,-1.2338,-1.2922,-1.4353,-1.5208,-1.5404,-1.556,-1.5588,-1.5486,-1.5242,-1.4437,-1.2907,0.0,0.0,0.0,0.0,0.0,0.0,0.0,0.0,0.0,0.0,0.0,0.0,0.0,0.0,0.0,0.0,0.0,0.0,0.0,0.0,0.0,0.0,0.0,0.0,0.0,-0.9279,0.0,0.0,0.0,0.0,0.0,0.0,0.0,0.0,0.0,0.0,0.0,-1.3641,-1.3027,-1.3493,-1.4069,-1.4075,-1.419,-1.4265,0.0,0.0,0.0,0.0,0.0,0.0,0.0,0.0,0.0,0.0,0.0,0.0,0.0,0.0,-1.3729,-1.2447,-1.2013,-1.1884,-1.2026,0.0,0.0,0.0,0.0,0.0,0.0,0.0,0.0,0.0,0.0,0.0,0.0,0.0,0.0,-0.8902,0.0,-0.8182,0.0,0.0,0.0,0.0,0.0,0.0,0.0,0.0,-1.228,-1.1965,-1.1881,-1.3426,-1.4162,0.0,-1.2895,-1.1938,0.0,0.0,0.0,0.0,0.0,0.0,0.0,0.0,-1.2766,-1.3444,-1.4638,-1.5357,-1.556,-1.5716,-1.5771,-1.571,-1.5036,-1.4152,-1.3067,-1.2514,-1.1922,0.0,0.0,0.0,0.0,0.0,0.0,0.0,0.0,0.0,0.0,0.0,0.0,0.0,0.0,0.0,0.0,0.0,0.0,0.0,0.0,0.0,0.0,0.0,-1.0154,0.0,0.0,0.0,0.0,0.0,0.0,0.0,0.0,0.0,-1.1534,-1.2794,-1.3676,-1.3308,-1.3702,-1.4183,-1.4489,0.0,0.0,0.0,0.0,0.0,0.0,0.0,-1.3899,-1.4,-1.3865,-1.3641,-1.3336,-1.3892,-1.4353,-1.4245,0.0,0.0,-1.3526,-1.3085,-1.2969,-1.3166,-1.3241,-1.3288,-1.3349,-1.3641,-1.3878,0.0,0.0,0.0,0.0,0.0,0.0,0.0,0.0,-0.9279,-1.0154,0.0,-0.9353,0.0,0.0,0.0,0.0,0.0,-1.1104,0.0,0.0,-1.2964,-1.3548,-1.3861,-1.4395,-1.4604,-1.4618,-1.4084,-1.3695,-1.3376,-1.242,0.0,0.0,0.0,0.0,0.0,0.0,-1.3275,-1.4272,-1.5038,-1.556,-1.5839,-1.5995,-1.6008,-1.5852,-1.4603,-1.3767,-1.3492,-1.246,-1.1658,-1.126,-1.0099,0.0,0.0,0.0,0.0,0.0,0.0,0.0,0.0,0.0,0.0,0.0,0.0,0.0,0.0,0.0,0.0,0.0,0.0,0.0,0.0,-1.031,0.0,0.0,0.0,0.0,0.0,0.0,0.0,0.0,0.0,0.0,-1.1986,-1.2664,-1.3424,-1.4,0.0,0.0,0.0,0.0,-1.4821,-1.4977,-1.4624,-1.4407,-1.4543,-1.4658,-1.4746,-1.4753,0.0,0.0,-1.4848,-1.5106,-1.5201,-1.4658,-1.4923,-1.5194,-1.516,-1.4557,-1.4217,-1.4475,-1.4434,-1.4509,-1.4896,-1.5208,-1.556,-0.9929,0.0,0.0,0.0,0.0,-0.9759,-0.9799,-0.977,-1.0286,-1.0517,-1.0618,-1.0323,0.0,0.0,0.0,0.0,0.0,0.0,-1.3775,-1.3946,-1.3301,-1.323,-1.3865,-1.4297,-1.4724,-1.5113,-1.4524,-1.4387,-1.4502,-1.4217,-1.32,-1.1531,0.0,0.0,0.0,0.0,-1.3939,-1.4468,-1.5289,-1.5764,-1.5852,-1.6001,-1.581,-1.5276,-1.4996,-1.4285,-1.3333,-1.2916,-1.2346,-1.1789,-1.1093,0.0,0.0,0.0,0.0,0.0,0.0,0.0,0.0,0.0,0.0,0.0,0.0,0.0,0.0,0.0,0.0,0.0,0.0,0.0,-1.0012,-1.0948,-1.1416,0.0,0.0,0.0,0.0,0.0,0.0,0.0,0.0,0.0,-1.3302,-1.3675,-1.4075,0.0,0.0,-1.4869,-1.4957,-1.5208,-1.5398,-1.5445,-1.5337,0.0,-1.5309,-1.5167,-1.5092,-1.5201,-1.5276,-1.5289,-1.5228,-1.5323,-1.5391,-1.5309,-1.5425,-1.5506,-1.5499,-1.535,-1.5255,-1.5425,-1.552,-1.556,-1.5608,-1.5798,-1.5906,-1.0577,-1.0527,-1.0262,-1.0082,-1.0145,-1.0571,-1.0726,-1.0753,-1.073,-1.0719,-1.0878,-1.0719,-1.0429,-1.0093,-0.9966,0.0,0.0,0.0,-1.3727,-1.4119,-1.3425,-1.3561,-1.3911,-1.3905,-1.4343,-1.4874,-1.4397,-1.4517,-1.5052,-1.4936,-1.4143,-1.2745,0.0,0.0,-1.3064,-1.3838,-1.4509,-1.5038,-1.5635,-1.5974,-1.6035,-1.5984,-1.5817,-1.5331,-1.4925,-1.4241,-1.3464,-1.3188,-1.2713,-1.2197,-1.1577,-1.1119,0.0,0.0,0.0,0.0,0.0,0.0,0.0,0.0,0.0,0.0,0.0,-0.895,0.0,0.0,0.0,0.0,-1.0568,-1.0792,-1.1212,-1.1972,0.0,0.0,0.0,0.0,0.0,0.0,0.0,-1.3302,-1.4007,-1.4489,-1.455,-1.4713,-1.4821,-1.478,-1.5045,-1.5255,-1.5309,0.0,-1.5744,-1.5805,-1.5818,-1.5818,-1.5811,-1.5662,-1.5574,-1.5662,-1.5601,-1.5567,-1.5655,-1.5676,-1.571,-1.5784,-1.5811,-1.5818,-1.5818,-1.5859,-1.5879,-1.5859,-1.592,-1.5967,-1.5947,-1.6022,-1.6035,-1.0972,-1.1418,-1.0996,-1.0785,-1.0753,-1.0711,-1.0788,-1.0763,-1.0704,-1.0929,-1.1107,-1.0934,-1.0704,-1.0779,-1.0158,0.0,-1.0793,-1.1806,-1.2551,-1.3095,-1.3649,-1.3913,-1.4231,-1.3592,-1.3653,-1.4414,-1.414,-1.4212,-1.5153,-1.4909,-1.4645,-1.4394,-1.4387,-1.4434,-1.4529,-1.4584,-1.5038,-1.5872,-1.6042,-1.6185,-1.6125,-1.5851,-1.5712,-1.55,-1.4475,-1.3949,-1.373,-1.3106,-1.2743,-1.2401,-1.1743,-1.1319,-1.1172,0.0,0.0,0.0,0.0,0.0,0.0,0.0,0.0,0.0,0.0,0.0,0.0,0.0,0.0,0.0,-1.2752,0.0,-1.2813,-1.32,0.0,0.0,0.0,-1.2684,-1.2915,-1.3505,-1.4021,-1.4346,0.0,0.0,-1.5622,-1.5649,-1.556,-1.5289,-1.5486,-1.5703,-1.5818,-1.5845,-1.592,-1.6022,-1.6056,-1.6049,-1.5995,-1.5981,-1.5967,-1.5974,-1.6056,-1.6022,-1.6029,-1.6049,-1.6069,-1.6062,-1.6076,-1.6069,-1.6076,-1.6164,-1.6205,-1.5927,-1.592,-1.5988,-1.6123,-1.6164,-1.6205,-1.133,-1.1498,-1.1362,-1.1318,-1.1233,-1.0916,-1.0976,-1.1235,-1.1268,-1.1279,-1.1457,-1.1367,-1.127,-1.133,-1.1215,-1.1237,-1.1362,-1.1726,-1.2045,-1.2107,-1.3041,-1.3492,-1.3801,-1.3358,-1.3002,-1.2894,-1.3776,-1.4222,-1.4604,-1.4926,-1.5099,-1.5147,-1.4765,-1.462,-1.4719,-1.5248,-1.575,-1.6198,-1.5943,-1.5628,-1.5245,-1.5072,-1.4886,-1.4475,-1.4065,-1.3831,-1.336,-1.3069,-1.2944,-1.2765,-1.2422,-1.214,-1.1917,-1.0895,0.0,0.0,0.0,0.0,0.0,0.0,0.0,0.0,0.0,-1.111,-1.0534,0.0,-1.2176,0.0,-1.3668,-1.3933,-1.3308,-1.3749,0.0,0.0,-1.3695,-1.3736,-1.4658,-1.4523,-1.4557,-1.5086,-1.5404,-1.5594,-1.5635,-1.5737,-1.5825,-1.5859,-1.5825,-1.5778,-1.571,-1.5893,-1.5995,-1.5927,-1.592,-1.5866,-1.5784,-1.5744,-1.5764,-1.5744,-1.5839,-1.5906,-1.5906,-1.6008,-1.6083,-1.6083,-1.6083,-1.6083,-1.6083,-1.6117,-1.6117,-1.6069,-1.6293,-1.6544,-1.6585,-1.6585,-1.6564,-1.1721,-1.1726,-1.1792,-1.1848,-1.1782,-1.1245,-1.1213,-1.1527,-1.1577,-1.1599,-1.1605,-1.1487,-1.159,-1.1716,-1.1721,-1.1716,-1.1892,-1.1897,-1.1958,-1.2057,-1.2437,-1.2697,-1.3005,-1.2935,-1.2585,-1.2317,-1.3275,-1.3914,-1.4228,-1.4616,-1.4661,-1.4738,-1.4546,-1.4489,-1.459,-1.51,-1.5348,-1.5711,-1.5576,-1.5153,-1.5057,-1.4855,-1.4387,-1.4071,-1.3968,-1.3509,-1.3091,-1.3075,-1.2917,-1.2585,-1.2395,-1.221,-1.202,-1.1487,-1.1199,0.0,0.0,0.0,0.0,0.0,0.0,0.0,0.0,0.0,0.0,0.0,-1.2953,-1.3281,-1.4333,-1.4685,-1.3871,-1.4401,-1.4828,-1.4903,-1.4557,-1.4638,-1.5432,-1.5215,-1.5167,-1.556,-1.5744,-1.5811,-1.575,-1.5805,-1.5886,-1.5967,-1.5906,-1.5852,-1.5839,-1.5879,-1.59,-1.594,-1.59,-1.5859,-1.5832,-1.5839,-1.5839,-1.5845,-1.59,-1.5954,-1.5954,-1.6022,-1.6083,-1.6083,-1.6083,-1.6083,-1.6083,-1.6083,-1.6096,-1.6198,-1.6374,-1.6537,-1.6558,-1.6605,-1.6625,-1.2242,-1.2242,-1.2236,-1.2236,-1.2236,-1.1678,-1.1598,-1.1667,-1.1587,-1.1635,-1.1819,-1.1646,-1.1841,-1.2219,-1.223,-1.2242,-1.2236,-1.2242,-1.2118,-1.2223,-1.2036,-1.2102,-1.2216,-1.2221,-1.227,-1.256,-1.2949,-1.3392,-1.3879,-1.3885,-1.4085,-1.4104,-1.3927,-1.4048,-1.4464,-1.4205,-1.4372,-1.4991,-1.4905,-1.4777,-1.5018,-1.4604,-1.4087,-1.4088,-1.3686,-1.3406,-1.3004,-1.3069,-1.2857,-1.2324,-1.2172,-1.2036,-1.19,-1.2042,-1.1922,0.0,-1.1509,0.0,0.0,0.0,0.0,0.0,0.0,0.0,0.0,-1.3299,-1.3813,-1.3661,-1.4828,-1.5309,-1.4563,-1.5086,-1.5479,-1.5493,-1.5364,-1.5384,-1.5655,-1.5662,-1.5696,-1.5839,-1.5974,-1.6001,-1.5866,-1.5866,-1.5886,-1.59,-1.5872,-1.5906,-1.6022,-1.5872,-1.5818,-1.6029,-1.5927,-1.5845,-1.5947,-1.5995,-1.5995,-1.6008,-1.6015,-1.6049,-1.6035,-1.6062,-1.6083,-1.6083,-1.6083,-1.6083,-1.6083,-1.6083,-1.6123,-1.6232,-1.63,-1.6341,-1.6368,-1.6456,-1.6571,-1.2295,-1.2295,-1.2295,-1.2295,-1.2107,-1.2107,-1.1982,-1.2158,-1.1997,-1.2008,-1.2019,-1.1726,-1.1764,-1.2157,-1.2251,-1.2295,-1.2295,-1.2295,-1.2361,-1.2477,-1.2286,-1.2346,-1.2267,-1.2466,-1.2477,-1.2498,-1.3074,-1.328,-1.3491,-1.3885,-1.4134,-1.425,-1.3761,-1.3843,-1.4295,0.0,0.0,0.0,-1.4182,-1.3978,-1.3504,-1.3515,-1.3493,-1.3454,-1.3477,0.0,-1.3471,-1.3395,-1.3216,-1.2917,-1.2786,0.0,0.0,0.0,0.0,0.0,0.0,0.0,0.0,0.0,0.0,0.0,-1.2312,-1.2712,-1.2824,-1.3801,-1.4519,-1.4726,-1.5153,-1.5486,-1.5554,-1.5676,-1.5818,-1.5934,-1.5818,-1.5798,-1.5967,-1.5791,-1.5689,-1.5839,-1.5879,-1.5886,-1.5866,-1.5961,-1.6035,-1.6015,-1.5927,-1.592,-1.6062,-1.6022,-1.5967,-1.5913,-1.5811,-1.571,-1.5716,-1.5757,-1.5811,-1.5737,-1.5832,-1.5906,-1.5934,-1.6022,-1.609,-1.6096,-1.6083,-1.609,-1.609,-1.6083,-1.611,-1.6123,-1.6232,-1.6347,-1.6456,-1.6503,-1.6564,-1.216,0.0,-1.216,-1.2154,0.0,-1.216,-1.2281,-1.2167,-1.2234,-1.2218,-1.2278,-1.214,-1.201,-1.2265,-1.2133,-1.216,-1.216,-1.2352,-1.2384,-1.2444,-1.2444,-1.2477,-1.2342,-1.2591,-1.2656,-1.2908,-1.3099,-1.3161,-1.3267,-1.3416,-1.3655,-1.3776,-1.3436,-1.3464,-1.3874,-1.3382,-1.3509,-1.3839,-1.3716,-1.3471,-1.3325,-1.339,-1.3336,-1.3172,0.0,0.0,0.0,0.0,0.0,0.0,0.0,0.0,0.0,0.0,0.0,-1.2074,-1.196,-1.1889,-1.1895,-1.219,-1.2367,-1.2417,-1.2792,-1.3154,-1.3602,-1.4211,-1.4925,-1.5642,-1.5771,-1.5947,-1.6151,-1.6056,-1.6029,-1.6164,-1.5995,-1.5913,-1.6035,-1.5954,-1.5886,-1.5947,-1.5961,-1.594,-1.5866,-1.5913,-1.5967,-1.5967,-1.5906,-1.594,-1.6117,-1.5995,-1.5866,-1.5954,-1.6056,-1.6083,-1.6076,-1.6076,-1.6069,-1.609,-1.6137,-1.6178,-1.6185,-1.6246,-1.63,-1.63,-1.63,-1.63,-1.63,-1.63,-1.6293,-1.6307,-1.6361,-1.6429,-1.6517,-1.6639,-1.6768,-1.2395,-1.2401,-1.2395,-1.2395,-1.2401,-1.2395,-1.2395,-1.2379,0.0,0.0,0.0,-1.2576,-1.2439,-1.2336,-1.2336,-1.2336,-1.2342,-1.2553,-1.258,-1.2602,-1.2623,-1.264,-1.2661,-1.2754,-1.3051,-1.3156,-1.3156,-1.3047,-1.3232,-1.3145,-1.3145,-1.3232,-1.3259,-1.3281,-1.3303,-1.3303,-1.3352,-1.3444,-1.339,-1.3368,-1.339,-1.3488,-1.3401,-1.3107,-1.3428,-1.3466,-1.3178,-1.3352,-1.3259,-1.2857,-1.2835,-1.2738,-1.2531,-1.2607,-1.27,-1.2792,-1.2873,-1.2917,-1.2922,-1.2993,-1.3037,-1.3037,-1.3124,-1.3514,-1.4556,-1.4525,-1.4963,-1.6098,-1.6085,-1.6112,-1.6225,-1.6031,-1.613,-1.6252,-1.6042,-1.5947,-1.6062,-1.6056,-1.6022,-1.6042,-1.6029,-1.5995,-1.5879,-1.5913,-1.5934,-1.594,-1.5995,-1.6049,-1.6239,-1.6069,-1.5947,-1.6144,-1.6327,-1.649,-1.651,-1.649,-1.6517,-1.6469,-1.649,-1.6517,-1.6517,-1.6517,-1.6517,-1.6497,-1.6517,-1.651,-1.6517,-1.6497,-1.6517,-1.6517,-1.6517,-1.6517,-1.6544,-1.6761,-1.6944,-1.2841,-1.2835,-1.2835,-1.2835,-1.2835,-1.2835,-1.2835,-1.2819,-1.239,-1.2493,-1.2709,-1.2903,-1.2914,-1.2737,-1.2737,-1.2737,-1.2742,-1.3038,-1.3139,0.0,-1.3151,-1.3042,-1.2931,-1.2952,-1.3172,-1.3604,-1.3189,-1.3205,-1.3232,-1.3227,-1.3221,-1.3254,-1.3346,-1.345,-1.3542,-1.3553,-1.3558,-1.3569,-1.3276,-1.3167,-1.3265,-1.3281,-1.3265,-1.3232,-1.3466,-1.3586,-1.3531,-1.3558,-1.3499,-1.333,-1.3319,-1.3259,-1.3124,-1.3124,-1.3145,-1.3156,-1.3091,-1.3047,-1.3042,-1.2966,-1.2912,-1.2917,-1.2928,-1.3408,-1.4806,-1.4721,-1.4868,-1.5493,-1.559,-1.5518,-1.5531,-1.5518,-1.5704,-1.6123,-1.6083,-1.6062,-1.609,-1.5988,-1.5927,-1.5934,-1.5886,-1.5906,-1.592,-1.609,-1.6232,-1.6259,-1.6327,-1.6449,-1.6476,-1.6442,-1.6415,-1.6449,-1.649,-1.6517,-1.6571,-1.6524,-1.6558,-1.6517,-1.6544,-1.6558,-1.6558,-1.6558,-1.6564,-1.6537,-1.6571,-1.6564,-1.6558,-1.6517,-1.6571,-1.6592,-1.6598,-1.6578,-1.6592,-1.6815,-1.6951,-1.3289,-1.3283,-1.3283,-1.3289,-1.3283,-1.3289,-1.3283,-1.3278,-1.2966,-1.3084,-1.3234,-1.3029,-1.2857,-1.2917,-1.2917,-1.2917,-1.2917,-1.2971,-1.3228,-1.3492,-1.3344,-1.3189,-1.3032,-1.3303,-1.3341,-1.3548,-1.3341,-1.3374,-1.3423,-1.3374,-1.3374,-1.3439,-1.3558,-1.3678,-1.3787,-1.3738,-1.3732,-1.3787,-1.351,-1.3352,-1.3341,-1.3401,-1.3406,-1.3341,-1.351,-1.3607,-1.3607,-1.3607,-1.3613,-1.3618,-1.3558,-1.3493,-1.3439,-1.3374,-1.3308,-1.3243,-1.3189,-1.3162,-1.3162,-1.3172,-1.3205,-1.327,-1.3276,-1.3733,-1.4469,-1.4374,-1.4409,-1.5082,-1.5026,-1.5259,-1.5596,-1.5486,-1.5629,-1.6313,-1.6252,-1.6205,-1.6205,-1.6225,-1.6218,-1.6218,-1.6218,-1.6218,-1.6212,-1.6341,-1.6422,-1.6442,-1.6612,-1.6768,-1.6775,-1.691,-1.691,-1.6714,-1.6775,-1.6876,-1.6883,-1.6883,-1.6883,-1.6883,-1.6815,-1.6781,-1.6768,-1.6775,-1.6802,-1.687,-1.6883,-1.6924,-1.6971,-1.7005,-1.7005,-1.7012,-1.7012,-1.7005,-1.7032,-1.7073,-1.7087,-1.3532,-1.3532,-1.3532,-1.3532,-1.3537,-1.3532,-1.3537,-1.3537,-1.3565,-1.3733,-1.3649,-1.3151,-1.2952,-1.3021,-1.3027,-1.3027,-1.3032,-1.3059,-1.3281,-1.3493,-1.352,-1.3319,-1.3336,-1.3444,-1.3504,-1.3719,-1.3531,-1.3591,-1.3662,-1.3586,-1.3591,-1.3684,-1.3781,-1.3857,-1.3912,-1.3857,-1.3857,-1.3906,-1.3765,-1.3635,-1.3548,-1.3635,-1.364,-1.3558,-1.3635,-1.3673,-1.3645,-1.3645,-1.3678,-1.3738,-1.3684,-1.3645,-1.364,-1.358,-1.3488,-1.3379,-1.3336,-1.3298,-1.3249,-1.3325,-1.3417,-1.351,-1.352,-1.373,-1.4121,-1.3803,-1.3822,-1.4542,-1.4548,-1.4812,-1.557,-1.5469,-1.5589,-1.6292,-1.6429,-1.6361,-1.6368,-1.6456,-1.6517,-1.6517,-1.6517,-1.651,-1.6524,-1.6551,-1.6605,-1.6707,-1.691,-1.7066,-1.7107,-1.729,-1.7243,-1.7073,-1.71,-1.7195,-1.7209,-1.7175,-1.7154,-1.7154,-1.7073,-1.7019,-1.7019,-1.7046,-1.7107,-1.7202,-1.7229,-1.7249,-1.7378,-1.7358,-1.7324,-1.729,-1.7243,-1.7277,-1.729,-1.7236,-1.7222,-1.3569,-1.3569,-1.3564,-1.3575,-1.3564,-1.3564,-1.3569,-1.358,-1.3684,-1.3732,-1.389,-1.3587,-1.3449,-1.3238,-1.3043,-1.3054,-1.3482,-1.357,-1.3625,-1.3636,-1.352,-1.3569,-1.358,-1.3694,-1.3754,-1.3979,-1.3841,-1.3885,-1.3901,-1.3896,-1.3906,-1.3923,-1.3934,-1.3901,-1.383,-1.3901,-1.3901,-1.3809,-1.3885,-1.3917,-1.3906,-1.3917,-1.3917,-1.3906,-1.3912,-1.3874,-1.3765,-1.377,-1.3722,-1.364,-1.3716,-1.377,-1.3781,-1.3852,-1.3852,-1.3738,-1.3629,-1.3477,-1.3276,-1.3249,-1.3287,-1.327,-1.3303,-1.3303,-1.3298,-1.3243,-1.3465,-1.4169,-1.4111,-1.4264,-1.4904,-1.4886,-1.5283,-1.6333,-1.6537,-1.6503,-1.6517,-1.651,-1.6517,-1.6517,-1.6585,-1.6524,-1.6592,-1.6686,-1.6849,-1.706,-1.7229,-1.7358,-1.7365,-1.7412,-1.746,-1.7378,-1.7399,-1.7344,-1.7263,-1.7195,-1.7195,-1.7087,-1.7114,-1.7161,-1.7195,-1.727,-1.7392,-1.7378,-1.7399,-1.7419,-1.7405,-1.7324,-1.7263,-1.7116,-1.7043,-1.7107,-1.7182,-1.7236,-1.7036,-1.3607,-1.3607,-1.3607,-1.3607,-1.3613,-1.3678,-1.3711,-1.3509,-1.3616,-1.3885,-1.4095,-1.4159,-1.3874,-1.3444,-1.3444,-1.3444,-1.3662,-1.3711,-1.3738,-1.3743,-1.3792,-1.3814,-1.36,-1.3863,-1.4106,-1.4106,-1.4155,-1.3955,-1.3955,-1.3955,-1.3993,-1.4059,-1.4064,-1.4075,-1.4097,-1.4075,-1.4075,-1.4102,-1.4075,-1.4097,-1.4146,-1.4031,-1.3923,-1.3863,-1.3857,-1.3798,-1.3694,-1.3678,-1.3722,-1.3792,-1.3732,-1.3776,-1.3983,-1.3906,-1.3868,-1.3879,-1.3841,-1.377,-1.3673,-1.3662,-1.3635,-1.3569,-1.3564,-1.3537,-1.3461,-1.3455,-1.3692,-1.3708,-1.3766,-1.3882,-1.4376,-1.4594,-1.5008,-1.5854,-1.6392,-1.6472,-1.6802,-1.6944,-1.7026,-1.6944,-1.6998,-1.7005,-1.6958,-1.7053,-1.7188,-1.7331,-1.746,-1.7548,-1.7561,-1.7411,-1.7246,-1.7033,-1.6808,-1.6968,-1.727,-1.746,-1.7426,-1.7385,-1.7338,-1.7324,-1.7338,-1.7365,-1.7439,-1.7534,-1.7331,-1.7595,-1.769,-1.765,-1.7589,-1.7107,-1.6685,-1.6417,-1.6385,-1.6372,-1.6347,-1.37,-1.37,-1.37,-1.37,-1.3705,-1.3578,-1.3616,-1.3847,-1.3739,-1.4004,-1.4233,-1.4266,-1.4059,-1.3824,-1.3765,-1.3739,-1.3739,-1.3739,-1.3955,-1.4177,-1.4177,-1.3955,-1.3739,-1.3993,-1.4227,-1.4233,-1.4048,-1.4059,-1.4053,-1.4015,-1.4069,-1.4167,-1.4156,-1.4184,-1.4254,-1.4205,-1.4211,-1.4254,-1.4211,-1.4233,-1.4287,-1.4146,-1.4015,-1.3944,-1.3934,-1.3874,-1.376,-1.3754,-1.3809,-1.3944,-1.3792,-1.383,-1.4102,-1.3944,-1.3857,-1.3901,-1.3912,-1.3912,-1.3912,-1.3939,-1.3923,-1.3847,-1.3836,-1.3798,-1.3722,-1.37,-1.37,-1.3694,-1.3537,-1.3686,-1.4296,-1.4342,-1.4779,-1.5838,-1.6266,-1.657,-1.7134,-1.7311,-1.7358,-1.7283,-1.7311,-1.7385,-1.7297,-1.715,-1.725,-1.7277,-1.7173,-1.7266,-1.7059,-1.6911,-1.6748,-1.676,-1.6311,-1.647,-1.702,-1.7186,-1.72,-1.7153,-1.7054,-1.7047,-1.7061,-1.7067,-1.7114,-1.6821,-1.7046,-1.7053,-1.7099,-1.7151,-1.7325,-1.6652,-1.62,-1.5961,-1.6082,-1.5876,-1.5863,-1.3717,-1.3712,-1.3717,-1.3701,-1.3717,-1.3723,-1.3944,-1.4177,-1.4299,-1.4354,-1.4371,-1.4243,-1.4298,-1.4276,-1.4293,-1.4188,-1.4188,-1.42,-1.42,-1.42,-1.42,-1.4183,-1.3966,-1.4069,-1.4129,-1.436,-1.4227,-1.4276,-1.4282,-1.4184,-1.4189,-1.4298,-1.42,-1.4146,-1.4178,-1.426,-1.4254,-1.4189,-1.4254,-1.4309,-1.432,-1.4309,-1.4287,-1.4271,-1.4282,-1.42,-1.4108,-1.4102,-1.4064,-1.3961,-1.3939,-1.3999,-1.4113,-1.4026,-1.3917,-1.3836,-1.3814,-1.3814,-1.3836,-1.3923,-1.3966,-1.395,-1.395,-1.3944,-1.3912,-1.3906,-1.3906,-1.3934,-1.3885,-1.4017,-1.4286,-1.4326,-1.5022,-1.6105,-1.6447,-1.6739,-1.717,-1.7183,-1.7419,-1.7405,-1.7203,-1.723,-1.721,-1.7107,-1.6962,-1.6782,-1.6438,-1.6292,-1.6286,-1.6305,-1.6089,-1.6089,-1.6083,-1.6047,-1.6144,-1.6582,-1.6519,-1.6487,-1.6756,-1.6756,-1.6363,-1.5967,-1.6249,-1.6286,-1.6274,-1.6268,-1.628,-1.6004,-1.6125,-1.5863,-1.5627,-1.5609,-1.5492,-1.5687,-1.5687,-1.3955,-1.3961,-1.3961,-1.3961,-1.3966,-1.4037,-1.4075,-1.4304,-1.4205,-1.4254,-1.4265,-1.4303,-1.432,-1.4314,-1.4233,-1.4409,-1.4409,-1.4409,-1.4409,-1.4415,-1.4409,-1.4189,-1.4195,-1.4238,-1.4254,-1.4265,-1.4298,-1.432,-1.432,-1.4271,-1.4276,-1.4309,-1.4276,-1.4254,-1.4265,-1.4298,-1.4298,-1.4265,-1.4303,-1.432,-1.432,-1.432,-1.432,-1.4314,-1.4243,-1.4146,-1.4026,-1.4021,-1.4037,-1.4069,-1.3999,-1.4048,-1.4222,-1.4216,-1.4173,-1.4135,-1.4129,-1.4129,-1.4135,-1.4167,-1.4156,-1.408,-1.4075,-1.4037,-1.3977,-1.3955,-1.3955,-1.3961,-1.3961,-1.4117,-1.4084,-1.4299,-1.4537,-1.5206,-1.5518,-1.5784,-1.6168,-1.6417,-1.6442,-1.6379,-1.641,-1.6499,-1.6582,-1.6432,-1.6457,-1.6243,-1.6286,-1.6089,-1.6096,-1.5868,-1.5424,-1.5424,-1.5202,-1.4969,-1.4935,-1.5802,-1.6224,-1.6432,-1.6665,-1.6457,-1.6047,-1.5832,-1.6096,-1.5862,-1.5868,-1.5868,-1.5856,-1.5622,-1.5503,-1.5284,-1.5249,-1.5029,-1.4906,-1.511,-1.5139,-1.4075,-1.4293,-1.4299,-1.4293,-1.4304,-1.4382,-1.442,-1.4211,-1.4287,-1.432,-1.432,-1.432,-1.432,-1.432,-1.432,-1.432,-1.432,-1.432,-1.432,-1.432,-1.432,-1.432,-1.432,-1.432,-1.432,-1.432,-1.432,-1.432,-1.4314,-1.4282,-1.4282,-1.432,-1.4282,-1.4303,-1.4363,-1.4379,-1.4379,-1.4379,-1.4379,-1.4369,-1.433,-1.432,-1.432,-1.4309,-1.4238,-1.4162,-1.4075,-1.4075,-1.4108,-1.4167,-1.408,-1.4075,-1.4189,-1.4238,-1.4243,-1.4211,-1.4238,-1.426,-1.4271,-1.4298,-1.4282,-1.4205,-1.4195,-1.4156,-1.408,-1.4075,-1.4075,-1.4075,-1.4075,-1.4075,-1.4075,-1.4075,-1.4277,-1.4696,-1.5,-1.5266,-1.5845,-1.5906,-1.5906,-1.587,-1.5906,-1.5992,-1.6065,-1.5862,-1.5886,-1.5922,-1.5682,-1.5436,-1.5477,-1.5225,-1.5003,-1.5032,-1.4608,-1.4641,-1.4882,-1.5347,-1.5524,-1.5723,-1.6193,-1.597,-1.5711,-1.5711,-1.5688,-1.5664,-1.5652,-1.5424,-1.5424,-1.5202,-1.498,-1.498,-1.473,-1.4481,-1.452,-1.4309,-1.4536,-1.4309,-1.4303,-1.432,-1.4298,-1.4292,-1.4298,-1.4314,-1.4309,-1.4314,-1.432,-1.432,-1.432,-1.432,-1.432,-1.432,-1.432,-1.432,-1.432,-1.432,-1.432,-1.432,-1.432,-1.432,-1.432,-1.432,-1.432,-1.432,-1.432,-1.4314,-1.4233,-1.4227,-1.4287,-1.4238,-1.4309,-1.4504,-1.4504,-1.4504,-1.4504,-1.4504,-1.4445,-1.4341,-1.4336,-1.433,-1.4325,-1.4309,-1.4303,-1.4303,-1.4298,-1.4292,-1.4292,-1.42,-1.4086,-1.4048,-1.4113,-1.4102,-1.4053,-1.4097,-1.4146,-1.4167,-1.4265,-1.432,-1.4298,-1.4309,-1.4298,-1.4276,-1.4282,-1.4282,-1.4276,-1.4287,-1.4298,-1.4292,-1.4287,-1.447,-1.4833,-1.4901,-1.5389,-1.5832,-1.6071,-1.6083,-1.5832,-1.585,-1.6096,-1.588,-1.5465,-1.5295,-1.5353,-1.4871,-1.4619,-1.4702,-1.4658,-1.4401,-1.4466,-1.4483,-1.4707,-1.4807,-1.5117,-1.4823,-1.4774,-1.5259,-1.5497,-1.5185,-1.4932,-1.4871,-1.4837,-1.477,-1.477,-1.5037,-1.4586,-1.4569,-1.4569,-1.4336,-1.433,-1.432,-1.432,-1.432,-1.432,-1.432,-1.432,-1.432,-1.432,-1.432,-1.432,-1.432,-1.432,-1.432,-1.432,-1.432,-1.432,-1.432,-1.432,-1.432,-1.432,-1.432,-1.432,-1.432,-1.432,-1.432,-1.432,-1.432,-1.432,-1.432,-1.432,-1.432,-1.4314,-1.4282,-1.4325,-1.4412,-1.4407,-1.4472,-1.4613,-1.4619,-1.4619,-1.4619,-1.4619,-1.4564,-1.4461,-1.4445,-1.4412,-1.433,-1.432,-1.432,-1.432,-1.432,-1.432,-1.432,-1.4282,-1.4243,-1.4222,-1.4243,-1.4243,-1.4222,-1.4238,-1.4265,-1.4265,-1.4298,-1.432,-1.432,-1.432,-1.432,-1.432,-1.432,-1.432,-1.432,-1.432,-1.432,-1.432,-1.432,-1.4303,-1.4492,-1.452,-1.4736,-1.4912,-1.4878,-1.4629,-1.4658,-1.4786,-1.4882,-1.491,-1.4943,-1.5011,-1.4823,-1.4801,-1.4575,-1.4597,-1.4575,-1.457,-1.4613,-1.4581,-1.4581,-1.4912,-1.4983,-1.4961,-1.4706,-1.4961,-1.5179,-1.4873,-1.4586,-1.4521,-1.4428,-1.4369,-1.4352,-1.4396,-1.4407,-1.439,-1.439,-1.4401,-1.4374,-1.4336,-1.4341,-1.4379,-1.432,-1.432,-1.432,-1.432,-1.432,-1.432,-1.432,-1.432,-1.432,-1.432,-1.432,-1.432,-1.432,-1.432,-1.432,-1.432,-1.432,-1.432,-1.432,-1.432,-1.432,-1.432,-1.432,-1.432,-1.432,-1.432,-1.432,-1.4347,-1.439,-1.4396,-1.445,-1.4548,-1.457,-1.4624,-1.4733,-1.4738,-1.4738,-1.4738,-1.4744,-1.4684,-1.4591,-1.4564,-1.4532,-1.4455,-1.4412,-1.439,-1.4385,-1.4347,-1.432,-1.432,-1.432,-1.4358,-1.4434,-1.4417,-1.4385,-1.439,-1.4385,-1.4369,-1.433,-1.432,-1.432,-1.432,-1.432,-1.432,-1.432,-1.432,-1.432,-1.432,-1.432,-1.432,-1.4325,-1.4369,-1.4385,-1.4385,-1.439,-1.4374,-1.433,-1.4336,-1.4347,-1.4396,-1.4483,-1.4548,-1.4586,-1.4613,-1.4695,-1.4722,-1.47,-1.4706,-1.4711,-1.4695,-1.4706,-1.4711,-1.4711,-1.4738,-1.4798,-1.4836,-1.4852,-1.4858,-1.4874,-1.5055,-1.4765,-1.4716,-1.4662,-1.4494,-1.4401,-1.439,-1.4423,-1.4434,-1.4428,-1.4445,-1.4483,-1.4504,-1.4499,-1.4488,-1.451,-1.432,-1.432,-1.4325,-1.4325,-1.4325,-1.433,-1.433,-1.433,-1.433,-1.433,-1.433,-1.433,-1.433,-1.433,-1.4336,-1.433,-1.433,-1.433,-1.4341,-1.4347,-1.4347,-1.4347,-1.4325,-1.4341,-1.4352,-1.4347,-1.4347,-1.4401,-1.451,-1.451,-1.457,-1.4673,-1.4689,-1.4744,-1.4847,-1.4863,-1.4869,-1.4863,-1.4863,-1.4803,-1.4695,-1.4684,-1.4668,-1.4651,-1.4559,-1.451,-1.4499,-1.4428,-1.4358,-1.4336,-1.4347,-1.4439,-1.4597,-1.457,-1.451,-1.451,-1.451,-1.4439,-1.4363,-1.4325,-1.432,-1.432,-1.432,-1.432,-1.432,-1.432,-1.432,-1.432,-1.432,-1.433,-1.4358,-1.4423,-1.4494,-1.4526,-1.4521,-1.4548,-1.4646,-1.4646,-1.4608,-1.4629,-1.4673,-1.4684,-1.4689,-1.4706,-1.4771,-1.4814,-1.4787,-1.4798,-1.482,-1.482,-1.4782,-1.4787,-1.482,-1.4847,-1.4896,-1.4863,-1.4885,-1.4939,-1.4956,-1.4923,-1.4852,-1.4803,-1.4706,-1.4548,-1.4439,-1.4434,-1.4434,-1.4439,-1.4504,-1.457,-1.4613,-1.4662,-1.4668,-1.464,-1.4657,-1.432,-1.4325,-1.4336,-1.4341,-1.4347,-1.4363,-1.4145,-1.4145,-1.4145,-1.3684,-1.4145,-1.4374,-1.3917,-1.4369,-1.4145,-1.4374,-1.3689,-1.4145,-1.4417,-1.4472,-1.4707,-1.4412,-1.4363,-1.4412,-1.4455,-1.4455,-1.4455,-1.4515,-1.4624,-1.4629,-1.4689,-1.4803,-1.4809,-1.4863,-1.4972,-1.4983,-1.4988,-1.4988,-1.4988,-1.4928,-1.4825,-1.4809,-1.476,-1.4673,-1.4646,-1.4629,-1.4624,-1.4597,-1.4537,-1.4461,-1.4455,-1.4515,-1.4668,-1.4651,-1.4629,-1.4619,-1.4553,-1.4499,-1.445,-1.4374,-1.433,-1.432,-1.4325,-1.432,-1.432,-1.432,-1.432,-1.432,-1.4325,-1.4363,-1.4434,-1.4494,-1.4581,-1.4722,-1.4689,-1.4657,-1.4678,-1.4673,-1.4673,-1.4678,-1.476,-1.4798,-1.4825,-1.4874,-1.4928,-1.4961,-1.495,-1.4923,-1.4939,-1.495,-1.4912,-1.4912,-1.4928,-1.495,-1.4956,-1.4912,-1.4923,-1.4999,-1.5015,-1.5005,-1.4918,-1.4825,-1.4689,-1.4526,-1.4466,-1.445,-1.4434,-1.4434,-1.4542,-1.47,-1.4668,-1.4678,-1.4744,-1.4754,-1.4814,-1.4325,-1.4336,-1.4341,-1.1866,-0.8494,-0.8281,-0.8284,-0.8284,-0.8284,-0.8284,-0.8284,-0.8284,-1.0536,-1.3709,-1.0085,-0.8284,-0.8734,-1.2573,-1.4647,-1.4696,-1.4521,-1.4515,-1.4499,-1.4548,-1.4575,-1.4575,-1.4575,-1.464,-1.4733,-1.4749,-1.482,-1.4912,-1.4934,-1.4972,-1.5021,-1.5037,-1.5037,-1.5037,-1.5037,-1.4999,-1.4939,-1.4934,-1.4901,-1.482,-1.4782,-1.4733,-1.4684,-1.4673,-1.4657,-1.464,-1.4613,-1.4651,-1.4803,-1.4776,-1.4749,-1.4744,-1.4684,-1.464,-1.4564,-1.4466,-1.4401,-1.4385,-1.4358,-1.4325,-1.432,-1.4325,-1.433,-1.4396,-1.4396,-1.4455,-1.4553,-1.4619,-1.4738,-1.488,-1.4869,-1.4825,-1.4825,-1.4836,-1.4831,-1.4841,-1.4885,-1.4934,-1.4928,-1.4999,-1.5026,-1.5032,-1.5021,-1.5015,-1.5026,-1.5037,-1.5032,-1.5005,-1.4994,-1.4999,-1.5005,-1.4972,-1.4956,-1.5021,-1.5037,-1.5037,-1.4977,-1.4869,-1.4744,-1.4608,-1.4521,-1.4472,-1.4488,-1.4548,-1.4706,-1.4787,-1.4727,-1.4776,-1.488,-1.4863,-1.4928,-1.4336,-1.4129,-1.3222,-0.7825,0.0,0.0,0.0,0.0,0.0,0.0,0.0,0.0,0.0,-1.213,0.0,0.0,0.0,-0.8293,-1.3054,-1.4242,-1.4774,-1.4613,-1.4651,-1.4651,-1.4678,-1.4689,-1.4695,-1.4765,-1.4847,-1.4874,-1.4928,-1.4999,-1.5026,-1.5032,-1.5037,-1.5037,-1.5037,-1.5037,-1.5037,-1.5032,-1.5015,-1.5015,-1.5005,-1.4983,-1.4918,-1.4836,-1.4765,-1.4738,-1.4771,-1.4874,-1.476,-1.4809,-1.4977,-1.4923,-1.4885,-1.4863,-1.4841,-1.4782,-1.47,-1.4597,-1.451,-1.4488,-1.4401,-1.4341,-1.4352,-1.4363,-1.4401,-1.451,-1.4521,-1.4575,-1.4684,-1.4798,-1.4896,-1.4994,-1.5015,-1.5032,-1.5037,-1.5037,-1.5037,-1.5037,-1.5032,-1.5037,-1.5037,-1.5037,-1.5037,-1.5037,-1.5037,-1.5037,-1.5037,-1.5037,-1.5037,-1.5032,-1.5026,-1.5032,-1.5032,-1.5026,-1.5021,-1.5037,-1.5037,-1.5032,-1.501,-1.4918,-1.482,-1.4716,-1.4624,-1.4597,-1.4613,-1.4722,-1.4841,-1.488,-1.4825,-1.4983,-1.5135,-1.501,-1.5005,-1.4374,-1.3699,-0.6267,-0.2013,0.0,0.0,0.0,0.0,0.0,0.0,0.0,0.0,0.0,0.0,0.0,0.0,0.0,0.0,-0.698,-1.4796,-1.489,-1.4939,-1.4956,-1.4945,-1.4978,-1.5022,-1.4814,-1.488,-1.4967,-1.4988,-1.501,-1.5026,-1.5043,-1.5037,-1.5037,-1.5037,-1.5037,-1.5037,-1.5037,-1.5037,-1.5037,-1.5037,-1.5037,-1.5032,-1.5005,-1.4988,-1.4967,-1.4961,-1.4977,-1.4977,-1.4675,-1.4423,-1.4766,-1.501,-1.4988,-1.4972,-1.4907,-1.4858,-1.4825,-1.4504,-1.4397,-1.4091,-1.4285,-1.4252,-1.4466,-1.4466,-1.4521,-1.4608,-1.464,-1.4689,-1.4803,-1.4923,-1.4994,-1.5026,-1.5037,-1.5037,-1.5037,-1.5037,-1.5037,-1.5037,-1.5037,-1.5037,-1.5037,-1.5037,-1.5037,-1.5037,-1.5037,-1.5037,-1.5037,-1.5037,-1.5037,-1.5037,-1.5037,-1.5037,-1.5037,-1.5037,-1.5037,-1.5037,-1.5037,-1.5037,-1.5015,-1.4972,-1.4874,-1.4798,-1.4727,-1.4716,-1.4727,-1.4727,-1.4814,-1.4863,-1.4934,-1.5048,-1.5119,-1.5064,-1.5124,-1.1674,-0.7166,-0.2014,0.0,0.0,0.0,0.0,0.0,0.0,0.0,0.0,0.0,0.0,0.0,0.0,0.0,0.0,0.0,-0.2698,-0.8366,-1.1829,-1.4895,-1.4995,-1.5,-1.5028,-1.488,-1.4939,-1.4999,-1.5048,-1.5059,-1.5048,-1.5048,-1.5053,-1.5043,-1.5037,-1.5037,-1.5037,-1.5037,-1.5037,-1.5037,-1.5037,-1.5037,-1.5037,-1.5037,-1.5037,-1.5037,-1.5032,-1.5043,-1.5053,-1.457,-1.2877,-1.2631,-1.4575,-1.5059,-1.5059,-1.5053,-1.5021,-1.4977,-1.4729,-1.277,-1.152,-1.2154,-1.3498,-1.4381,-1.4591,-1.4581,-1.464,-1.4722,-1.4771,-1.4809,-1.4923,-1.4983,-1.5032,-1.5037,-1.5037,-1.5037,-1.5037,-1.5037,-1.5037,-1.5037,-1.5037,-1.5037,-1.5037,-1.5037,-1.5037,-1.5037,-1.5037,-1.5037,-1.5037,-1.5037,-1.5037,-1.5037,-1.5037,-1.5037,-1.5037,-1.5037,-1.5037,-1.5037,-1.5037,-1.5037,-1.5026,-1.4983,-1.4928,-1.4869,-1.4814,-1.482,-1.482,-1.4814,-1.4831,-1.4923,-1.501,-1.507,-1.5097,-1.5075,-1.5211,-0.7396,0.0,0.0,0.0,0.0,0.0,0.0,0.0,0.0,0.0,0.0,0.0,0.0,0.0,0.0,0.0,0.0,0.0,0.0,0.0,0.0,-1.0668,-1.1212,-1.127,-1.1316,-1.2793,-1.2877,-1.3411,-1.4612,-1.4134,-1.2934,-1.3645,-1.4836,-1.483,-1.5053,-1.5043,-1.5043,-1.5043,-1.5037,-1.5037,-1.5043,-1.5043,-1.5048,-1.5053,-1.5053,-1.5053,-1.5059,-1.5064,-1.5075,-1.4607,-1.011,-1.0825,-1.344,-1.3899,-1.3889,-1.3675,-1.3182,-1.3894,-1.4123,-1.1699,-0.9768,-0.9519,-1.2714,-1.4515,-1.4722,-1.4722,-1.4776,-1.4841,-1.4896,-1.4923,-1.5021,-1.5032,-1.5037,-1.5037,-1.5037,-1.5037,-1.5037,-1.5037,-1.5037,-1.5037,-1.5037,-1.5037,-1.5037,-1.5037,-1.5037,-1.5037,-1.5037,-1.5037,-1.5037,-1.5037,-1.5037,-1.5037,-1.5037,-1.5037,-1.5037,-1.5053,-1.5048,-1.5059,-1.5053,-1.5059,-1.5053,-1.501,-1.4972,-1.4956,-1.4923,-1.4918,-1.4923,-1.4928,-1.4967,-1.5032,-1.5048,-1.5064,-1.5081,-1.5092,-1.5238,-0.1346,0.0,0.0,0.0,0.0,0.0,0.0,0.0,0.0,0.0,0.0,0.0,0.0,0.0,0.0,0.0,0.0,0.0,0.0,0.0,0.0,0.0,0.0,0.0,0.0,-0.3699,-0.6529,-1.0575,-1.2249,-1.1059,-1.011,-0.9872,-1.2244,-1.3904,-1.4368,-1.5075,-1.4586,-1.5059,-1.5053,-1.5048,-1.5048,-1.4347,-1.4352,-1.4134,-1.4134,-1.4373,-1.4618,-1.4857,-1.5108,-1.4649,-1.0121,-1.0606,-1.2515,-1.0837,-0.9879,-0.87,-0.87,-0.989,-1.2267,-1.3215,-0.8899,-0.6287,-0.953,-1.397,-1.4417,-1.4632,-1.4202,-1.4967,-1.5005,-1.5015,-1.5032,-1.5037,-1.5037,-1.5037,-1.5037,-1.5037,-1.5037,-1.5037,-1.5037,-1.5037,-1.5037,-1.5037,-1.5037,-1.5037,-1.5037,-1.5037,-1.5037,-1.5037,-1.5037,-1.5037,-1.5037,-1.5037,-1.5037,-1.5037,-1.5037,-1.5059,-1.507,-1.5097,-1.5102,-1.5102,-1.5086,-1.5048,-1.5021,-1.5053,-1.5037,-1.501,-1.5021,-1.5032,-1.5032,-1.5048,-1.5048,-1.5048,-1.5053,-1.5064,-1.5075,0.0,0.0,0.0,0.0,0.0,0.0,0.0,0.0,0.0,0.0,0.0,0.0,0.0,0.0,0.0,0.0,0.0,0.0,0.0,0.0,0.0,0.0,0.0,0.0,0.0,0.0,-0.2798,0.0,-0.7532,-1.0841,-0.7998,-0.4701,-0.6349,-0.8468,-1.0587,-1.0817,-1.2704,-1.3894,-1.4847,-1.4841,-1.4602,-1.2943,-1.1294,-1.1059,-1.1063,-1.1059,-1.1541,-1.4169,-1.4895,-1.419,-1.0143,-0.8016,-0.8019,-0.9437,-0.8719,-0.4939,0.0,0.0,0.0,-0.7072,-0.4464,-0.2107,-0.7257,-1.0548,-1.1004,-1.0996,-1.2178,-1.4331,-1.5048,-1.5037,-1.5037,-1.5037,-1.5037,-1.5037,-1.5037,-1.5037,-1.5037,-1.5037,-1.5043,-1.5043,-1.5048,-1.5048,-1.5037,-1.5037,-1.5037,-1.5037,-1.5037,-1.5037,-1.5037,-1.5053,-1.5064,-1.5092,-1.5108,-1.513,-1.514,-1.5157,-1.5157,-1.5168,-1.5173,-1.5179,-1.5189,-1.5179,-1.5206,-1.5238,-1.52,-1.5146,-1.5081,-1.5075,-1.507,-1.5053,-1.5048,-1.5043,-1.5037,-1.5043,-1.5059,0.0,0.0,0.0,0.0,0.0,0.0,0.0,0.0,0.0,0.0,0.0,0.0,0.0,0.0,0.0,0.0,0.0,0.0,0.0,0.0,0.0,0.0,0.0,0.0,0.0,0.0,0.0,0.0,0.0,-0.6834,-0.6123,0.0,0.0,-0.1646,-0.5171,-0.611,-0.9175,-1.2023,-1.3469,-1.3709,-1.3714,-1.1335,-0.7542,-0.6121,-0.6114,-0.5879,-0.637,-0.8725,-1.0621,-0.9911,-0.7545,-0.4243,-0.2121,-0.7553,-0.8025,0.0,0.0,0.0,0.0,0.0,0.0,0.0,0.0,-0.541,-0.5875,-0.6572,-0.8453,-1.3406,-1.5053,-1.5043,-1.5037,-1.5037,-1.5037,-1.5037,-1.5037,-1.5037,-1.5037,-1.5043,-1.5064,-1.507,-1.5064,-1.5064,-1.5064,-1.5037,-1.5037,-1.5037,-1.5037,-1.5037,-1.5043,-1.5097,-1.5124,-1.5162,-1.52,-1.5244,-1.5271,-1.5298,-1.5298,-1.5298,-1.5304,-1.5304,-1.5331,-1.5352,-1.5363,-1.5352,-1.5369,-1.5309,-1.5217,-1.5119,-1.5108,-1.5086,-1.5053,-1.5037,-1.5037,-1.5043,-1.5053,0.0,0.0,0.0,0.0,0.0,0.0,0.0,0.0,0.0,0.0,0.0,0.0,0.0,0.0,0.0,0.0,0.0,0.0,0.0,0.0,0.0,0.0,0.0,0.0,0.0,0.0,0.0,0.0,0.0,0.0,0.0,0.0,0.0,0.0,0.0,0.0,-0.3528,-0.7542,-0.8293,-1.0231,-1.3368,-1.313,-0.8335,-0.3563,0.0,0.0,0.0,0.0,0.0,0.0,0.0,0.0,-0.0236,-0.0707,-0.1414,0.0,0.0,0.0,0.0,0.0,0.0,0.0,0.0,0.0,0.0,0.0,-0.5169,-1.4118,-1.5064,-1.5059,-1.5053,-1.5048,-1.5043,-1.5059,-1.5081,-1.507,-1.5064,-1.5135,-1.5151,-1.5168,-1.5195,-1.5135,-1.5097,-1.5064,-1.5037,-1.5037,-1.5043,-1.5053,-1.5081,-1.5157,-1.5206,-1.5249,-1.5314,-1.5363,-1.5401,-1.5434,-1.5456,-1.5445,-1.5445,-1.5445,-1.5467,-1.5483,-1.5423,-1.5423,-1.545,-1.5401,-1.5255,-1.5168,-1.5146,-1.5102,-1.5048,-1.5037,-1.5037,-1.5043,-1.5053,0.0,0.0,0.0,0.0,0.0,0.0,0.0,0.0,0.0,0.0,0.0,0.0,0.0,0.0,0.0,0.0,0.0,0.0,0.0,0.0,0.0,0.0,0.0,0.0,0.0,0.0,0.0,0.0,0.0,0.0,0.0,0.0,0.0,0.0,0.0,0.0,0.0,-0.2847,-0.3341,-0.4316,-0.6001,0.0,0.0,0.0,0.0,0.0,0.0,0.0,0.0,0.0,0.0,0.0,0.0,0.0,0.0,0.0,0.0,0.0,0.0,0.0,0.0,0.0,0.0,0.0,0.0,0.0,0.0,-0.5638,-1.2001,-1.4373,-1.4857,-1.513,-1.5151,-1.5168,-1.5184,-1.5206,-1.5217,-1.5238,-1.5276,-1.5298,-1.5314,-1.5271,-1.5244,-1.5249,-1.5233,-1.5206,-1.5217,-1.5238,-1.5255,-1.5293,-1.5325,-1.5352,-1.5423,-1.5488,-1.5532,-1.557,-1.5619,-1.5619,-1.5624,-1.5619,-1.5619,-1.5603,-1.5526,-1.5494,-1.5516,-1.5423,-1.5271,-1.5233,-1.5222,-1.5135,-1.5037,-1.5037,-1.5037,-1.5037,-1.5043,0.0,0.0,0.0,0.0,0.0,0.0,0.0,0.0,0.0,0.0,0.0,0.0,0.0,0.0,0.0,0.0,0.0,0.0,0.0,0.0,0.0,0.0,0.0,0.0,0.0,0.0,0.0,0.0,0.0,0.0,0.0,0.0,0.0,0.0,0.0,0.0,0.0,0.0,0.0,0.0,0.0,0.0,0.0,0.0,0.0,0.0,0.0,0.0,0.0,0.0,0.0,0.0,0.0,0.0,0.0,0.0,0.0,0.0,0.0,0.0,0.0,0.0,0.0,0.0,0.0,0.0,0.0,0.0,-0.5877,-1.0367,-1.2768,-1.3055,-1.3813,-1.4337,-1.5352,-1.5385,-1.5407,-1.5391,-1.5396,-1.5423,-1.545,-1.5472,-1.5461,-1.5478,-1.545,-1.5396,-1.5396,-1.5407,-1.5423,-1.5434,-1.5472,-1.5499,-1.5548,-1.5608,-1.5635,-1.5684,-1.5738,-1.5755,-1.5755,-1.5738,-1.57,-1.5662,-1.5597,-1.5581,-1.5548,-1.5423,-1.5255,-1.5276,-1.5287,-1.5146,-1.5037,-1.5037,-1.5037,-1.5037,-1.5043,0.0,0.0,0.0,0.0,0.0,0.0,0.0,0.0,0.0,0.0,0.0,0.0,0.0,0.0,0.0,0.0,0.0,0.0,0.0,0.0,0.0,0.0,0.0,0.0,0.0,0.0,0.0,0.0,0.0,0.0,0.0,0.0,0.0,0.0,0.0,0.0,0.0,0.0,0.0,0.0,0.0,0.0,0.0,0.0,0.0,0.0,0.0,0.0,0.0,0.0,0.0,0.0,0.0,0.0,0.0,0.0,0.0,0.0,0.0,0.0,0.0,0.0,0.0,0.0,0.0,0.0,0.0,0.0,0.0,-0.4494,-0.6644,-0.8329,-0.9819,-1.1307,-1.2318,-1.3553,-1.4049,-1.5494,-1.5505,-1.5543,-1.5575,-1.5603,-1.5613,-1.5619,-1.5581,-1.5521,-1.5505,-1.5516,-1.5548,-1.5565,-1.5619,-1.5662,-1.5695,-1.5722,-1.5728,-1.5755,-1.5755,-1.5755,-1.5755,-1.5744,-1.5722,-1.5679,-1.5608,-1.551,-1.5439,-1.5336,-1.5255,-1.5222,-1.5179,-1.5092,-1.5037,-1.5037,-1.5037,-1.5037,-1.5048,0.0,0.0,0.0,0.0,0.0,0.0,0.0,0.0,0.0,0.0,0.0,0.0,0.0,0.0,0.0,0.0,0.0,0.0,0.0,0.0,0.0,0.0,0.0,0.0,0.0,0.0,0.0,0.0,0.0,0.0,0.0,0.0,0.0,0.0,0.0,0.0,0.0,0.0,0.0,0.0,0.0,0.0,0.0,0.0,0.0,0.0,0.0,0.0,0.0,0.0,0.0,0.0,0.0,0.0,0.0,0.0,0.0,0.0,0.0,0.0,0.0,0.0,0.0,0.0,0.0,0.0,0.0,0.0,0.0,0.0,0.0,0.0,-0.3869,-0.6063,-0.8268,-1.0233,-1.1455,-1.2418,-1.4143,-1.3691,-1.4953,-1.5728,-1.5738,-1.5749,-1.5695,-1.5646,-1.563,-1.5624,-1.5646,-1.5662,-1.57,-1.5722,-1.5744,-1.5755,-1.5755,-1.5755,-1.5755,-1.5755,-1.5749,-1.5711,-1.5679,-1.5635,-1.5559,-1.5445,-1.5331,-1.5238,-1.5168,-1.5124,-1.5081,-1.5048,-1.5037,-1.5037,-1.5037,-1.5048,-1.5086,0.0,0.0,0.0,0.0,0.0,0.0,0.0,0.0,0.0,0.0,0.0,0.0,0.0,0.0,0.0,0.0,0.0,0.0,0.0,0.0,0.0,0.0,0.0,0.0,0.0,0.0,0.0,0.0,0.0,0.0,0.0,0.0,0.0,0.0,0.0,0.0,0.0,0.0,0.0,0.0,0.0,0.0,0.0,0.0,0.0,0.0,0.0,0.0,0.0,0.0,0.0,0.0,0.0,0.0,0.0,0.0,0.0,0.0,0.0,0.0,0.0,0.0,0.0,0.0,0.0,0.0,0.0,0.0,0.0,0.0,0.0,0.0,0.0,0.0,0.0,-0.5645,-0.6133,-0.711,-1.0067,-1.1813,-1.2811,-1.3301,-1.5787,-1.5782,-1.5749,-1.5711,-1.57,-1.569,-1.5706,-1.5717,-1.5733,-1.5744,-1.5749,-1.5755,-1.5755,-1.5755,-1.5749,-1.5733,-1.5717,-1.5652,-1.5608,-1.5554,-1.5467,-1.5336,-1.5227,-1.5135,-1.5097,-1.4847,-1.5059,-1.5043,-1.5037,-1.5043,-1.5113,-1.514,-1.5184,0.0,0.0,0.0,0.0,0.0,0.0,0.0,0.0,0.0,0.0,0.0,0.0,0.0,0.0,0.0,0.0,0.0,0.0,0.0,0.0,0.0,0.0,0.0,0.0,0.0,0.0,0.0,0.0,0.0,0.0,0.0,0.0,0.0,0.0,0.0,0.0,0.0,0.0,0.0,0.0,0.0,0.0,0.0,0.0,0.0,0.0,0.0,0.0,0.0,0.0,0.0,0.0,0.0,0.0,0.0,0.0,0.0,0.0,0.0,0.0,0.0,0.0,0.0,0.0,0.0,0.0,0.0,0.0,0.0,0.0,0.0,0.0,0.0,0.0,0.0,0.0,0.0,-0.2956,-0.5912,-0.764,-0.8375,-0.9604,-1.3319,-1.5558,-1.5782,-1.576,-1.5755,-1.5755,-1.5755,-1.5755,-1.5755,-1.5755,-1.5755,-1.5755,-1.5755,-1.5755,-1.5749,-1.5722,-1.5668,-1.5597,-1.5494,-1.5407,-1.5314,-1.5217,-1.5162,-1.5102,-1.4841,-1.482,-1.363,-1.2686,-1.4575,-1.507,-1.5151,-1.5222,-1.526,0.0,0.0,0.0,0.0,0.0,0.0,0.0,0.0,0.0,0.0,0.0,0.0,0.0,0.0,0.0,0.0,0.0,0.0,0.0,0.0,0.0,0.0,0.0,0.0,0.0,0.0,0.0,0.0,0.0,0.0,0.0,0.0,0.0,0.0,0.0,0.0,0.0,0.0,0.0,0.0,0.0,0.0,0.0,0.0,0.0,0.0,0.0,0.0,0.0,0.0,0.0,0.0,0.0,0.0,0.0,0.0,0.0,0.0,0.0,0.0,0.0,0.0,0.0,0.0,0.0,0.0,0.0,0.0,0.0,0.0,0.0,0.0,0.0,0.0,0.0,0.0,0.0,0.0,-0.1974,-0.222,-0.2957,-0.5662,-0.9112,-1.4326,-1.5804,-1.5782,-1.5777,-1.576,-1.5755,-1.5755,-1.5755,-1.5755,-1.5755,-1.5755,-1.5755,-1.5733,-1.569,-1.5652,-1.5586,-1.551,-1.5401,-1.5287,-1.5211,-1.514,-1.5108,-1.5081,-1.4602,-1.3889,-1.1043,-1.0103,-1.2231,-1.3665,-1.3954,-1.4513,-1.5314,0.0,0.0,0.0,0.0,0.0,0.0,0.0,0.0,0.0,0.0,0.0,0.0,0.0,0.0,0.0,0.0,0.0,0.0,0.0,0.0,0.0,0.0,0.0,0.0,0.0,0.0,0.0,0.0,0.0,0.0,0.0,0.0,0.0,0.0,0.0,0.0,0.0,0.0,0.0,0.0,0.0,0.0,0.0,0.0,0.0,0.0,0.0,0.0,0.0,0.0,0.0,0.0,0.0,0.0,0.0,0.0,0.0,0.0,0.0,0.0,0.0,0.0,0.0,0.0,0.0,0.0,0.0,0.0,0.0,0.0,0.0,0.0,0.0,0.0,0.0,0.0,0.0,0.0,0.0,0.0,0.0,0.0,-0.5414,-1.1345,-1.582,-1.5809,-1.5793,-1.5526,-1.551,-1.576,-1.576,-1.576,-1.5755,-1.5755,-1.5728,-1.569,-1.5641,-1.5581,-1.5499,-1.5412,-1.532,-1.5206,-1.5135,-1.5081,-1.5086,-1.4857,-1.4388,-1.2962,-1.0371,-0.9189,-0.9894,-1.1327,-1.2293,-1.2614,-1.2709,0.0,0.0,0.0,0.0,0.0,0.0,0.0,0.0,0.0,0.0,0.0,0.0,0.0,0.0,0.0,0.0,0.0,0.0,0.0,0.0,0.0,0.0,0.0,0.0,0.0,0.0,0.0,0.0,0.0,0.0,0.0,0.0,0.0,0.0,0.0,0.0,0.0,0.0,0.0,0.0,0.0,0.0,0.0,0.0,0.0,0.0,0.0,0.0,0.0,0.0,0.0,0.0,0.0,0.0,0.0,0.0,0.0,0.0,0.0,0.0,0.0,0.0,0.0,0.0,0.0,0.0,0.0,0.0,0.0,0.0,0.0,0.0,0.0,0.0,0.0,0.0,0.0,0.0,0.0,0.0,0.0,0.0,0.0,-0.7396,0.0,-1.5078,-1.4566,-1.3306,-1.3541,-1.5521,-1.5521,-1.5771,-1.5766,-1.5755,-1.5717,-1.5414,-1.557,-1.5499,-1.5385,-1.5293,-1.5206,-1.4916,-1.5113,-1.5092,-1.5097,-1.3929,-1.0636,-0.9936,-1.0412,0.0,0.0,-0.6851,-0.7336,-0.7402,-0.77,0.0,0.0,0.0,0.0,0.0,0.0,0.0,0.0,0.0,0.0,0.0,0.0,0.0,0.0,0.0,0.0,0.0,0.0,0.0,0.0,0.0,0.0,0.0,0.0,0.0,0.0,0.0,0.0,0.0,0.0,0.0,0.0,0.0,0.0,0.0,0.0,0.0,0.0,0.0,0.0,0.0,0.0,0.0,0.0,0.0,0.0,0.0,0.0,0.0,0.0,0.0,0.0,0.0,0.0,0.0,0.0,0.0,0.0,0.0,0.0,0.0,0.0,0.0,0.0,0.0,0.0,0.0,0.0,0.0,0.0,0.0,0.0,0.0,0.0,0.0,0.0,0.0,0.0,0.0,0.0,0.0,0.0,0.0,0.0,0.0,0.0,-1.3342,-1.1833,-1.1571,-1.3301,-1.5532,-1.5542,-1.4506,-1.3993,-1.4943,-1.5139,-1.5269,-1.5407,-1.4575,-1.4246,-1.443,-1.4394,-1.4857,-1.3924,-1.2284,-0.8523,-0.4276,0.0,0.0,0.0,0.0,0.0,0.0,0.0,0.0,0.0,0.0,0.0,0.0,0.0,0.0,0.0,0.0,0.0,0.0,0.0,0.0,0.0,0.0,0.0,0.0,0.0,0.0,0.0,0.0,0.0,0.0,0.0,0.0,0.0,0.0,0.0,0.0,0.0,0.0,0.0,0.0,0.0,0.0,0.0,0.0,0.0,0.0,0.0,0.0,0.0,0.0,0.0,0.0,0.0,0.0,0.0,0.0,0.0,0.0,0.0,0.0,0.0,0.0,0.0,0.0,0.0,0.0,0.0,0.0,0.0,0.0,0.0,0.0,0.0,0.0,0.0,0.0,0.0,0.0,0.0,0.0,0.0,0.0,0.0,0.0,0.0,0.0,0.0,0.0,0.0,0.0,0.0,0.0,0.0,0.0,-0.8891,-0.988,-0.9371,-1.0348,-1.3319,-1.5308,-1.3264,-1.1743,-1.2682,-1.262,-1.2039,-1.1708,-1.14,-1.1339,-1.2249,-1.2971,-1.2999,-1.088,-0.8053,0.0,0.0,0.0,0.0,0.0,0.0,0.0,0.0,0.0,0.0,0.0,0.0,0.0,0.0,0.0,0.0,0.0,0.0,0.0,0.0,0.0,0.0,0.0,0.0,0.0,0.0,0.0,0.0,0.0,0.0,0.0,0.0,0.0,0.0,0.0,0.0,0.0,0.0,0.0,0.0,0.0,0.0,0.0,0.0,0.0,0.0,0.0,0.0,0.0,0.0,0.0,0.0,0.0,0.0,0.0,0.0,0.0,0.0,0.0,0.0,0.0,0.0,0.0,0.0,0.0,0.0,0.0,0.0,0.0,0.0,0.0,0.0,0.0,0.0,0.0,0.0,0.0,0.0,0.0,0.0,0.0,0.0,0.0,0.0,0.0,0.0,0.0,0.0,0.0,0.0,0.0,0.0,0.0,0.0,0.0,0.0,-0.3457,-0.5929,0.0,0.0,0.0,0.0,-1.3504,-1.0973,-0.7253,-0.7215,-0.7402,-0.7115,0.0,-0.7067,-0.7054,-0.8963,-1.1139,0.0,0.0,0.0,0.0,0.0,0.0,0.0,0.0,0.0,0.0,0.0,0.0,0.0,0.0,0.0,0.0,0.0,0.0,0.0,0.0,0.0,0.0,0.0,0.0,0.0,0.0,0.0,0.0,0.0,0.0,0.0,0.0,0.0,0.0,0.0,0.0,0.0,0.0,0.0,0.0,0.0,0.0,0.0,0.0,0.0,0.0,0.0,0.0,0.0,0.0,0.0,0.0,0.0,0.0,0.0,0.0,0.0,0.0,0.0,0.0,0.0,0.0,0.0,0.0,0.0,0.0,0.0,0.0,0.0,0.0,0.0,0.0,0.0,0.0,0.0,0.0,0.0,0.0,0.0,0.0,0.0,0.0,0.0,0.0,0.0,0.0,0.0,0.0,0.0,0.0,0.0,0.0,0.0,0.0,0.0,0.0,0.0,0.0,0.0,0.0,0.0,0.0,0.0,0.0,0.0,-1.1197,0.0,0.0,0.0,0.0,0.0,0.0,0.0,-0.5683,0.0,0.0,0.0,0.0,0.0,0.0,0.0,0.0,0.0,0.0,0.0,0.0,0.0,0.0,0.0,0.0,0.0,0.0,0.0,0.0,0.0,0.0,0.0,0.0,0.0,0.0,0.0,0.0,0.0,0.0,0.0,0.0,0.0,0.0,0.0,0.0,0.0,0.0,0.0,0.0,0.0,0.0,0.0,0.0,0.0,0.0,0.0,0.0,0.0,0.0,0.0,0.0,0.0,0.0,0.0,0.0,0.0,0.0,0.0,0.0,0.0,0.0,0.0,0.0,0.0,0.0,0.0,0.0,0.0,0.0,0.0,0.0,0.0,0.0,0.0,0.0,0.0,0.0,0.0,0.0,0.0,0.0,0.0,0.0,0.0,0.0,0.0,0.0,0.0,0.0,0.0,0.0,0.0,0.0,0.0,0.0,0.0,0.0,0.0,0.0,0.0,0.0,0.0,0.0,0.0,0.0,0.0,0.0,0.0,0.0,0.0,0.0,0.0,0.0,0.0,0.0,0.0,0.0,0.0,0.0,0.0,0.0,0.0,0.0,0.0,0.0,0.0,0.0,0.0,0.0,0.0,0.0,0.0,0.0,0.0,0.0,0.0,0.0,0.0,0.0,0.0,0.0,0.0,0.0,0.0,0.0,0.0,0.0,0.0,0.0,0.0,0.0,0.0,0.0,0.0,0.0,0.0,0.0,0.0,0.0,0.0,0.0,0.0,0.0,0.0,0.0,0.0,0.0,0.0,0.0,0.0,0.0,0.0,0.0,0.0,0.0,0.0,0.0,0.0,0.0,0.0,0.0,0.0,0.0,0.0,0.0,0.0,0.0,0.0,0.0,0.0,0.0,0.0,0.0,0.0,0.0,0.0,0.0,0.0,0.0,0.0,0.0,0.0,0.0,0.0,0.0,0.0,0.0,0.0,0.0,0.0,0.0,0.0,0.0,0.0,0.0,0.0,0.0,0.0,0.0,0.0,0.0,0.0,0.0,0.0,0.0,0.0,0.0,0.0,0.0,0.0,0.0,0.0,0.0,0.0,0.0,0.0,0.0,0.0,0.0,0.0,0.0,0.0,0.0,0.0,0.0,0.0,0.0,0.0,0.0,0.0,0.0,0.0,0.0,0.0,0.0,0.0,0.0,0.0,0.0,0.0,0.0,0.0,0.0,0.0,0.0,0.0,0.0,0.0,0.0,0.0,0.0,0.0,0.0,0.0,0.0,0.0,0.0,0.0,0.0,0.0,0.0,0.0,0.0,0.0,0.0,0.0,0.0,0.0,0.0,0.0,0.0,0.0,0.0,0.0,0.0,0.0,0.0,0.0,0.0,0.0,0.0,0.0,0.0,0.0,0.0,0.0,0.0,0.0,0.0,0.0,0.0,0.0,0.0,0.0,0.0,0.0,0.0,0.0,0.0,0.0,0.0,0.0,0.0,0.0,0.0,0.0,0.0,0.0,0.0,0.0,0.0,0.0,0.0,0.0,0.0,0.0,0.0,0.0,0.0,0.0,0.0,0.0,0.0,0.0,0.0,0.0,0.0,0.0,0.0,0.0,0.0,0.0,0.0,0.0,0.0,0.0,0.0]}]]